GFSCGP_700_spd_003.txt.gz
Wind_Speed
5 3 5 7 8 6 8 12 16 15 12 21 16 22 16 13 9 10 10 13 12 13 15 20 25 24 27 33 32 33 35 36 35 35 36 38 38 39 37 38 38 36 35 36
4 1 4 6 9 10 13 15 14 13 18 22 18 18 9 1 6 5 2 1 6 12 14 18 19 20 22 26 28 30 31 35 33 36 36 36 37 38 37 38 40 36 36 36
1 3 5 6 7 13 15 11 19 21 24 15 17 3 3 4 5 2 1 9 12 15 13 17 22 24 24 26 32 35 37 36 35 30 36 35 34 34 37 37 38 39 41 40
2 5 4 5 7 14 12 16 18 22 22 14 15 10 2 1 3 0 2 6 10 14 19 24 25 28 32 34 37 33 30 28 30 31 30 36 34 35 29 21 26 33 36 39
6 5 4 5 8 16 12 20 19 17 15 14 2 7 7 3 2 5 7 9 10 19 22 24 28 31 33 35 33 32 31 33 35 39 39 35 36 34 34 35 39 41 39 40
5 9 4 6 10 15 17 22 20 7 5 7 7 4 13 6 5 7 8 12 17 18 21 21 21 25 26 29 28 31 31 31 35 36 39 35 37 36 37 40 44 43 41 43
7 4 6 6 11 10 16 15 8 4 6 8 2 10 17 11 11 9 10 12 12 15 15 18 21 22 20 27 32 35 35 36 34 40 39 39 41 41 42 43 46 42 41 42
5 4 1 12 5 9 9 8 4 5 6 16 23 10 6 8 10 9 11 11 16 14 19 21 22 22 23 26 31 35 41 43 38 38 43 42 45 46 45 47 50 46 44 47
6 2 9 15 8 13 6 7 7 10 14 9 11 15 19 14 10 13 12 16 17 20 25 24 24 22 23 27 32 41 44 45 41 37 44 46 48 47 47 54 49 48 49 46
6 10 9 7 14 9 7 13 6 5 5 11 14 21 17 11 13 17 20 19 22 24 24 25 24 24 29 40 38 38 41 41 39 38 46 47 51 50 48 51 46 46 45 48
9 6 6 16 4 16 14 15 9 10 12 7 10 11 14 30 28 23 21 23 31 29 26 24 26 28 33 38 41 37 38 39 39 43 48 47 50 48 50 48 45 45 48 49
9 8 14 18 14 7 5 8 14 16 12 18 30 40 24 14 12 20 28 35 29 32 28 26 29 37 37 34 42 44 45 42 43 46 44 48 47 49 50 46 47 47 43 44
9 5 13 12 5 6 12 18 22 22 24 32 17 26 17 29 39 33 32 35 34 32 29 32 35 38 36 42 47 46 45 43 44 41 44 47 47 49 43 46 42 40 42 45
14 11 14 19 24 26 30 31 31 28 31 46 40 58 47 40 38 38 37 34 29 30 32 38 38 38 50 43 44 44 45 44 41 41 43 45 45 42 45 39 38 39 43 47
10 18 19 27 28 28 31 35 39 36 40 41 59 46 49 43 40 36 33 31 28 39 40 40 51 53 47 46 44 45 44 44 40 40 42 42 42 43 36 36 37 42 46 48
14 23 21 36 32 24 28 34 40 34 36 40 43 49 35 35 33 35 29 30 44 45 41 45 49 52 47 43 44 43 41 39 37 39 43 43 36 32 32 36 41 45 48 51
27 34 25 25 21 22 25 16 17 22 26 32 39 41 37 31 27 26 37 44 43 44 39 52 49 47 47 47 44 40 32 29 30 39 41 29 29 30 35 41 45 47 50 49
28 28 26 22 20 8 11 26 26 21 29 28 32 30 28 24 34 44 43 44 45 51 52 52 52 49 46 42 41 35 35 34 40 39 28 26 28 32 39 42 45 48 46 46
19 24 22 14 22 33 28 14 27 26 29 28 21 17 24 43 49 49 43 41 56 55 47 47 51 48 44 38 35 35 35 35 27 24 25 26 30 37 41 44 43 44 45 44
18 23 28 25 20 13 19 30 21 25 29 16 23 35 48 45 44 47 51 55 49 53 48 52 50 47 39 34 32 28 24 22 23 25 26 30 35 40 43 42 42 43 43 46
23 24 30 34 26 26 24 26 24 17 27 27 40 49 46 47 45 50 52 54 52 47 51 50 46 37 34 30 26 23 23 22 23 25 29 34 37 40 40 41 41 42 44 41
29 24 12 20 18 18 13 22 25 37 58 50 45 49 51 49 50 54 54 50 58 56 53 53 44 36 28 22 22 21 15 22 26 29 32 35 37 36 38 40 40 41 38 38
35 34 36 31 31 35 40 48 44 45 47 50 43 46 49 53 57 53 52 53 56 54 55 50 38 30 20 21 20 18 22 25 28 30 33 34 34 35 37 39 39 36 36 38
36 29 41 47 48 39 48 45 40 39 43 46 43 49 51 51 51 53 53 55 54 54 53 39 30 21 20 21 19 22 25 27 29 31 32 31 32 34 35 36 35 34 35 38
44 44 47 57 46 50 43 36 44 46 43 41 47 47 49 49 49 54 54 53 53 50 37 27 22 21 21 20 23 26 27 28 30 30 30 30 32 33 34 33 33 31 32 36
50 50 50 57 50 39 49 46 46 44 46 43 43 45 46 40 53 54 52 49 45 38 25 20 21 21 20 22 25 27 28 29 29 28 29 31 32 33 33 32 31 30 30 31

GFSCGP_700_spd_006.txt.gz
Wind_Speed
4 6 3 6 8 9 12 14 17 15 15 21 21 22 15 12 10 9 12 12 16 14 13 15 23 32 25 23 27 28 30 30 32 32 33 34 36 36 38 37 40 40 38 36
5 1 5 6 7 9 13 16 14 15 20 21 23 24 14 10 8 9 2 2 4 8 12 13 22 24 22 24 24 25 29 35 36 32 32 32 33 35 37 37 40 41 36 37
4 5 8 6 6 12 14 7 16 21 23 9 16 14 11 6 6 10 1 3 8 15 12 14 19 23 28 28 28 31 35 34 35 34 27 34 36 32 35 38 37 36 32 35
2 9 6 7 6 12 12 16 21 20 18 15 16 10 7 7 6 4 1 3 8 10 15 19 22 26 28 33 36 34 34 34 34 37 39 32 38 40 35 36 37 31 28 32
4 9 8 8 8 14 14 20 23 23 19 16 4 7 11 7 6 5 3 9 13 19 22 22 22 24 31 31 32 30 29 31 32 34 37 40 34 38 37 37 39 37 37 42
6 13 7 10 12 13 18 23 20 4 4 4 8 3 16 11 4 5 8 9 16 24 26 25 21 29 31 30 31 28 32 32 32 33 34 39 41 36 41 42 45 47 48 48
9 7 9 10 11 11 13 17 8 5 4 5 14 14 19 22 14 10 11 17 22 25 19 20 28 28 25 35 30 34 40 42 41 39 37 39 40 42 41 45 49 49 52 51
5 7 2 11 13 11 13 8 4 4 4 13 27 8 11 6 16 17 18 23 18 11 13 28 24 25 29 29 33 36 35 36 40 43 46 46 43 45 46 47 51 54 49 50
8 1 10 17 15 8 8 6 7 9 15 9 8 15 22 10 7 9 19 20 16 25 26 25 28 24 26 29 34 41 43 34 36 38 41 44 46 49 52 53 56 51 49 51
5 10 7 7 15 11 9 10 5 3 3 6 11 22 18 16 20 28 27 20 22 24 31 28 29 28 29 34 46 49 44 43 40 40 41 43 46 51 51 55 56 53 54 56
9 6 8 16 1 11 9 13 11 13 13 5 6 9 22 37 23 15 26 33 34 32 32 33 28 29 37 43 53 47 49 43 41 41 41 45 46 45 45 51 53 54 53 51
8 8 12 21 10 9 8 9 12 13 13 24 29 32 16 14 12 34 41 34 38 35 32 24 26 34 46 55 53 50 50 49 47 46 47 47 44 39 42 47 51 50 44 42
12 4 10 9 1 2 15 25 27 29 29 22 15 24 34 42 42 39 40 38 34 28 28 30 33 41 47 51 49 48 46 48 50 49 49 47 42 39 39 43 43 43 43 39
14 9 8 15 20 27 31 30 34 34 35 36 33 49 41 41 41 35 32 30 29 27 28 38 46 49 53 52 52 50 49 50 51 48 47 44 39 39 40 40 43 39 36 37
15 18 17 24 26 26 31 33 34 37 39 37 47 39 41 37 37 34 32 35 27 29 38 56 45 44 53 51 52 48 47 49 47 46 41 37 40 38 38 43 34 34 35 39
18 28 30 35 36 27 28 35 44 36 29 27 31 37 36 35 34 33 28 33 43 53 57 53 44 54 50 48 51 48 46 43 40 42 41 36 32 34 36 29 33 34 40 43
26 31 32 28 30 30 31 22 20 22 28 29 31 40 39 33 28 30 39 50 58 47 50 53 53 54 48 49 51 48 46 44 41 39 36 34 34 35 31 33 33 38 42 45
26 29 31 25 29 7 11 18 29 25 22 27 36 37 30 27 35 41 53 48 51 51 49 53 50 53 54 51 48 45 36 37 37 34 37 39 32 32 31 34 37 41 44 44
8 19 21 15 22 34 27 20 18 31 31 31 20 17 24 40 49 55 39 51 48 51 51 49 51 49 52 52 45 37 35 31 31 34 30 28 30 30 33 38 40 41 42 43
15 18 19 27 25 15 23 35 20 23 31 19 22 49 37 46 52 60 46 50 57 49 49 51 53 53 54 49 39 33 27 23 20 24 24 27 30 34 36 39 39 39 40 41
19 23 28 33 26 26 31 28 21 17 20 52 51 41 60 50 46 49 57 54 53 53 52 52 53 52 49 38 30 22 19 16 19 25 28 30 33 35 37 37 37 39 40 40
22 22 26 26 19 20 12 24 29 49 53 48 60 51 52 47 35 50 51 55 50 54 56 53 51 50 38 28 21 19 17 21 23 27 32 33 34 35 34 36 36 37 38 38
21 19 29 31 30 49 50 49 50 50 51 48 43 44 41 51 53 49 52 53 54 57 51 49 47 40 28 23 23 22 21 23 27 30 31 33 32 32 33 35 36 37 37 37
23 34 39 43 50 49 48 42 42 42 44 49 32 44 50 42 45 47 55 52 55 54 51 46 38 26 23 23 23 22 24 26 28 30 31 31 31 32 33 34 35 36 36 36
37 45 47 54 49 44 43 47 47 42 45 37 41 46 44 41 48 52 54 55 54 49 42 36 25 20 20 23 24 26 27 29 30 31 31 30 30 32 33 33 34 35 34 34
40 43 41 45 41 45 50 40 38 42 35 47 32 36 41 47 52 53 54 52 49 41 34 22 17 22 22 22 26 30 30 31 31 30 29 30 31 33 33 33 32 33 32 28

GFSCGP_700_spd_009.txt.gz
Wind_Speed
1 4 3 6 7 6 6 11 15 14 17 23 21 18 11 12 14 14 11 10 11 13 19 23 19 18 25 29 27 27 28 27 30 32 30 28 29 28 29 30 34 38 35 31
2 10 7 8 5 11 12 12 12 19 22 16 17 16 9 13 17 16 10 4 6 9 12 14 16 23 26 26 26 26 27 29 30 28 27 29 30 31 32 32 33 36 37 37
5 7 10 6 5 12 14 10 18 24 25 5 16 9 5 14 17 15 9 6 5 9 11 16 16 18 21 22 33 35 32 29 30 32 32 32 34 35 32 34 35 37 38 35
1 6 8 4 7 12 19 13 18 20 20 16 22 7 16 13 12 14 9 10 14 16 17 23 25 28 25 32 38 27 30 28 32 35 36 35 33 34 35 34 35 38 41 42
2 10 11 8 13 14 15 19 22 16 14 16 15 7 7 9 13 7 6 8 12 16 21 25 28 23 30 34 36 29 31 31 32 33 34 36 38 35 33 35 38 41 43 43
8 12 9 16 9 9 15 20 16 4 2 3 13 12 6 15 14 6 12 11 14 17 26 27 29 30 31 35 34 32 35 42 43 38 33 32 36 38 39 38 39 40 44 46
7 9 10 13 17 15 12 18 9 5 2 4 17 15 9 22 8 5 9 15 20 27 27 29 32 32 27 32 34 35 35 42 47 41 39 39 42 44 46 47 46 44 45 49
5 2 6 13 18 14 10 11 5 2 2 10 26 3 7 21 12 13 22 21 18 24 22 29 26 29 31 35 37 40 39 40 46 41 38 40 41 46 49 52 49 50 50 52
9 3 7 12 15 11 8 9 10 6 11 4 7 7 24 3 13 31 19 16 23 30 31 26 32 31 33 36 37 36 39 48 49 44 37 35 38 43 43 46 49 53 56 58
4 12 3 6 11 7 7 9 6 4 2 4 7 14 20 19 33 22 17 29 38 31 30 36 38 39 36 40 42 39 49 48 49 46 44 47 45 46 43 44 48 55 56 57
7 7 7 14 4 6 6 8 10 12 7 4 3 6 15 39 22 23 32 37 37 31 34 30 29 31 33 35 43 56 48 48 50 50 51 46 45 46 43 41 43 47 48 49
8 8 12 14 4 4 1 11 19 15 8 22 24 29 23 14 26 33 33 27 30 33 31 34 35 37 39 44 56 52 51 52 51 50 50 53 52 45 40 37 39 43 41 37
14 4 8 10 3 5 11 23 29 29 31 27 14 20 32 38 34 33 27 31 36 38 38 41 41 45 51 54 50 49 52 51 48 54 54 54 49 41 39 36 35 34 33 36
17 13 8 11 18 20 25 33 34 29 25 32 31 43 39 32 27 29 36 38 39 44 46 47 47 52 46 49 49 51 48 50 52 54 53 50 42 40 36 37 33 34 34 30
15 21 22 26 24 26 29 33 38 36 40 36 42 31 32 29 32 32 32 37 45 46 47 53 55 50 48 49 48 50 51 51 52 47 48 50 45 39 38 39 35 32 30 32
16 21 24 31 32 29 25 42 39 20 14 30 35 39 28 31 36 36 36 36 45 46 56 46 46 51 49 49 50 51 52 50 44 41 44 45 39 40 41 34 30 27 29 34
23 23 23 30 29 26 24 18 20 27 31 26 30 28 28 31 27 30 33 42 54 51 46 50 50 48 48 50 51 50 49 45 42 35 37 35 35 39 31 34 32 31 35 37
14 16 25 27 27 4 13 24 29 27 19 31 39 36 31 33 38 42 45 46 45 42 49 51 48 48 51 49 48 49 46 41 35 30 28 29 30 30 30 30 32 34 36 36
11 10 13 11 11 26 29 20 18 28 36 33 32 32 35 41 53 56 51 42 36 56 48 48 51 51 49 49 49 47 39 31 26 24 22 23 26 27 31 33 34 35 34 34
14 16 17 22 14 7 30 26 26 27 34 23 27 44 62 57 48 49 40 42 48 43 48 51 51 52 53 48 48 37 28 26 25 22 22 21 27 31 34 35 33 33 34 35
18 18 22 28 17 17 30 10 28 24 35 50 47 51 49 47 47 40 44 43 45 45 49 49 50 52 49 47 38 26 24 23 23 20 20 25 31 34 33 32 32 33 34 35
21 16 21 18 11 13 4 35 39 47 46 44 45 50 48 48 42 42 38 42 45 49 50 52 53 51 46 38 28 24 23 23 20 24 27 29 31 31 30 31 32 33 33 34
28 30 28 29 32 42 46 42 38 35 42 43 42 46 42 46 36 35 40 45 48 50 53 54 53 45 35 27 24 23 22 24 25 27 29 29 29 28 28 31 33 33 33 33
31 26 38 39 47 48 42 40 41 35 35 40 46 43 40 39 37 39 43 47 50 52 52 47 40 34 24 21 23 23 23 24 26 28 28 28 27 28 30 31 32 31 32 33
38 36 49 47 46 42 41 42 40 42 46 41 45 49 36 30 39 42 47 49 50 48 42 32 27 20 19 24 24 25 25 26 27 27 28 28 28 30 30 31 30 30 31 34
45 43 38 45 43 40 48 44 45 48 42 41 42 42 31 39 46 49 49 50 48 42 34 27 19 18 21 22 23 26 29 28 28 28 29 29 29 29 30 29 28 29 29 31

GFSCGP_700_spd_012.txt.gz
Wind_Speed
1 4 4 5 5 3 8 10 11 10 13 21 13 16 8 11 12 10 15 16 10 14 16 16 17 15 16 20 24 23 29 27 27 26 26 28 28 28 28 28 28 27 24 24
5 7 5 5 5 6 11 14 11 15 17 17 13 15 10 6 7 10 13 12 9 10 12 11 7 10 14 17 17 22 29 25 26 26 28 31 31 31 30 29 31 32 32 31
4 1 5 7 8 10 12 16 16 19 20 4 17 5 12 6 10 13 15 10 9 9 10 10 12 13 17 17 16 28 33 29 29 30 32 35 34 33 32 32 33 34 36 37
2 5 9 5 12 14 16 13 15 18 13 6 15 4 7 8 12 13 10 13 15 13 13 15 22 30 28 22 27 34 36 30 30 35 37 39 39 38 34 35 35 35 38 40
1 5 12 7 9 9 18 21 19 13 8 3 20 4 6 8 15 14 10 13 15 17 18 25 26 26 27 29 33 36 39 36 33 36 40 43 43 41 39 36 37 39 41 42
8 7 7 11 9 16 14 19 10 2 2 2 8 19 6 16 9 10 6 8 14 16 17 20 25 27 29 37 38 41 39 37 33 32 41 45 39 41 39 37 38 39 44 47
6 2 4 10 17 9 17 19 9 4 4 3 11 14 8 9 14 11 12 12 12 14 25 28 28 33 34 36 42 40 38 32 32 34 46 39 39 39 38 39 41 41 47 51
5 4 7 10 15 12 14 15 5 1 1 9 16 2 4 3 4 25 12 8 21 26 29 26 30 32 37 41 31 26 32 32 35 50 45 42 41 39 41 42 43 45 42 47
7 3 9 13 10 7 6 12 6 3 5 2 7 4 15 14 17 29 23 21 28 26 27 25 34 38 35 29 30 30 36 41 49 57 50 45 44 39 38 41 44 45 42 40
6 9 5 7 5 4 5 8 3 6 2 3 7 12 16 20 22 38 19 33 35 36 34 35 39 40 42 45 42 43 46 53 54 49 49 49 45 43 45 47 46 41 35 37
9 5 6 7 3 2 4 2 5 5 5 4 2 9 22 35 23 29 31 30 32 32 30 35 39 37 35 38 44 49 54 51 49 49 49 49 51 52 50 45 36 33 33 35
7 7 11 8 5 5 2 7 18 7 7 19 21 27 10 6 28 29 30 27 24 28 35 38 37 39 40 47 55 51 48 48 49 49 50 52 53 52 45 37 36 35 34 35
11 5 8 4 6 3 9 18 24 24 13 16 8 13 25 24 22 24 18 22 32 34 33 34 37 47 49 50 46 49 49 48 50 53 53 53 52 48 43 40 35 32 31 29
13 10 10 10 11 15 23 27 26 26 22 25 35 40 32 31 19 17 26 31 34 36 38 39 49 50 42 46 46 46 48 50 52 52 51 50 49 40 42 40 34 33 34 31
16 16 17 21 19 20 29 31 29 31 28 27 33 29 33 33 28 29 34 35 39 44 46 47 49 45 47 49 46 47 50 51 50 49 48 44 42 40 43 40 38 37 29 26
18 20 19 27 25 21 30 28 17 17 18 28 30 38 31 31 34 31 36 40 46 52 50 44 41 50 46 44 48 47 48 49 50 49 43 36 32 34 39 35 32 33 33 31
23 19 11 11 18 21 25 9 17 23 27 27 25 33 36 35 33 39 45 49 53 51 38 41 40 43 44 46 48 50 51 49 47 41 32 25 21 26 31 33 33 32 33 33
17 13 15 14 18 4 15 22 24 21 21 25 31 38 40 40 44 52 51 44 46 45 38 36 40 45 45 49 50 51 50 47 40 30 23 22 22 24 27 30 32 34 35 35
11 12 11 8 8 22 29 16 14 23 23 29 17 27 35 42 52 50 42 41 44 35 34 35 39 45 49 51 51 51 47 38 29 26 25 25 25 27 27 32 36 36 35 34
16 17 16 20 9 5 21 19 18 16 32 21 44 43 42 42 48 47 52 41 39 34 38 41 47 51 52 51 50 46 39 29 26 25 25 22 22 27 32 35 35 33 33 34
16 16 22 27 24 18 29 23 16 18 33 47 41 40 44 42 40 50 40 47 41 39 42 46 47 48 48 48 45 37 30 26 23 22 21 25 26 31 32 32 32 32 33 34
21 16 21 17 12 14 14 15 32 46 54 42 45 43 44 47 53 44 34 35 42 46 45 46 47 46 44 41 33 28 24 24 25 25 25 28 30 31 30 30 31 32 34 35
28 28 31 29 30 39 41 42 38 41 40 45 43 48 48 49 42 39 38 44 46 47 48 48 45 40 35 30 25 23 24 25 25 26 29 30 30 29 29 30 31 32 33 34
28 37 40 37 50 41 39 34 35 38 41 41 45 46 46 27 30 36 42 46 50 51 51 49 38 31 26 25 23 22 19 23 24 27 28 27 28 28 30 30 31 32 33 33
41 31 43 46 37 36 35 37 42 41 43 47 43 39 29 30 35 42 45 47 48 46 42 37 30 26 27 26 25 27 26 23 26 27 27 26 28 29 29 30 31 30 31 32
41 46 38 45 35 36 42 40 44 44 44 49 29 21 33 38 42 45 45 44 45 42 38 31 28 28 28 32 31 25 24 27 27 27 26 27 29 31 31 29 28 29 29 29

GFSCGP_700_spd_015.txt.gz
Wind_Speed
5 3 4 6 9 7 8 13 16 9 12 21 13 15 7 11 9 5 6 10 9 6 13 14 9 11 9 13 18 20 18 23 27 26 31 29 28 28 29 31 31 31 30 30
2 2 3 7 9 7 9 13 16 12 15 14 10 5 9 6 1 4 8 9 6 5 6 9 5 5 7 13 19 22 19 28 28 26 30 31 30 29 33 32 32 34 33 32
1 2 4 7 7 9 10 10 13 17 18 4 13 3 11 8 3 6 7 3 3 5 6 9 9 14 18 16 17 18 27 28 27 29 30 36 40 35 36 31 31 34 36 37
2 4 8 3 8 12 12 15 18 15 13 3 10 2 11 3 6 9 9 8 8 11 13 12 17 21 22 25 30 32 31 34 33 35 37 36 40 43 45 37 34 33 36 39
1 2 6 7 10 14 17 16 16 13 7 4 8 3 8 4 7 9 10 7 11 15 20 22 24 28 31 31 30 34 35 34 34 37 36 36 38 45 49 44 42 40 39 41
2 1 3 6 11 9 13 13 5 2 3 2 2 12 9 10 14 5 4 8 11 14 18 19 23 27 29 29 33 33 32 33 38 37 38 39 40 53 53 47 43 44 44 45
2 1 3 7 13 4 12 11 4 2 2 4 6 7 7 14 14 15 5 6 11 13 17 20 25 23 24 28 30 31 32 33 40 40 42 46 51 49 45 45 47 46 46 45
4 2 5 8 11 9 10 12 4 3 1 7 13 3 8 12 8 20 13 12 17 23 22 22 21 22 27 28 29 31 32 36 43 46 49 51 49 47 45 45 46 45 48 50
7 3 7 6 8 4 3 6 5 1 3 3 8 3 7 19 17 23 32 31 26 25 22 21 20 23 25 26 31 37 41 44 49 55 52 48 48 47 46 47 49 50 50 49
7 6 4 11 2 2 2 2 1 5 2 3 7 15 16 16 24 32 34 31 33 32 27 21 24 30 33 35 40 43 48 52 55 48 50 50 49 50 52 53 51 46 40 35
8 5 5 4 4 8 5 5 3 1 1 3 3 9 15 24 25 27 29 33 32 29 27 29 35 37 36 40 43 48 48 48 49 51 50 50 52 54 55 53 48 38 32 30
8 4 9 6 0 4 4 4 9 5 4 12 13 18 3 2 24 27 28 31 28 29 31 35 37 43 43 46 50 51 49 47 46 47 48 49 51 54 54 53 46 35 34 32
11 5 6 2 4 7 9 16 16 19 17 14 9 10 10 28 29 33 27 23 27 31 37 39 40 46 48 43 42 45 44 43 43 45 48 50 51 51 50 44 38 35 39 36
14 10 10 10 11 18 26 25 24 24 20 21 31 38 30 29 36 29 23 29 33 38 43 46 49 45 38 40 41 41 43 43 47 51 52 53 52 48 39 35 35 39 40 35
12 18 21 21 19 22 28 30 26 28 26 23 28 30 35 33 32 31 33 37 39 43 49 48 42 41 40 39 38 39 44 50 55 55 51 51 48 36 31 33 37 35 32 30
18 19 20 29 18 15 28 31 15 15 18 23 31 32 30 34 33 32 37 41 49 52 49 49 46 44 42 41 43 46 49 54 56 56 51 43 32 23 27 23 25 27 30 32
21 18 7 11 19 20 21 3 17 17 24 30 23 28 33 29 35 45 48 50 50 49 48 45 42 38 40 44 44 47 50 51 54 51 44 32 24 22 24 28 30 32 34 36
16 15 13 12 17 2 14 25 31 32 24 22 25 30 21 43 47 44 44 46 49 40 49 41 41 43 43 44 49 51 52 53 49 42 32 31 26 27 27 26 27 33 35 37
11 13 12 9 14 22 33 14 19 20 26 33 27 22 39 51 47 47 43 44 45 54 42 38 41 44 45 47 50 51 50 46 35 30 29 29 26 24 25 30 32 35 37 37
14 16 18 21 10 6 22 22 21 25 30 20 20 45 51 46 48 44 46 46 43 34 40 42 44 48 50 50 50 48 42 34 32 28 27 28 30 31 29 32 34 35 36 36
16 16 21 27 24 18 30 23 19 16 21 36 46 45 48 45 43 47 51 39 34 40 42 46 48 49 49 47 42 36 30 28 29 30 30 31 30 31 32 33 34 34 35 37
19 16 24 20 10 14 19 20 26 40 48 44 45 46 46 46 50 43 32 33 38 41 47 48 47 46 43 41 35 31 30 29 28 24 30 29 30 33 34 33 33 35 36 35
28 30 30 23 19 39 44 46 47 39 39 41 40 48 42 47 46 33 32 39 45 46 46 47 45 42 37 32 32 31 27 25 27 31 31 28 31 33 32 33 34 35 35 36
28 32 37 38 41 46 39 42 37 30 36 41 36 43 49 43 27 33 41 44 43 45 45 45 44 39 33 30 33 32 30 29 29 27 30 31 31 31 33 34 35 35 34 34
39 40 40 42 43 38 40 39 41 32 41 39 47 43 41 25 36 42 46 43 44 44 44 43 39 35 31 31 32 32 28 27 29 31 31 31 31 33 34 34 34 33 32 33
41 34 42 43 37 42 45 49 39 37 39 45 47 28 26 33 37 40 43 43 42 42 42 39 35 33 32 30 27 25 27 29 30 29 30 31 33 34 33 32 30 29 30 30

GFSCGP_700_spd_018.txt.gz
Wind_Speed
5 2 3 6 8 7 7 10 13 13 10 18 13 11 7 4 5 3 2 3 3 3 8 13 15 10 10 12 15 18 23 25 24 31 29 27 24 27 27 31 31 31 31 31
3 1 3 5 6 6 8 11 12 8 12 15 8 5 7 7 5 1 4 6 2 1 3 6 7 5 6 9 11 16 19 20 25 28 28 27 27 27 27 32 31 35 33 34
3 4 4 3 4 6 9 7 13 15 14 6 10 2 3 3 3 5 6 5 4 3 2 6 9 13 17 18 18 16 17 24 27 29 30 31 31 35 36 37 38 43 36 37
5 3 5 3 7 11 11 13 14 12 10 1 9 3 9 2 2 5 5 3 4 7 9 12 15 18 20 20 21 22 25 27 28 29 31 33 36 40 41 44 48 47 44 41
3 1 2 5 8 12 10 14 16 11 5 3 2 2 6 5 1 1 2 3 5 10 13 15 17 20 23 23 22 24 27 29 31 33 34 35 38 42 47 51 50 48 44 44
1 3 3 4 9 12 12 12 6 2 3 1 1 9 5 4 11 7 4 4 9 12 14 16 18 21 21 22 22 26 28 30 33 35 36 38 44 49 51 46 47 49 49 48
2 2 3 6 10 5 10 8 2 1 3 3 3 5 6 11 8 3 5 9 14 17 18 18 20 20 23 26 28 29 31 33 33 33 37 44 47 44 46 47 49 48 49 50
4 2 3 7 9 8 8 9 4 2 1 6 9 5 9 13 12 8 14 23 29 28 19 18 19 21 25 28 29 30 32 33 36 40 42 43 44 47 49 48 48 48 50 51
6 2 3 6 8 5 3 4 3 1 2 3 6 3 8 19 19 20 28 33 31 28 19 17 17 21 26 28 30 33 37 42 47 52 54 53 51 49 45 46 49 52 52 50
8 4 2 9 1 2 3 1 1 3 2 3 7 12 8 17 19 26 29 29 30 28 23 17 20 25 32 38 43 48 50 51 50 48 48 45 43 45 48 50 52 53 54 53
8 4 3 7 4 7 5 4 0 1 2 3 2 6 10 17 27 23 27 30 34 31 29 29 32 37 45 50 51 53 53 50 49 45 42 43 47 51 55 56 54 54 52 43
9 6 8 11 6 5 3 3 2 2 2 6 7 19 16 8 15 31 31 34 31 28 30 34 39 43 49 49 51 47 43 43 42 40 43 50 53 53 54 57 57 53 43 36
14 6 8 7 4 3 5 7 18 15 11 11 8 13 10 14 30 29 28 28 28 30 35 40 43 47 47 45 42 42 42 41 42 46 51 52 54 57 57 54 48 41 35 34
15 6 7 8 15 20 26 24 25 24 17 19 31 36 29 25 26 29 29 29 32 38 43 46 48 47 46 44 42 42 40 42 46 50 54 56 57 56 51 43 36 32 30 33
10 13 17 19 17 20 24 25 23 24 28 23 29 26 28 28 28 30 28 37 42 41 46 47 48 45 50 42 38 41 44 48 52 55 58 57 57 50 40 33 31 26 26 28
17 15 20 26 12 16 29 28 19 10 17 23 22 35 31 27 30 28 37 49 49 49 47 46 46 54 44 38 44 47 47 49 54 58 57 54 44 34 33 29 29 33 34 33
17 16 14 14 17 22 21 2 13 23 25 28 33 30 28 32 35 33 46 53 48 49 48 50 48 37 41 43 45 48 50 53 55 55 49 34 34 30 30 28 29 29 31 33
16 16 13 15 20 2 12 18 28 28 20 26 27 29 35 40 35 40 52 51 49 48 49 44 38 42 41 43 46 50 51 51 50 44 34 31 29 32 31 31 33 34 33 35
10 14 12 9 10 21 34 17 17 27 33 26 27 34 37 35 42 48 51 51 46 48 36 33 38 41 43 46 50 50 49 48 39 33 31 31 31 32 33 34 32 34 34 35
18 18 18 17 9 5 20 24 26 24 34 17 18 24 41 43 46 45 48 35 33 29 33 38 40 43 46 46 48 48 46 39 34 33 33 34 33 34 35 33 34 35 35 35
17 16 21 26 21 21 26 20 17 14 26 18 37 50 45 45 43 46 35 45 29 33 37 40 42 43 45 46 45 43 39 36 35 34 33 35 36 36 32 34 36 35 35 36
20 16 22 17 11 12 11 22 25 42 44 46 51 52 44 44 38 38 44 29 32 39 40 41 44 44 44 42 40 38 34 31 34 36 32 34 31 33 35 35 34 36 38 39
26 30 23 22 26 38 43 42 38 41 44 47 50 47 41 43 42 30 24 31 40 43 42 41 43 43 43 41 37 35 32 32 32 31 29 31 33 34 35 36 37 38 38 38
31 28 32 37 40 37 34 32 37 41 46 43 46 41 36 39 22 22 27 33 38 39 40 40 42 41 39 37 35 33 31 29 30 31 32 32 33 33 36 37 37 37 36 34
38 37 43 43 39 33 36 34 39 35 47 40 31 30 31 33 24 27 30 36 38 38 38 40 41 39 37 36 36 36 30 28 30 31 31 32 33 35 36 35 34 33 32 33
32 35 33 39 39 35 47 40 36 44 40 43 32 28 21 21 27 28 35 41 42 40 37 38 39 37 37 37 36 35 29 29 30 30 31 32 34 34 33 32 29 28 30 31

GFSCGP_700_spd_021.txt.gz
Wind_Speed
3 2 2 1 3 2 3 5 8 8 4 9 6 5 2 4 5 4 4 3 4 7 9 8 10 12 11 10 10 13 14 17 18 21 24 26 23 22 25 26 29 31 33 33
5 2 1 2 3 4 6 6 6 3 8 8 3 0 5 8 7 5 3 1 4 5 2 1 5 8 5 8 6 9 12 15 18 22 25 26 26 25 25 26 30 31 37 39
5 4 2 2 2 3 7 5 10 11 9 4 3 5 3 5 6 5 3 2 3 3 1 3 6 9 12 14 14 13 13 17 22 25 27 29 31 32 33 34 37 39 42 40
4 3 1 2 5 7 7 9 12 11 7 3 1 5 6 3 3 2 3 3 4 3 4 8 11 14 15 15 14 14 18 21 25 29 33 35 36 37 37 41 46 46 42 42
4 3 2 4 6 9 6 14 13 8 5 6 2 3 4 4 6 7 8 9 4 6 9 13 14 16 15 18 20 21 23 26 29 33 36 38 39 41 42 45 46 44 46 48
2 3 2 4 7 11 10 11 5 1 4 2 3 3 2 6 8 8 6 5 6 10 15 17 18 18 21 23 25 26 28 31 33 36 39 44 47 46 46 47 46 46 46 43
1 2 3 6 8 6 10 7 1 1 1 1 2 4 5 11 11 7 4 5 12 18 18 14 17 20 24 28 29 32 34 34 40 45 48 46 46 46 44 44 43 44 45 48
2 2 2 5 7 7 7 8 3 2 1 4 7 5 7 15 13 5 10 16 23 23 21 18 18 20 23 25 29 32 37 40 42 44 46 43 41 40 40 40 42 46 50 52
4 0 0 6 6 4 3 3 3 2 3 3 4 4 9 19 20 15 19 23 23 23 24 23 22 22 23 27 31 34 41 43 46 43 40 40 41 41 42 45 51 54 52 54
7 1 1 7 2 3 3 2 2 3 1 2 7 7 7 13 22 17 24 24 28 30 27 24 22 25 29 35 42 46 48 48 45 43 43 44 43 44 48 52 52 54 56 57
8 4 2 5 4 6 5 3 1 1 0 1 3 7 9 12 21 18 25 32 30 27 27 29 32 36 41 46 49 50 50 47 42 40 41 42 47 50 52 53 55 56 55 50
10 5 5 9 4 2 1 3 2 1 2 5 7 16 7 9 13 20 32 31 28 27 28 36 38 40 42 44 45 44 42 39 38 38 44 46 48 52 55 58 58 53 44 35
12 6 7 1 1 2 3 6 12 12 8 13 5 12 13 24 28 28 30 27 27 24 32 38 38 40 39 38 42 41 36 35 40 43 46 49 53 56 59 57 49 36 31 27
12 6 7 8 12 17 22 20 18 15 11 14 28 33 26 20 24 30 27 28 27 31 39 41 43 44 44 43 38 36 37 39 42 45 50 53 56 56 52 40 33 30 29 28
12 11 15 14 15 19 23 20 20 24 26 20 27 29 25 26 28 27 30 31 37 39 47 46 46 47 45 37 35 35 39 42 46 50 53 54 53 46 36 33 32 31 31 31
16 11 17 21 15 14 26 29 25 13 11 20 21 28 26 29 28 31 35 36 40 46 47 47 45 45 37 36 37 41 43 45 48 51 51 48 37 30 30 23 32 31 31 34
15 13 14 14 13 18 23 3 7 21 26 25 24 29 28 28 32 35 39 43 50 52 51 48 43 35 35 37 40 43 44 46 48 48 44 37 32 31 28 33 34 33 34 34
15 15 13 13 19 3 13 16 28 26 17 20 27 27 29 31 35 38 38 51 49 46 43 38 40 33 33 37 39 42 44 46 45 42 37 33 33 32 32 33 34 35 34 33
12 13 12 7 6 19 30 11 14 22 31 23 21 27 31 32 41 42 51 48 44 32 33 33 29 32 34 37 40 42 43 43 42 39 35 33 35 35 34 34 34 32 33 33
12 14 16 14 6 5 13 23 24 24 30 13 31 32 30 43 51 52 47 41 29 37 24 28 31 33 36 38 41 43 42 40 38 34 33 35 34 34 35 33 33 33 33 34
14 16 21 21 13 20 24 16 16 12 23 26 39 42 40 43 48 46 34 28 33 23 25 30 33 36 38 39 40 41 39 37 34 31 31 32 31 30 32 32 33 34 36 37
19 16 20 13 8 10 7 22 27 37 43 49 42 41 46 46 42 23 36 25 22 27 28 31 34 36 38 40 40 38 37 35 34 30 28 30 30 31 32 33 35 37 37 36
23 24 25 24 27 33 39 42 37 39 39 46 42 46 43 40 27 35 34 24 26 27 33 37 38 38 40 41 40 36 34 34 32 29 30 30 30 31 33 35 36 35 35 33
32 30 34 33 35 33 36 28 35 40 44 43 35 36 37 39 33 36 29 31 31 36 38 39 39 39 39 40 38 33 32 33 31 29 29 29 30 32 33 34 34 33 31 32
40 39 29 35 33 31 35 35 40 38 44 31 35 37 29 33 36 30 32 36 38 41 40 38 39 39 39 40 35 31 32 33 30 28 29 30 31 32 33 32 30 29 30 31
22 27 31 39 33 32 41 35 43 29 35 40 30 28 29 32 34 37 43 43 44 41 37 38 39 40 40 38 31 30 32 31 28 28 29 30 30 30 30 28 26 27 29 31

GFSCGP_700_spd_027.txt.gz
Wind_Speed
5 8 3 3 2 3 1 3 4 3 5 2 5 4 2 4 4 6 7 7 8 13 22 27 24 24 22 22 23 25 26 27 24 26 27 27 26 27 29 32 36 36 37 37
3 4 3 2 2 1 2 4 3 4 4 2 4 6 4 6 9 9 11 11 9 12 17 19 20 21 21 18 16 15 19 21 23 28 29 29 30 32 35 37 41 42 44 44
3 5 5 2 1 2 4 3 4 6 7 9 9 11 8 7 8 10 10 9 8 8 9 14 13 12 13 14 15 19 22 24 25 27 31 32 33 37 39 42 42 42 46 48
4 6 3 1 2 3 6 4 8 9 9 12 13 9 14 11 9 7 6 5 5 5 10 11 12 13 14 17 22 25 27 29 29 30 34 35 37 41 44 45 48 51 47 48
4 3 1 2 4 3 5 10 9 9 11 13 13 13 16 15 10 6 3 3 10 11 11 12 14 16 19 22 25 27 30 32 33 34 36 39 42 44 46 49 54 55 54 48
5 4 1 2 5 6 7 8 10 7 7 9 10 9 17 15 11 8 3 5 14 14 14 15 18 21 26 26 24 27 28 31 34 35 37 40 45 48 51 55 53 48 44 40
3 1 2 3 6 5 8 8 8 5 5 4 3 7 1 7 9 9 5 5 14 15 16 17 23 26 31 32 29 26 28 30 36 39 42 46 50 49 46 44 42 39 40 43
4 6 2 4 3 4 5 4 3 5 4 7 4 7 5 8 6 10 7 11 16 18 21 24 25 29 30 27 25 24 26 30 33 38 41 40 40 42 40 39 39 43 47 49
1 2 1 2 4 3 5 3 3 5 4 5 12 3 8 8 7 5 6 7 12 21 26 25 29 30 30 28 27 27 29 35 34 34 34 37 37 37 38 38 41 46 50 54
1 2 2 5 6 5 3 4 4 1 3 4 5 9 11 10 9 8 7 9 12 18 19 20 25 27 30 32 35 39 43 42 37 35 37 39 37 36 38 43 48 51 53 55
3 1 1 4 2 4 5 4 5 6 4 4 5 6 4 4 9 12 13 14 14 15 16 18 20 23 25 25 33 41 40 37 35 37 35 36 37 41 46 49 52 51 53 51
4 1 2 3 5 4 3 5 5 7 8 7 9 15 8 2 6 12 15 14 17 17 16 19 21 22 24 33 41 40 35 33 35 34 35 38 42 44 47 49 51 49 44 40
1 1 4 3 1 3 3 6 7 8 9 15 13 12 7 10 13 12 13 15 17 16 18 21 24 27 30 39 44 37 34 36 34 34 37 38 41 43 45 46 45 42 37 31
1 1 2 6 9 11 13 14 14 15 17 18 19 22 21 18 18 16 18 18 18 18 23 26 28 31 41 43 42 33 35 34 34 34 38 41 43 44 43 43 41 32 32 29
2 3 5 8 12 14 17 18 19 21 23 24 27 26 22 24 18 18 18 17 20 22 25 32 41 49 43 36 31 34 33 33 36 37 40 44 44 43 42 38 29 29 32 33
6 4 11 14 8 15 22 20 17 20 17 16 19 21 18 14 20 21 23 23 25 31 38 43 50 41 37 30 28 30 33 35 39 40 43 45 43 41 40 37 35 34 32 33
8 7 8 6 15 23 11 2 10 9 10 16 16 16 18 19 17 20 25 30 37 44 39 48 45 33 28 30 30 32 35 38 42 45 45 45 41 39 37 36 35 32 30 32
13 10 9 9 13 3 6 21 20 17 13 12 15 17 12 16 22 33 38 33 37 41 46 43 30 33 32 29 30 36 39 42 44 40 41 41 39 37 35 32 27 29 32 33
10 11 7 4 7 20 14 5 7 12 20 14 10 7 22 26 32 25 37 36 32 38 37 37 39 34 32 35 37 40 42 42 40 35 32 39 38 35 34 29 30 32 32 33
8 11 10 8 5 4 8 11 16 13 17 6 9 25 30 29 38 42 31 33 38 37 32 29 29 28 30 31 34 39 38 33 31 31 37 35 31 32 32 30 32 32 31 30
10 10 14 13 10 13 14 15 9 9 10 19 33 33 32 39 37 34 37 36 31 29 23 23 26 30 32 36 37 38 38 34 32 27 38 38 32 34 34 32 32 29 27 30
7 7 9 8 7 8 5 13 14 18 29 31 27 42 37 35 33 34 31 25 23 23 25 28 32 37 36 34 35 37 37 34 31 38 39 37 34 35 31 31 28 25 27 28
8 11 9 10 11 16 26 29 33 27 32 32 37 41 35 30 32 30 27 24 24 26 30 38 44 41 38 34 34 36 37 42 36 36 40 34 35 32 28 30 26 26 26 28
16 13 26 24 22 19 27 26 32 32 34 39 32 30 29 32 29 27 28 29 33 39 44 38 35 34 34 34 34 35 38 41 37 40 37 34 32 28 26 25 24 24 26 26
25 19 22 28 27 31 32 28 25 33 36 33 27 29 29 27 28 29 35 39 42 43 38 39 35 35 36 37 37 35 32 42 40 36 36 30 29 23 23 21 22 22 24 25
31 22 22 26 30 33 26 32 32 34 28 26 26 24 24 30 33 37 41 44 39 39 41 35 34 36 38 37 36 39 36 34 33 29 33 27 19 21 20 19 21 23 23 25

GFSCGP_700_spd_030.txt.gz
Wind_Speed
3 7 5 5 2 6 7 4 1 6 2 4 8 9 4 2 1 4 6 11 13 18 22 28 26 29 33 28 25 22 26 27 28 26 28 29 32 33 31 33 37 39 42 42
6 7 4 1 5 4 2 2 3 2 5 5 5 9 5 6 6 7 9 14 20 24 27 29 30 29 24 21 22 21 19 17 20 25 28 29 31 32 33 36 41 44 47 48
1 4 4 2 2 2 4 3 3 3 7 11 11 11 12 9 9 12 15 12 5 8 19 23 23 19 14 13 15 17 21 24 24 28 32 31 32 35 37 38 41 44 46 48
3 1 3 2 0 3 4 1 6 9 10 13 15 13 19 15 12 11 11 10 6 6 12 9 9 11 13 15 17 22 27 29 29 29 33 35 35 37 38 40 43 47 48 53
5 3 3 2 2 3 4 11 10 9 11 13 15 10 19 21 16 12 9 7 11 11 9 10 14 17 17 19 22 25 28 31 34 31 30 33 36 37 40 44 48 50 50 47
4 4 1 1 5 6 7 9 11 11 11 13 17 18 20 15 17 15 10 8 6 7 10 15 17 19 24 25 28 28 30 29 31 35 32 34 35 38 41 43 44 45 45 44
4 3 4 3 6 2 7 8 8 4 6 3 8 1 4 13 14 12 11 7 5 8 12 11 16 20 23 26 30 32 32 29 30 31 36 41 43 41 40 39 40 41 41 40
8 7 2 5 3 3 5 4 3 4 5 9 4 6 10 15 20 15 11 8 8 5 11 10 14 21 26 28 29 30 30 30 35 40 41 41 38 36 37 38 39 39 42 47
2 5 1 2 3 5 6 5 4 5 7 4 8 2 9 9 5 3 4 3 6 6 12 13 14 19 29 30 28 32 30 34 40 39 39 37 37 38 38 38 41 44 47 49
2 4 2 4 6 5 7 4 3 1 2 3 10 11 8 7 6 6 6 6 8 9 11 12 21 25 29 33 33 38 42 45 45 42 38 36 37 36 37 41 43 44 47 49
6 4 2 5 3 4 4 3 4 6 7 2 3 1 9 5 4 6 4 9 13 15 21 18 25 31 29 36 37 37 45 52 45 38 36 37 37 38 39 40 44 47 49 47
3 4 1 3 3 4 3 2 3 3 6 8 11 18 18 3 4 9 15 13 12 14 14 18 22 24 36 36 41 40 46 51 39 36 38 38 40 40 41 43 46 47 48 47
6 2 2 7 0 5 4 4 7 8 11 9 8 9 10 13 19 10 12 15 13 12 16 21 23 33 30 37 45 50 53 43 34 35 38 38 42 42 43 47 48 46 45 43
3 2 1 2 6 9 10 12 14 15 16 17 21 22 19 21 16 12 11 14 17 20 19 26 29 36 45 46 50 49 44 34 38 36 39 41 44 44 47 47 45 42 40 35
3 2 3 6 9 11 12 16 17 20 20 23 23 21 18 16 12 13 11 13 16 22 28 39 44 49 47 51 48 39 36 36 33 35 39 41 48 46 47 44 42 40 38 37
5 4 8 13 5 10 23 20 9 9 13 15 12 15 15 14 14 18 22 29 29 39 41 39 41 41 45 40 34 36 34 36 35 37 40 40 41 50 48 40 35 35 34 33
6 4 7 5 11 23 4 4 11 15 12 10 14 12 13 14 17 21 30 34 40 41 40 33 39 41 37 30 28 35 36 36 43 42 37 30 40 48 45 38 33 36 35 36
9 8 7 8 10 2 4 17 7 7 7 10 11 13 10 10 16 29 36 32 38 40 36 39 37 36 32 30 38 39 28 36 48 47 42 41 44 44 44 40 36 36 36 36
8 6 5 3 4 15 5 6 11 12 16 10 8 11 18 24 27 31 37 40 35 38 37 38 36 32 32 30 32 38 44 44 41 47 32 39 33 41 41 45 37 38 37 37
6 8 8 7 2 4 5 10 13 13 13 11 16 18 26 39 35 42 43 41 37 36 34 31 26 27 28 32 37 38 37 37 40 43 36 41 35 27 42 42 40 39 35 33
6 8 11 9 7 10 12 14 15 8 8 19 21 30 37 33 43 40 33 34 34 27 21 22 28 33 36 43 42 38 36 33 39 43 38 40 48 34 42 39 40 37 31 31
7 6 5 4 6 8 5 9 17 16 21 32 31 33 35 40 33 30 33 30 25 25 28 32 37 41 39 41 38 36 33 37 43 38 46 37 34 35 35 37 37 30 32 29
10 13 8 9 10 14 19 21 22 31 34 33 37 33 35 28 29 31 29 28 28 34 40 42 39 40 41 35 31 33 39 42 45 40 40 44 41 39 35 35 29 29 27 26
16 16 20 19 24 18 23 34 34 35 37 37 36 31 28 29 29 26 28 31 36 41 40 33 41 41 38 31 38 43 41 43 40 37 37 40 36 31 32 30 22 25 24 24
21 20 24 27 24 21 31 31 33 33 30 34 27 27 26 24 27 29 35 40 40 39 38 40 40 37 38 40 43 44 41 36 35 34 31 31 28 31 31 20 21 21 22 25
29 30 24 25 25 28 28 32 31 31 33 27 26 23 24 27 30 36 41 39 39 40 39 41 41 43 43 45 43 40 32 35 33 30 26 27 27 26 18 17 18 20 22 24

GFSCGP_700_spd_033.txt.gz
Wind_Speed
3 2 2 8 8 5 3 9 10 15 8 3 7 4 8 5 7 12 11 11 30 23 25 25 28 26 27 27 21 22 29 29 29 30 25 24 27 28 28 30 29 32 37 41
4 5 4 2 1 0 5 4 9 7 5 8 4 4 11 11 11 11 17 20 19 22 26 26 28 28 27 27 26 23 23 22 21 24 27 28 28 28 28 30 35 39 42 44
6 4 1 6 3 4 3 2 2 3 3 6 7 6 13 15 16 17 18 23 26 27 25 25 26 27 25 19 17 17 18 19 24 28 30 31 31 32 34 34 36 38 42 44
5 3 2 6 1 1 3 4 6 9 8 7 9 6 20 21 20 16 15 16 19 21 20 19 20 18 15 17 18 20 22 24 25 26 29 32 32 32 32 35 37 40 42 44
5 7 6 4 4 4 3 6 9 8 9 9 11 11 22 23 22 19 18 16 16 18 18 11 12 14 16 17 18 20 24 27 30 31 32 31 31 31 33 36 43 44 44 44
6 6 5 5 2 4 4 6 9 11 10 4 11 11 12 29 25 22 22 20 14 17 15 14 15 17 19 21 23 25 24 25 28 31 34 38 40 42 43 42 43 43 43 44
9 2 7 3 4 2 5 5 5 3 2 4 13 7 4 10 24 22 22 17 12 10 9 8 13 19 25 28 27 27 28 29 30 31 35 41 41 42 41 39 41 42 42 41
13 6 1 5 5 1 6 7 4 0 1 6 13 6 8 11 13 10 7 9 9 9 8 11 19 25 27 29 30 27 28 29 32 36 43 43 41 38 38 41 43 44 43 44
8 5 4 2 4 4 4 7 3 2 3 3 2 10 7 6 5 9 13 11 9 8 12 16 19 26 29 32 34 35 38 39 42 46 49 49 40 36 37 39 41 43 43 46
8 7 2 8 6 9 10 8 3 2 1 2 6 6 4 6 8 7 6 6 9 9 10 11 18 28 31 35 35 39 41 42 46 52 50 48 37 36 37 39 42 41 43 46
12 6 6 4 4 1 4 3 1 3 2 4 1 3 5 3 3 2 8 4 4 9 16 22 24 27 31 35 34 44 41 45 49 53 47 40 35 40 40 39 40 41 45 48
8 8 7 5 5 5 4 1 2 2 3 3 3 8 10 6 9 6 6 11 15 19 20 25 24 28 32 36 40 38 48 55 56 46 40 37 39 40 38 39 41 46 46 46
11 8 7 3 1 3 4 2 8 8 11 14 4 8 15 22 20 18 18 19 13 14 18 23 29 31 36 40 43 45 53 53 48 39 40 40 40 42 43 43 45 43 46 40
8 10 5 5 1 4 5 8 9 10 13 14 18 20 21 18 16 11 8 13 16 18 21 23 27 36 45 43 44 46 49 50 43 43 42 39 46 49 50 47 45 46 40 37
6 9 8 9 8 10 10 12 17 18 16 14 18 12 4 7 12 11 13 13 16 20 27 33 40 45 41 40 46 45 43 40 44 47 40 45 52 53 48 44 43 39 42 41
9 7 7 7 6 8 16 5 4 0 6 9 11 7 14 16 16 18 22 22 24 33 40 44 44 42 41 41 40 38 38 37 37 44 43 43 50 40 43 42 45 39 41 41
7 5 4 4 5 12 4 5 8 12 12 12 8 10 17 21 25 26 26 27 33 41 46 44 40 39 38 36 37 36 34 39 41 48 38 41 45 52 56 43 41 35 39 36
8 6 5 5 6 2 4 11 11 5 5 11 13 17 20 21 24 23 29 38 42 46 39 35 33 32 32 29 28 36 40 42 47 42 48 50 49 48 62 43 35 32 36 36
12 8 4 4 4 12 4 5 12 14 16 12 15 20 23 23 21 27 34 37 40 33 33 31 33 31 34 36 40 42 45 48 48 44 44 47 46 50 47 31 31 34 37 37
10 10 9 8 4 6 9 7 13 15 15 18 18 20 24 27 31 38 38 37 33 32 33 33 34 36 37 40 43 43 42 43 39 39 43 46 48 47 31 42 32 33 33 35
13 11 13 13 7 9 11 14 14 11 14 18 20 25 29 33 35 35 32 29 31 30 31 35 38 38 40 38 40 40 40 41 41 43 47 49 44 40 38 30 34 31 32 37
10 7 8 8 8 9 9 13 15 21 25 27 29 34 33 35 34 31 28 28 28 31 36 38 39 40 39 38 40 39 38 42 43 45 38 38 37 33 26 35 29 28 33 30
13 15 12 12 10 19 23 23 28 32 30 32 36 37 35 31 29 27 27 27 30 35 37 37 38 40 39 40 37 38 42 42 42 36 33 35 30 25 29 28 27 31 24 22
13 16 19 15 15 17 25 27 29 33 36 33 35 30 33 24 26 24 26 30 35 37 38 38 39 39 41 40 38 39 42 40 38 33 32 30 27 23 25 25 23 20 20 22
21 22 27 28 25 27 32 31 32 34 34 36 33 28 25 24 22 25 31 35 37 38 39 38 38 41 41 40 39 40 40 40 36 34 32 31 28 26 24 17 15 17 18 21
24 27 29 33 30 29 28 27 30 32 34 31 27 24 20 22 24 30 34 36 38 38 36 35 38 40 40 40 41 39 38 38 34 32 32 29 23 21 14 14 15 17 19 20

GFSCGP_700_spd_036.txt.gz
Wind_Speed
11 5 3 4 7 5 1 1 16 18 13 6 8 14 18 16 16 17 15 17 18 21 22 27 30 26 21 22 19 18 20 24 27 25 23 21 24 28 29 32 34 35 35 38
4 7 10 7 9 6 9 17 17 14 7 4 7 15 14 15 15 16 15 14 15 26 26 25 30 25 22 24 24 26 30 28 21 18 21 23 25 26 27 30 32 36 39 40
7 9 8 8 6 7 8 14 15 9 4 4 1 14 16 17 18 18 15 15 16 18 19 19 22 25 27 29 28 23 21 20 21 23 26 27 27 29 30 33 36 37 38 40
7 8 8 8 6 3 7 6 2 4 6 3 4 5 18 19 20 18 21 20 18 20 18 18 23 28 26 19 18 19 21 24 28 30 28 25 24 24 27 31 35 40 42 43
9 10 11 6 4 1 2 4 4 3 4 6 4 3 19 22 21 21 22 19 19 15 16 17 19 16 14 18 22 25 26 29 29 28 28 29 33 39 41 40 39 40 42 42
6 3 4 2 3 5 2 3 3 4 5 3 7 2 15 25 25 21 17 20 19 16 15 13 11 11 11 16 20 21 25 25 26 28 29 30 36 42 44 45 44 42 40 40
8 4 5 3 8 4 4 2 2 3 2 5 9 2 5 12 19 22 20 20 14 12 13 12 14 14 21 26 19 23 27 32 34 36 39 44 46 49 51 50 45 40 39 40
5 3 3 5 5 3 5 6 3 3 2 4 4 4 3 5 12 17 14 9 4 14 19 17 18 21 25 30 31 31 35 36 39 43 44 51 50 51 50 44 40 41 43 45
7 4 4 4 5 5 4 5 4 3 2 1 3 6 6 6 9 13 17 17 16 2 11 13 16 19 21 26 30 33 38 42 41 45 40 52 55 50 45 39 39 43 47 48
9 8 6 10 8 9 10 6 2 3 2 1 2 6 2 9 5 3 8 9 8 15 12 13 15 19 25 32 33 36 40 43 44 45 51 53 50 45 40 41 42 42 45 48
11 6 9 6 3 4 4 5 3 2 2 4 0 1 1 6 7 9 8 4 6 10 9 15 22 25 28 31 35 38 43 50 49 45 50 46 41 40 39 36 40 43 44 46
11 9 9 7 6 4 4 4 3 3 2 1 2 5 5 1 5 9 10 15 18 21 22 25 21 26 29 35 38 43 49 45 44 45 48 42 39 43 45 41 52 44 39 38
14 10 10 5 5 6 4 5 1 3 7 11 5 4 10 9 17 19 13 16 17 17 16 19 23 26 30 37 44 44 43 45 46 45 41 42 43 45 43 47 51 41 44 44
13 15 8 10 6 7 7 10 10 9 6 9 16 17 16 20 22 18 17 14 15 18 21 24 26 32 40 44 45 42 42 43 41 42 43 44 46 49 49 43 47 46 47 46
10 11 9 9 9 11 13 12 12 16 17 12 12 12 11 15 18 17 16 18 20 22 24 27 35 42 48 46 42 40 39 39 41 43 45 44 49 47 45 51 43 45 46 50
13 9 12 12 13 13 10 13 7 6 7 9 11 12 15 15 15 15 16 18 22 26 30 39 43 44 41 42 41 40 41 42 41 40 47 45 50 53 50 46 47 53 54 40
12 11 9 7 10 9 11 13 11 9 13 17 18 21 20 17 17 19 24 27 27 31 38 40 41 39 40 38 40 41 40 39 42 46 49 53 53 44 43 44 51 51 33 21
9 9 8 5 6 1 6 11 12 15 14 14 14 18 19 20 24 28 31 31 31 37 43 39 37 36 36 38 38 39 42 45 46 47 46 43 37 39 44 47 45 34 25 30
14 13 7 5 8 9 12 14 12 13 15 22 21 17 20 23 24 27 31 35 38 40 35 35 33 35 37 37 39 41 42 43 42 42 39 39 42 46 45 42 38 33 31 25
17 16 15 9 4 6 8 14 15 15 21 6 12 18 21 23 25 33 37 37 34 34 33 32 34 36 36 37 38 39 41 42 41 38 38 40 44 39 36 33 27 25 28 23
15 15 17 18 10 8 15 14 10 10 16 17 17 20 23 27 34 34 31 30 31 29 30 32 34 36 37 36 37 39 41 43 42 39 37 38 34 35 32 25 29 26 21 24
10 9 12 12 10 10 10 13 16 21 23 23 25 26 28 32 34 32 30 28 25 26 29 33 35 36 35 35 38 41 42 42 40 36 35 35 32 32 29 25 24 26 23 23
15 19 15 14 9 19 23 24 24 24 24 27 27 30 31 32 34 33 27 24 25 28 32 34 35 35 33 35 38 41 39 40 37 36 36 33 31 31 30 28 27 25 20 19
19 19 23 23 26 26 24 27 26 26 30 31 30 30 34 34 29 26 22 24 27 31 34 36 36 34 34 36 39 38 39 39 37 37 36 32 30 30 28 24 23 17 16 18
20 21 26 28 29 29 29 28 31 30 27 25 27 34 35 30 25 22 22 27 32 33 35 35 35 34 35 36 39 39 39 39 38 36 34 32 31 26 23 20 15 14 15 18
24 26 28 32 29 31 32 32 29 29 28 32 32 30 29 23 21 22 26 31 34 35 35 35 33 33 34 36 39 40 40 40 36 33 31 30 26 22 19 14 15 15 16 18

GFSCGP_700_spd_039.txt.gz
Wind_Speed
11 6 4 5 6 6 8 12 13 12 10 13 9 10 20 19 17 16 16 17 20 21 24 25 25 24 22 21 20 21 21 21 23 24 26 24 23 24 24 26 27 30 33 34
9 8 6 5 5 2 2 2 9 15 12 7 13 16 19 19 18 19 20 20 18 21 23 26 25 24 25 19 19 23 27 27 26 20 21 22 22 23 22 24 27 29 33 36
7 7 7 5 4 4 9 13 18 16 9 5 7 16 17 18 18 18 18 17 16 14 17 21 17 19 21 23 23 21 20 18 18 19 20 21 22 23 23 24 29 32 36 40
7 9 9 9 6 4 12 15 12 9 7 6 9 6 16 19 20 19 18 16 13 10 10 11 13 14 16 11 11 13 16 19 21 21 19 19 19 22 28 32 35 37 40 40
8 10 9 8 7 6 6 8 5 5 4 2 1 5 11 19 21 22 21 17 14 10 11 12 12 14 9 8 12 18 20 19 19 21 25 26 31 34 38 41 42 46 47 43
11 10 8 7 8 6 7 7 6 6 3 2 2 3 14 26 28 25 20 14 14 9 7 9 9 9 10 11 20 18 17 21 26 33 34 37 40 44 46 48 47 47 45 42
10 5 4 7 9 5 2 7 3 1 0 4 4 1 4 23 17 20 19 16 13 12 8 5 13 14 18 24 25 26 29 33 32 38 40 41 46 50 50 49 49 48 44 42
8 4 4 6 12 5 2 2 3 5 3 2 2 1 1 8 12 17 15 16 15 15 14 19 21 20 20 26 29 31 34 35 38 41 43 49 52 49 50 49 48 43 41 43
7 4 4 5 8 7 4 3 3 5 3 1 1 2 2 3 8 14 15 16 20 16 9 15 16 17 23 24 27 29 32 38 43 44 48 50 48 48 47 44 41 41 43 41
9 7 8 8 7 4 7 6 2 2 2 1 3 5 6 13 12 10 11 13 15 16 17 15 20 21 19 25 27 30 34 39 43 48 46 46 48 47 44 40 42 42 44 49
12 7 9 9 4 5 5 3 2 2 2 4 1 5 9 8 11 13 15 18 21 20 18 19 26 23 30 25 28 31 38 44 46 43 44 45 44 42 42 46 47 46 45 47
12 7 11 7 6 5 4 5 4 1 3 3 2 6 9 10 11 12 15 19 18 24 21 23 23 26 22 29 31 35 41 41 41 41 42 42 45 47 45 45 48 50 48 49
12 8 10 5 5 8 7 8 6 5 4 7 2 5 13 14 14 16 17 18 19 21 22 21 21 22 23 28 34 43 41 42 41 42 45 46 45 47 49 49 50 49 47 43
15 11 11 12 4 9 10 11 10 11 9 13 21 17 16 20 22 22 21 20 19 19 20 20 23 26 31 38 41 40 41 41 42 44 46 47 48 49 51 51 52 46 41 41
13 10 16 11 10 10 11 13 16 19 18 17 21 21 18 21 22 21 20 20 21 20 23 27 31 32 36 42 42 41 41 43 44 45 46 46 47 49 51 46 38 39 41 44
12 8 14 13 13 15 17 18 19 21 18 17 17 19 18 18 19 21 22 22 22 24 27 32 34 37 41 43 42 42 43 44 45 45 45 46 46 47 46 43 42 44 44 44
13 13 10 9 16 16 16 22 24 18 16 15 20 21 22 22 24 21 21 23 26 29 32 36 40 42 39 41 42 42 44 45 43 43 45 46 47 46 45 43 42 40 36 32
9 11 10 6 7 1 14 14 15 19 18 17 16 18 19 22 22 23 25 27 29 33 40 42 40 35 35 39 41 42 43 44 43 43 44 44 44 43 40 39 36 35 29 24
14 14 9 6 11 13 10 15 17 19 17 14 18 20 19 19 22 24 26 28 31 40 39 33 32 34 36 39 41 42 43 43 43 43 41 39 39 38 39 35 34 29 24 27
18 18 16 10 5 6 7 11 14 15 20 13 11 15 15 19 25 26 29 33 39 34 30 30 32 35 38 40 41 41 40 40 41 40 39 38 38 39 37 33 30 26 22 26
15 16 20 21 13 10 15 18 16 14 10 13 18 16 19 22 24 27 32 34 34 29 29 31 33 35 38 40 41 39 38 38 39 39 39 38 38 38 35 31 30 28 27 28
12 8 12 14 11 13 15 17 18 14 21 24 23 22 23 24 25 29 32 32 27 26 28 30 33 35 38 39 39 37 36 38 39 39 39 40 38 34 32 31 30 27 25 25
16 20 15 14 9 15 13 16 22 23 26 26 24 25 25 29 30 31 31 25 24 25 28 31 35 36 37 37 36 36 36 38 40 40 40 40 36 32 31 30 25 22 22 18
18 20 25 26 26 25 26 28 29 29 28 26 28 27 30 29 30 29 24 22 24 27 30 34 36 36 36 35 35 37 38 39 40 41 39 38 34 31 28 24 22 20 16 17
19 23 25 28 28 29 29 28 27 28 28 33 28 29 29 33 31 24 22 22 25 30 34 35 36 36 37 36 36 38 39 40 40 40 38 35 31 28 24 22 18 16 17 17
24 26 28 31 27 29 29 29 29 30 29 27 29 29 34 31 21 20 21 24 29 33 36 35 36 37 36 37 36 36 38 39 39 38 35 33 28 24 22 17 17 18 17 17

GFSCGP_700_spd_042.txt.gz
Wind_Speed
11 8 8 8 10 5 3 6 9 10 10 11 10 10 10 14 16 14 14 16 18 19 20 21 21 21 22 22 24 23 23 23 21 24 18 15 13 15 18 22 25 27 27 29
11 11 9 7 4 3 1 5 5 9 11 10 11 14 13 19 18 15 16 21 22 21 18 18 21 22 22 24 21 15 18 20 15 15 17 19 21 22 23 23 23 25 28 29
9 7 5 3 3 1 3 5 13 13 10 7 7 14 14 18 17 17 18 19 16 14 11 10 8 10 11 14 15 10 10 12 14 16 16 16 17 20 22 25 28 32 35 37
8 7 5 4 3 4 6 9 7 9 7 3 8 4 14 17 19 19 18 15 11 5 5 3 3 11 9 5 6 8 12 13 11 13 17 21 25 28 32 38 43 45 45 44
8 7 6 5 5 6 7 9 7 4 4 4 6 5 11 19 19 20 19 13 9 7 6 3 3 4 9 5 4 11 13 13 18 22 24 31 34 37 41 46 47 46 47 47
9 10 6 6 6 6 6 8 7 5 3 1 3 4 7 16 23 23 19 14 11 11 8 2 4 5 7 13 22 26 27 23 25 27 31 34 37 40 46 47 46 48 48 49
9 7 7 8 8 5 4 6 0 0 1 4 5 6 8 8 17 21 18 16 15 14 10 9 11 14 22 33 28 25 23 22 26 29 34 40 42 46 48 46 48 48 47 45
9 4 5 6 11 5 5 8 4 4 3 3 3 4 4 6 11 8 18 19 17 13 13 20 25 29 25 18 18 26 28 28 29 32 38 42 46 48 48 48 47 47 46 46
8 6 6 6 10 8 5 4 4 3 2 1 3 5 8 5 9 13 12 16 14 17 17 16 23 19 20 24 25 25 29 30 31 35 41 46 46 47 48 47 46 46 44 46
8 6 7 6 6 8 8 7 3 3 3 3 4 7 10 8 8 11 11 11 14 17 19 20 20 19 24 25 27 31 26 30 33 39 46 44 46 46 45 45 45 46 48 48
11 9 9 8 6 7 8 7 4 4 2 4 1 5 8 8 6 8 11 14 16 19 23 22 23 25 27 27 29 30 32 34 39 40 41 42 44 46 47 49 49 51 51 52
13 9 9 12 9 9 8 8 7 4 4 5 2 7 7 9 10 14 17 18 21 23 24 24 25 25 26 28 31 31 31 38 36 39 41 44 46 48 49 50 51 53 54 48
14 7 8 5 8 11 11 10 10 7 5 8 4 5 7 8 12 17 18 20 21 23 24 25 27 29 29 29 33 35 38 38 38 40 44 45 47 47 48 50 52 51 50 48
14 11 12 15 5 9 13 15 14 12 7 8 17 21 19 18 17 19 20 22 24 25 26 27 27 28 30 34 37 37 37 37 40 42 45 46 47 47 48 49 49 48 45 44
13 12 15 14 11 10 11 13 15 18 18 18 23 23 20 17 17 21 23 24 25 25 26 24 27 30 34 38 39 39 39 40 42 44 45 46 46 46 47 47 47 44 41 37
14 9 12 15 15 14 16 18 20 23 25 26 25 24 17 15 18 19 20 22 24 25 25 27 31 36 38 39 40 38 39 41 43 45 45 45 45 46 46 45 42 40 37 37
12 11 9 8 15 17 19 25 26 28 28 25 23 18 17 17 18 19 21 24 25 26 28 31 32 36 39 37 36 38 40 42 44 44 43 43 44 45 44 42 40 40 34 34
9 10 11 6 6 2 16 18 17 19 24 24 22 20 17 17 18 20 20 23 25 28 30 33 36 37 36 35 36 38 41 43 44 43 42 43 43 43 42 41 40 37 31 28
11 11 8 5 9 17 18 19 17 18 18 20 23 18 17 17 18 18 19 23 26 30 33 35 35 33 32 34 37 40 42 43 43 42 42 42 42 41 41 40 38 35 30 29
15 16 15 11 5 6 9 9 12 17 25 20 17 13 17 19 21 17 20 23 27 31 34 33 30 30 32 35 38 41 42 42 41 40 40 40 41 41 41 39 36 33 31 29
12 13 17 19 12 10 15 17 16 12 13 9 11 19 24 22 20 22 23 29 29 34 34 29 28 30 33 37 40 41 42 41 40 40 40 40 41 41 39 36 34 32 29 26
15 9 11 10 9 11 14 15 15 13 14 19 24 26 25 23 24 24 27 34 32 31 28 27 28 31 35 39 40 40 41 40 39 40 40 40 41 40 38 35 32 29 25 23
15 19 15 13 8 14 20 20 19 22 23 25 27 27 25 25 27 28 34 30 31 26 26 26 29 33 37 39 39 40 39 39 39 39 39 40 40 38 36 34 29 24 22 19
18 18 23 22 23 24 24 24 27 28 28 28 27 29 26 26 27 32 28 25 24 24 23 27 31 35 36 38 38 39 39 39 39 38 38 38 38 36 34 30 25 23 18 16
17 22 25 27 25 26 24 25 26 27 28 29 28 28 31 28 34 29 29 21 20 21 25 30 35 36 37 38 38 38 38 38 37 37 37 36 36 34 31 28 24 19 18 18
22 23 24 27 22 24 25 26 26 28 28 27 26 27 27 34 28 29 21 18 19 23 29 34 36 37 38 38 38 38 37 36 35 35 34 34 33 32 28 24 21 19 19 18

GFSCGP_700_spd_045.txt.gz
Wind_Speed
8 8 11 13 11 4 5 6 9 12 13 12 10 8 6 6 16 16 15 14 12 12 14 17 17 20 21 23 25 26 28 23 19 8 5 5 7 8 11 14 18 21 24 27
9 7 7 9 7 5 3 3 4 11 15 12 10 9 7 9 14 19 18 17 17 17 18 17 14 10 10 14 16 18 20 9 10 7 10 11 12 13 15 17 20 23 28 33
12 11 10 8 8 4 4 2 8 9 11 10 9 9 11 12 16 21 20 20 20 17 12 8 6 5 5 9 12 5 4 6 7 8 10 11 14 17 20 25 29 34 37 38
11 11 9 6 5 3 5 5 6 9 10 5 6 4 12 16 18 21 21 20 15 10 7 6 6 5 4 3 4 3 9 11 12 12 12 16 19 24 29 34 38 40 40 42
9 9 8 5 3 2 4 5 5 7 6 4 6 5 12 16 21 22 21 16 11 8 8 8 6 6 6 3 3 13 15 17 20 19 19 23 27 31 36 41 42 42 43 44
10 11 7 4 2 2 3 5 4 4 3 2 9 10 7 15 19 22 20 15 11 11 10 7 5 5 7 9 14 24 28 23 21 23 23 27 32 34 40 42 42 43 43 43
11 8 6 4 5 5 5 6 0 1 2 3 10 7 13 9 11 9 14 14 13 12 10 8 9 13 16 18 18 16 18 20 22 30 28 31 34 38 42 41 41 42 43 44
9 4 7 7 10 7 8 8 5 4 3 1 6 6 5 4 5 8 12 12 13 12 10 12 14 12 15 13 16 20 24 27 27 28 30 36 39 42 40 40 41 43 45 46
9 6 8 6 8 9 7 6 8 3 2 1 4 7 9 8 5 10 10 13 14 12 12 12 14 16 17 19 20 26 23 30 29 31 32 37 40 40 41 43 46 46 46 47
8 6 9 7 8 10 9 5 4 4 4 3 3 7 9 2 3 9 12 10 13 13 11 14 17 20 19 21 24 26 27 31 28 32 38 39 39 41 44 44 46 48 49 49
11 8 9 9 8 8 10 10 6 5 3 3 1 4 4 4 7 7 9 12 16 15 15 17 20 21 22 25 26 28 31 35 35 44 39 37 40 42 43 46 48 48 48 48
14 10 9 13 9 9 10 10 10 5 5 5 3 6 3 3 6 12 15 17 18 19 21 21 23 23 26 28 29 31 35 38 41 38 38 39 40 42 44 45 44 45 47 47
15 10 7 4 9 13 15 15 14 13 8 8 4 5 5 10 10 9 16 19 20 22 24 24 24 27 30 31 31 36 35 37 37 36 35 38 40 41 42 44 44 45 46 44
14 15 13 15 6 8 17 19 17 16 10 12 19 19 18 15 15 12 14 17 21 23 24 25 28 28 28 29 33 35 35 35 33 34 37 40 42 43 43 44 44 45 43 42
15 15 17 16 13 11 12 14 17 20 20 18 22 22 18 17 17 14 16 18 22 23 25 27 26 24 28 31 34 32 33 32 34 37 40 42 42 42 43 43 43 42 42 41
17 11 13 16 17 17 19 18 18 21 23 26 28 29 20 15 14 14 14 16 19 22 24 24 24 28 31 36 35 31 31 34 36 39 41 42 42 41 41 42 42 42 42 39
15 14 10 8 14 15 17 24 25 27 28 29 31 25 19 17 16 15 15 16 17 21 23 24 26 33 37 35 31 30 32 35 38 40 41 41 41 41 42 42 42 42 42 38
10 12 10 6 6 2 16 19 18 19 20 22 23 22 21 19 16 15 16 15 16 21 23 26 31 33 38 33 30 31 33 36 39 41 41 41 42 42 42 41 42 42 41 35
10 10 6 5 8 15 16 18 21 22 22 20 17 17 18 17 15 17 15 14 17 20 23 27 30 33 34 31 29 31 35 38 40 41 41 42 42 42 41 41 42 40 38 34
16 14 13 10 5 5 5 9 13 15 19 16 13 13 14 13 20 18 18 17 19 21 26 30 31 33 30 28 29 34 37 40 40 41 41 41 41 40 40 40 40 37 34 31
7 10 14 16 11 8 13 15 14 7 9 5 8 11 15 23 26 23 20 21 22 25 30 32 30 29 27 27 31 36 39 39 40 40 40 40 39 39 39 38 37 35 32 29
12 7 8 9 7 8 5 7 8 11 13 16 17 20 24 25 23 21 21 22 25 29 33 26 24 23 24 29 34 37 39 39 40 39 39 38 37 36 36 36 35 32 29 25
13 16 13 11 8 13 18 21 19 17 17 21 22 23 24 25 25 22 25 26 28 35 28 23 19 20 27 32 37 37 38 39 39 39 37 35 34 34 33 34 32 29 26 24
16 17 20 19 20 18 20 22 21 20 22 22 23 25 26 27 27 27 29 30 35 28 19 17 18 23 30 35 36 37 38 38 38 37 35 33 33 32 32 32 30 26 23 20
17 20 22 23 21 20 20 21 21 22 25 25 25 26 26 25 27 28 30 33 28 19 15 17 23 29 32 33 35 36 37 38 37 34 32 32 32 31 30 30 27 24 22 20
18 19 20 21 18 21 22 24 25 26 26 27 26 24 22 23 26 29 34 25 13 13 18 23 28 30 32 33 34 36 38 36 34 32 31 31 31 29 28 28 25 23 21 21

GFSCGP_700_spd_048.txt.gz
Wind_Speed
11 14 14 14 12 4 6 10 13 12 15 10 11 14 10 13 19 21 19 16 14 13 12 14 15 17 19 21 23 25 26 26 20 13 12 3 2 7 8 9 13 16 20 23
8 7 12 16 9 6 8 9 9 14 17 14 14 12 10 8 14 22 21 18 16 16 15 14 17 18 20 20 21 20 19 13 8 6 2 3 5 8 10 12 15 18 23 27
12 11 7 8 11 6 7 7 8 10 19 17 13 11 12 9 11 15 22 21 19 19 18 17 15 14 12 11 12 12 8 6 4 4 7 9 9 11 12 17 21 26 30 32
7 10 10 9 9 8 5 7 6 10 14 11 15 8 10 13 14 17 21 23 22 19 16 14 13 14 11 8 7 6 5 9 13 19 21 16 13 16 20 25 30 36 37 39
9 13 11 7 7 7 5 5 6 8 8 7 9 10 6 11 17 21 22 22 19 17 15 14 12 10 9 10 10 11 13 17 24 20 14 17 20 22 26 31 36 39 41 40
12 14 12 9 8 5 6 6 5 5 6 11 9 9 10 8 12 17 20 19 17 15 14 13 12 10 6 8 14 18 19 17 12 16 18 22 24 26 33 35 39 40 40 42
11 11 10 9 6 6 6 6 5 6 6 6 3 8 16 10 9 11 9 14 15 15 14 11 8 6 9 10 10 10 13 15 19 22 24 25 28 31 35 39 40 39 41 41
14 7 9 10 9 5 7 7 5 4 3 1 4 6 3 8 8 9 10 12 15 15 14 11 9 8 10 10 13 15 16 20 21 26 29 32 36 35 39 39 38 41 42 43
11 5 10 7 7 6 6 6 9 2 4 3 5 6 9 11 8 8 11 15 16 17 15 12 9 11 13 14 15 18 22 23 25 28 32 35 35 41 39 40 41 43 44 44
11 4 9 8 8 10 9 7 3 6 3 4 5 6 4 3 6 6 10 12 17 19 17 14 12 13 16 19 20 21 23 24 28 34 37 37 37 38 38 40 42 43 43 43
10 9 7 11 10 9 12 11 9 6 4 2 2 3 6 5 3 4 7 12 18 19 18 17 17 18 22 23 23 25 26 30 36 40 34 37 35 35 39 41 43 43 43 43
14 11 7 11 13 13 14 11 13 8 6 4 1 5 7 5 4 8 12 16 20 20 21 22 25 25 25 26 28 30 31 34 40 35 33 32 35 38 40 41 42 43 42 41
15 10 7 4 8 13 14 16 16 16 10 8 4 4 8 10 10 8 14 17 21 24 24 25 28 29 29 29 31 34 31 36 37 34 32 33 36 38 40 42 42 41 41 41
14 17 14 16 8 7 10 20 20 15 9 10 16 14 16 17 15 12 13 16 21 27 27 29 30 30 29 30 31 32 35 36 35 33 32 33 36 39 42 41 41 41 41 40
15 13 20 19 16 14 14 12 17 21 19 13 16 15 13 15 19 18 15 16 19 21 25 27 28 28 28 30 32 33 37 39 34 31 32 35 38 40 41 41 41 40 40 40
17 12 16 18 19 19 18 18 19 20 21 24 23 28 21 21 17 17 15 16 17 19 22 24 27 27 27 30 32 37 35 33 30 31 33 37 39 40 40 40 40 40 41 41
18 17 12 7 14 15 15 24 26 26 26 27 23 21 22 21 17 16 16 16 16 19 20 23 25 25 29 31 33 35 31 29 30 32 35 38 39 40 40 40 41 40 41 40
14 16 11 6 4 3 13 16 16 20 21 23 22 24 22 19 17 17 16 15 17 19 20 22 24 27 31 33 33 31 28 29 30 34 37 39 39 40 40 41 40 39 39 39
14 13 8 5 7 12 16 18 17 18 17 18 18 17 16 15 16 17 14 18 19 20 22 24 26 29 32 33 31 26 26 28 32 36 38 39 40 40 40 39 38 37 37 36
15 15 13 8 4 4 4 10 12 13 12 9 6 8 9 12 15 12 21 21 19 19 21 25 29 32 32 34 26 23 26 30 34 37 38 39 40 40 39 37 36 36 36 35
12 15 17 16 10 7 12 14 12 3 4 8 14 15 15 13 19 24 24 21 20 21 22 28 32 33 35 27 21 22 27 33 35 37 38 39 39 39 36 34 34 34 34 33
7 6 7 8 6 6 2 3 4 9 17 15 16 16 18 22 23 24 23 24 23 25 26 30 36 35 29 22 20 25 31 33 35 37 38 39 38 36 33 33 32 32 32 30
11 14 10 8 5 10 15 16 14 16 17 17 18 20 22 23 25 25 26 24 26 28 32 34 35 25 19 18 23 29 31 34 35 37 38 39 36 33 32 32 31 30 29 27
13 14 16 14 13 12 17 19 20 20 21 22 23 25 26 28 29 29 27 29 31 31 38 30 19 15 18 22 27 30 33 35 37 38 38 35 33 32 32 31 30 28 27 25
14 16 16 17 17 17 19 19 20 22 23 25 26 26 27 28 28 27 28 30 32 33 26 16 13 17 21 25 29 31 34 36 38 36 35 33 33 32 32 29 28 27 26 24
16 18 17 17 17 17 21 22 24 25 26 24 25 24 23 23 24 25 28 29 30 27 14 13 17 20 24 27 29 33 35 37 35 34 33 32 32 32 31 28 28 27 25 24

GFSCGP_700_spd_051.txt.gz
Wind_Speed
9 9 18 14 10 6 3 12 11 10 11 12 12 8 11 14 17 17 17 16 16 18 19 19 20 21 21 22 25 22 23 25 24 23 14 11 3 4 6 10 12 15 19 19
13 15 10 6 10 5 6 7 12 9 11 11 11 11 13 14 18 20 17 16 15 20 17 19 20 20 22 24 27 27 26 20 15 11 9 6 5 7 9 11 14 15 19 22
10 7 9 9 6 7 8 7 11 11 13 12 11 15 15 15 15 18 18 17 18 19 21 18 17 20 21 20 18 15 12 10 6 4 7 13 14 11 12 15 20 21 25 29
4 11 7 10 8 7 7 6 3 6 15 21 18 17 17 20 17 16 21 22 18 18 18 19 19 18 16 14 13 11 10 10 10 12 16 11 10 8 15 20 24 29 30 35
10 10 9 10 6 10 10 4 5 9 15 13 16 12 27 19 17 15 18 18 18 20 19 18 17 16 16 12 9 9 13 16 20 20 13 12 15 17 22 24 28 34 37 42
9 10 7 3 9 7 4 2 4 8 14 11 16 15 9 17 12 14 15 18 18 18 18 17 17 16 11 10 11 16 19 16 12 14 16 18 22 24 24 27 31 37 38 39
9 8 10 7 6 4 6 7 12 7 8 10 3 6 21 4 4 11 14 16 17 18 18 18 15 12 12 13 14 15 15 14 14 17 19 21 24 27 31 33 33 36 37 38
17 10 12 10 10 6 9 11 8 5 8 7 4 9 7 8 7 8 13 15 17 18 18 17 15 14 14 14 14 14 16 18 20 21 24 27 29 30 34 38 36 35 36 38
18 7 12 11 9 6 7 9 6 6 7 9 15 7 6 10 8 7 12 17 18 18 18 18 18 16 15 16 16 17 20 22 23 24 28 32 33 38 37 36 33 35 38 41
6 6 6 9 9 10 10 5 5 8 3 7 11 9 5 8 9 9 15 17 18 19 19 19 19 18 17 18 19 20 23 27 26 31 32 34 41 35 33 33 34 37 40 42
14 13 7 8 11 14 8 12 10 7 7 4 4 3 7 4 8 10 14 16 19 20 20 19 19 22 21 22 23 23 27 30 32 34 38 36 39 35 34 35 36 39 41 42
15 10 15 13 10 13 10 11 12 11 9 10 7 8 5 4 8 8 11 16 18 19 20 21 26 26 26 28 29 29 31 32 40 44 33 40 37 34 34 37 38 40 41 41
14 12 15 11 12 14 13 14 13 14 8 12 6 6 5 10 11 8 10 16 17 22 23 25 27 28 29 31 32 33 32 36 41 38 38 39 36 34 35 37 39 41 41 41
14 16 16 16 12 6 12 14 15 17 14 16 19 15 9 11 12 11 11 16 18 23 27 29 29 30 33 33 34 32 34 37 37 36 36 34 34 33 35 38 40 41 41 42
15 14 16 19 13 10 11 11 13 19 23 22 20 18 13 11 14 14 14 16 21 22 25 28 31 33 35 34 33 33 35 36 35 35 33 32 33 34 37 40 40 40 41 42
17 12 13 14 14 16 17 18 18 20 21 23 24 25 20 18 17 14 18 17 20 21 23 25 28 32 32 31 31 34 35 36 38 33 32 31 33 36 38 39 40 41 42 41
11 12 10 10 9 8 14 22 22 22 22 22 23 22 17 16 19 17 17 17 18 20 22 24 27 30 30 31 32 34 36 38 36 32 30 31 34 37 38 38 39 40 41 41
14 12 12 7 4 2 11 13 14 13 16 19 21 20 18 14 13 12 13 15 17 18 20 23 27 28 30 32 33 35 38 39 37 30 29 32 36 37 37 38 40 41 40 40
15 13 9 6 9 12 15 13 14 9 10 9 10 12 12 18 14 16 14 15 15 19 22 25 27 28 32 33 37 38 41 36 33 30 29 34 36 38 38 40 40 39 38 38
16 17 12 9 4 4 4 10 10 10 10 8 4 3 8 12 11 8 14 18 23 22 22 25 26 29 32 36 42 43 35 32 26 26 31 35 37 38 40 41 38 36 36 37
17 17 17 12 8 8 10 14 13 6 3 7 10 11 16 11 13 16 24 25 24 23 25 27 26 28 37 37 41 42 25 23 26 28 33 35 37 39 41 40 38 35 35 35
8 9 9 12 8 8 11 7 4 6 14 20 17 14 18 21 22 24 25 26 26 28 27 28 32 37 38 39 36 24 20 24 28 31 34 36 39 39 38 37 36 35 35 34
9 11 6 9 4 10 9 11 18 18 18 22 22 24 22 25 26 27 28 29 32 32 30 33 40 43 34 35 25 20 23 26 30 33 36 38 37 36 36 36 37 36 33 31
13 16 14 15 8 11 13 18 22 22 21 22 22 22 24 25 30 29 30 31 30 31 34 38 38 32 27 23 21 22 25 28 32 36 38 37 37 35 34 34 35 35 33 31
11 13 12 14 15 13 17 21 19 20 23 24 25 26 25 26 29 31 30 29 29 32 35 33 28 21 19 22 23 24 27 32 35 37 37 38 38 36 34 34 33 32 31 31
16 13 14 11 16 17 21 21 23 24 25 26 25 24 24 25 25 26 26 28 31 32 28 21 20 20 21 22 24 28 31 34 36 37 37 37 37 36 35 35 35 32 30 30

GFSCGP_700_spd_054.txt.gz
Wind_Speed
4 6 11 16 8 10 7 7 16 12 12 9 11 15 14 16 15 21 15 14 16 18 19 12 17 19 17 20 24 19 19 20 22 23 22 15 12 8 6 4 10 17 19 21
8 19 10 14 15 20 12 2 10 10 9 13 14 13 13 15 17 14 15 18 18 16 20 17 19 19 21 26 27 21 25 25 23 17 12 9 8 11 12 12 16 19 19 21
6 13 14 17 11 10 6 6 8 7 11 13 10 16 17 18 19 19 23 21 21 21 21 19 21 22 24 26 26 25 23 17 15 13 11 14 16 13 14 15 17 17 21 23
8 12 9 9 11 11 8 1 8 9 17 12 12 4 11 13 15 19 19 19 20 23 18 20 24 22 23 22 19 18 14 13 11 12 14 16 12 14 17 20 16 25 23 27
5 12 7 15 10 4 4 6 7 11 11 9 14 12 28 24 24 25 24 24 25 21 25 27 23 20 17 15 14 11 11 12 12 15 17 10 11 15 19 23 27 29 30 34
10 11 5 7 6 4 3 4 10 11 16 9 18 22 7 21 21 20 21 24 22 25 26 24 19 17 15 11 11 11 13 17 15 13 13 15 17 21 24 24 26 29 35 36
10 13 11 5 5 6 7 10 8 10 9 6 9 20 12 14 10 24 25 17 24 23 23 19 19 17 14 13 13 15 17 17 16 17 17 18 21 22 25 29 30 36 35 33
18 18 17 13 12 7 9 13 4 2 5 5 9 7 11 11 7 12 15 17 19 19 21 19 19 18 15 16 16 16 18 19 19 19 21 22 25 28 27 29 37 32 33 33
5 5 7 4 9 6 7 5 2 9 9 5 8 16 8 9 7 7 14 17 18 21 20 21 21 19 21 19 17 16 20 24 24 23 24 27 29 31 35 35 37 37 33 33
12 13 18 12 14 11 9 8 5 4 2 5 13 20 11 13 8 9 14 16 18 20 19 21 23 22 23 23 22 17 20 26 27 26 30 33 36 35 35 37 37 36 35 35
10 29 8 8 7 11 9 11 13 13 10 2 3 6 7 8 7 6 14 16 20 19 19 20 22 23 25 25 27 22 23 29 30 31 31 33 39 39 35 37 37 36 36 37
13 10 11 13 10 8 9 9 11 12 10 7 11 14 5 4 8 6 10 17 19 19 21 21 23 25 27 31 30 27 27 32 34 29 31 34 40 39 38 38 36 36 38 40
12 11 14 16 11 10 16 15 16 14 11 11 5 5 7 6 8 9 8 15 18 21 21 22 24 31 34 33 32 31 32 32 31 31 33 41 38 39 37 34 35 36 38 40
18 12 15 14 16 7 10 12 15 15 13 15 21 20 14 14 12 9 10 13 17 19 21 27 32 35 33 31 33 35 32 31 30 34 37 37 39 37 35 33 34 36 39 40
17 16 16 19 19 13 12 12 10 14 17 20 21 18 15 11 14 12 12 14 16 22 28 32 35 33 31 32 33 32 34 30 33 34 36 38 39 39 35 32 34 38 39 39
18 13 14 14 13 13 16 18 18 20 20 20 21 23 18 19 14 13 14 15 17 24 28 23 25 27 29 32 31 34 32 32 35 34 38 39 38 34 31 34 33 37 39 40
12 13 9 9 10 11 13 22 20 22 20 20 22 20 17 16 13 17 19 14 19 21 23 21 24 26 31 33 35 34 31 35 34 38 39 39 32 33 31 30 34 37 39 41
12 12 11 7 6 1 18 10 12 13 14 13 14 15 14 16 17 19 18 14 18 17 21 22 24 28 32 35 35 34 35 38 41 42 40 34 30 27 29 32 36 38 40 39
12 12 12 7 10 13 17 10 9 6 7 6 10 9 9 13 16 14 11 13 15 17 17 22 26 29 32 34 34 35 37 40 43 50 39 28 25 27 31 36 39 40 38 36
13 13 15 10 5 5 2 10 9 8 7 7 4 5 10 12 13 10 14 15 16 20 24 24 26 27 30 33 34 34 40 43 44 38 27 24 27 31 35 39 40 40 36 35
13 17 18 14 8 7 9 14 15 6 6 12 9 8 15 11 15 17 20 22 27 27 27 28 29 29 31 35 38 41 45 36 27 23 26 29 31 34 37 38 39 39 38 37
9 9 11 13 7 8 13 15 7 10 8 12 19 18 17 20 20 20 25 27 28 31 31 32 32 32 37 39 42 42 33 23 22 27 29 29 32 33 36 38 38 38 38 37
9 10 6 9 3 10 6 10 10 12 21 19 20 21 21 21 23 22 29 32 34 32 31 31 35 36 37 40 36 26 21 23 24 25 29 31 34 36 36 35 35 35 36 36
10 14 14 12 10 10 9 14 20 20 20 21 21 20 22 21 23 28 31 31 30 30 31 29 29 33 35 27 23 24 25 21 24 28 31 33 35 36 36 36 35 34 35 35
13 14 10 10 11 9 17 19 20 20 18 21 23 23 23 21 24 29 30 27 26 23 26 28 31 26 24 24 22 19 20 25 28 30 33 35 37 39 40 39 38 36 33 32
14 13 14 13 17 20 23 21 21 23 25 25 25 23 22 24 25 25 25 24 25 24 24 23 19 18 17 15 18 22 26 30 32 34 36 38 38 40 40 40 38 36 34 32

GFSCGP_700_spd_057.txt.gz
Wind_Speed
3 5 2 6 12 10 14 16 12 16 15 12 14 14 17 14 14 15 12 12 12 13 13 14 15 14 11 8 9 11 12 14 15 18 20 19 14 11 8 10 11 11 15 24
6 5 7 9 15 20 16 17 30 21 16 12 18 17 17 19 19 14 12 16 14 11 10 11 14 21 19 14 15 17 18 15 21 23 20 15 12 11 15 11 11 13 15 19
15 16 14 21 17 19 9 12 3 6 9 11 12 17 19 20 16 13 13 16 20 18 14 15 17 20 21 20 20 19 20 21 23 20 14 14 15 19 17 13 14 16 21 21
12 17 16 19 15 4 3 14 11 4 4 7 6 4 2 18 18 15 17 17 22 23 24 20 21 23 23 20 20 21 24 23 18 13 17 18 19 19 16 17 16 19 17 25
8 7 6 10 11 5 8 8 3 3 14 14 8 3 10 22 20 21 24 26 26 24 24 26 26 22 25 24 22 21 17 15 14 20 19 18 18 20 20 21 22 25 27 29
8 8 6 17 5 6 3 9 9 6 6 11 25 13 9 21 25 23 23 23 24 27 27 25 25 24 20 19 17 16 17 17 17 16 16 16 19 19 21 22 23 25 27 34
13 13 9 8 10 6 10 8 2 5 7 5 10 11 24 16 19 21 26 29 31 29 30 31 31 29 20 18 18 18 16 14 14 16 18 18 20 21 23 26 27 31 30 35
16 7 15 13 17 12 12 8 3 4 2 6 2 9 1 15 19 17 19 27 25 30 35 34 28 22 16 15 15 16 17 16 16 16 18 19 21 24 26 28 37 38 35 34
8 5 10 12 4 11 14 4 10 8 11 4 4 3 6 14 15 16 23 25 28 23 25 24 22 20 14 17 17 18 20 21 20 17 17 19 22 26 30 34 41 44 33 32
22 8 9 15 15 10 9 7 6 6 1 3 4 5 10 18 16 10 18 16 14 18 20 20 21 21 19 19 19 22 25 26 24 21 21 23 29 31 31 34 40 39 34 34
17 12 8 15 24 16 14 14 12 12 9 5 1 3 3 8 8 5 9 8 9 12 15 18 20 23 24 23 21 22 25 27 28 28 29 28 30 32 40 39 39 35 35 35
9 8 9 26 10 15 11 8 8 12 9 5 2 10 7 5 9 9 7 9 11 12 12 16 19 24 25 26 25 28 29 29 30 31 34 33 35 38 37 40 35 35 37 37
14 8 10 12 11 10 14 14 21 17 13 15 6 4 3 11 14 14 8 15 17 17 19 20 20 24 27 29 29 30 33 37 37 36 31 33 34 36 41 34 33 34 34 33
17 11 9 13 11 11 12 11 9 15 19 14 16 18 20 18 21 17 13 13 15 18 19 20 22 28 32 33 35 37 39 40 36 33 37 35 40 38 37 31 32 33 35 36
14 20 16 14 13 18 13 13 11 11 16 18 16 17 17 17 14 17 12 10 15 16 18 22 27 32 34 38 41 41 40 35 34 36 35 39 37 41 38 41 34 34 36 31
17 18 17 15 18 18 15 13 19 21 17 16 15 17 11 10 7 9 12 10 12 19 21 26 30 33 36 40 40 36 33 35 37 35 35 37 39 44 41 41 40 32 29 31
16 16 16 13 15 19 20 24 23 20 20 20 18 16 13 15 14 13 16 15 15 17 21 25 29 35 37 35 32 32 36 39 38 34 38 39 42 41 43 36 27 28 30 33
18 14 12 9 10 1 16 7 10 8 5 10 10 13 12 10 10 10 14 17 19 20 23 26 28 31 32 33 35 38 41 41 39 38 42 44 49 36 22 27 28 31 33 34
17 19 12 7 12 12 13 11 12 11 6 8 10 13 14 12 13 14 18 18 17 18 19 19 21 25 29 33 36 38 40 42 42 43 46 43 28 23 27 27 30 32 34 35
21 19 18 11 5 6 4 7 9 8 6 10 14 16 15 9 11 19 15 15 16 17 19 24 28 27 27 30 32 35 38 41 45 48 37 26 24 23 25 29 31 34 36 38
16 19 19 19 11 8 14 11 11 10 10 14 12 12 11 18 17 16 19 18 21 25 29 30 29 30 31 33 33 35 40 44 40 30 25 23 22 23 26 30 33 36 38 39
12 10 15 15 9 10 14 14 13 13 13 13 13 15 21 18 17 20 21 24 27 28 31 32 31 31 32 32 35 39 38 32 26 23 20 19 23 27 28 30 32 35 36 37
15 14 9 9 4 6 9 11 11 12 13 14 18 19 20 19 19 21 23 25 27 28 28 28 27 28 30 32 35 34 27 24 18 16 19 23 26 30 33 33 34 34 35 36
19 12 13 11 8 10 16 16 16 16 18 19 19 18 17 20 26 25 26 25 23 22 22 21 22 24 27 30 26 21 17 15 17 20 23 27 30 32 35 37 38 39 38 37
17 16 16 14 17 13 16 19 19 20 21 19 19 19 20 22 24 24 23 22 20 21 23 23 27 24 23 20 18 17 18 20 22 25 27 30 34 36 38 39 40 40 38 37
19 20 19 20 21 22 22 23 24 22 22 22 21 22 20 19 20 20 20 22 23 23 24 24 22 20 18 16 16 19 22 25 28 31 33 35 37 38 41 42 42 40 37 33

GFSCGP_700_spd_060.txt.gz
Wind_Speed
1 3 9 13 11 9 15 16 23 12 16 15 15 10 17 13 14 12 13 13 8 6 4 7 10 9 9 8 7 7 6 9 10 11 13 15 17 13 12 11 16 17 16 18
7 8 7 7 9 15 14 19 21 21 18 17 20 14 20 16 17 15 8 11 11 13 14 12 11 8 5 5 6 6 8 11 12 14 16 17 15 13 13 16 16 14 15 17
17 9 6 13 14 10 21 21 17 9 4 13 14 17 24 21 21 18 14 12 13 15 19 18 18 15 14 15 14 14 14 13 15 18 20 16 14 14 16 14 14 14 15 18
10 5 8 11 16 17 16 9 14 9 6 9 2 9 20 25 25 22 18 20 18 18 19 19 16 18 20 20 20 20 18 17 20 21 16 14 15 15 14 15 14 16 17 22
10 4 7 8 6 8 8 10 2 4 4 4 6 2 14 20 26 24 25 24 24 23 20 19 18 18 20 23 23 23 21 23 23 17 14 15 15 15 15 16 17 19 24 25
12 6 6 6 3 5 13 8 7 9 2 2 11 6 20 20 27 28 27 25 26 24 23 22 22 23 26 18 18 24 27 24 17 14 15 17 17 16 18 20 21 25 29 24
15 14 10 3 9 9 7 8 3 3 3 5 5 8 18 14 15 26 28 26 24 25 24 26 29 25 19 21 22 20 19 16 14 15 16 16 17 18 20 22 27 23 29 38
15 12 13 9 9 11 13 7 4 3 3 5 4 7 9 10 12 14 16 18 27 26 26 29 30 24 27 25 22 18 17 17 16 16 15 17 20 22 25 27 32 29 29 40
9 13 12 9 5 6 7 8 6 3 7 4 4 7 12 13 15 14 19 28 24 26 27 28 29 28 28 24 20 19 20 19 17 17 17 20 23 25 28 28 31 42 38 37
24 11 14 14 20 14 11 7 2 4 2 3 4 7 8 13 17 17 18 24 23 26 27 26 24 24 19 19 18 19 20 20 22 22 23 23 24 28 26 39 38 36 45 42
28 25 12 14 18 19 17 12 12 10 10 4 1 4 3 1 10 3 6 4 3 10 15 14 14 14 15 17 18 21 21 23 23 22 22 24 31 35 35 32 31 41 45 45
24 23 19 16 13 23 16 17 21 15 7 6 4 6 6 8 12 11 9 8 4 5 8 9 10 12 16 18 21 21 21 25 24 26 30 31 35 41 33 38 45 40 44 47
18 13 7 8 15 18 17 16 18 17 15 15 6 9 8 5 10 15 17 15 11 12 15 16 17 18 20 20 21 24 25 27 30 30 34 37 35 40 37 45 48 41 48 42
21 19 15 20 17 13 11 11 14 12 12 14 18 17 15 17 20 18 19 19 14 16 19 20 22 24 24 23 25 30 28 30 32 34 37 39 38 39 42 41 43 47 45 44
21 16 18 13 12 14 13 10 12 15 13 9 13 20 16 15 16 14 19 21 17 15 20 23 27 30 28 26 29 29 31 32 35 38 38 39 38 40 41 46 46 50 45 30
17 19 20 23 24 22 21 16 16 17 17 20 18 18 12 13 13 13 14 20 18 17 19 24 25 26 28 28 29 32 31 36 38 36 37 38 42 40 44 47 47 39 27 23
15 18 19 19 19 19 24 28 24 22 23 25 23 22 18 14 10 9 13 21 21 19 19 22 23 24 26 29 30 32 35 36 35 37 38 42 46 45 47 44 36 28 23 24
14 17 15 10 13 3 14 18 17 17 15 12 12 11 13 13 12 13 15 14 14 13 16 20 22 23 25 28 30 33 34 37 38 39 41 43 46 49 41 33 27 21 24 27
19 15 12 7 14 14 10 10 10 14 10 10 9 10 9 9 9 9 10 11 11 11 14 18 19 21 22 27 29 30 33 36 37 38 41 46 47 37 32 25 21 24 27 30
18 19 19 14 6 7 8 10 17 17 14 14 13 11 12 13 11 12 14 13 12 13 16 19 20 22 28 28 29 32 35 37 39 42 45 38 38 29 22 20 24 26 30 33
23 23 22 24 15 16 20 12 10 14 12 16 15 15 13 14 14 16 16 15 16 17 18 21 25 26 25 26 29 32 35 38 42 42 38 35 28 23 23 24 26 30 34 36
21 15 18 21 14 13 20 19 21 16 15 15 15 15 16 17 20 18 18 18 19 21 23 24 24 22 23 26 29 33 38 38 38 38 31 27 22 24 26 28 29 32 34 36
21 22 16 12 6 10 8 15 15 14 11 11 12 14 20 20 18 17 18 19 20 22 21 20 20 21 25 28 32 33 35 38 31 25 22 22 25 27 30 32 34 36 38 39
23 16 18 14 16 16 13 14 15 14 12 13 15 20 19 18 19 19 18 18 19 19 20 21 23 26 29 29 33 32 28 25 22 22 24 26 28 30 34 36 39 41 42 43
22 23 23 21 19 19 19 18 18 16 16 18 18 17 20 21 20 19 17 18 20 21 23 25 28 29 31 31 27 25 25 25 25 25 27 30 33 35 38 40 43 44 45 42
25 23 27 26 21 20 20 20 21 21 21 20 20 22 22 22 20 19 17 18 22 25 27 29 29 27 25 24 25 24 24 26 28 30 32 35 39 42 45 48 50 49 48 44

GFSCGP_700_spd_063.txt.gz
Wind_Speed
3 7 7 5 10 10 8 11 17 7 7 13 14 16 13 9 10 10 7 5 7 8 6 12 15 15 16 14 12 10 8 5 6 6 7 8 10 12 12 12 12 14 18 18
6 7 8 8 10 14 16 17 18 13 6 12 12 14 18 15 10 10 5 4 8 10 12 12 12 11 11 9 8 8 8 7 7 10 11 11 14 14 13 13 13 18 16 16
11 13 9 11 9 11 16 17 14 13 14 9 9 11 17 20 17 15 15 12 10 9 7 8 8 5 7 7 7 9 10 10 12 13 13 13 15 13 12 14 17 14 15 17
10 8 12 12 12 13 17 7 10 12 11 5 9 4 19 25 23 21 19 17 14 13 12 12 7 6 7 9 12 13 17 16 16 16 15 16 14 13 14 16 14 13 16 18
7 6 7 5 3 6 12 11 9 6 5 7 8 6 7 27 29 26 25 23 22 16 17 15 12 9 9 9 9 14 17 19 19 20 18 14 13 14 14 13 15 15 19 24
14 10 7 7 7 7 4 10 7 7 3 1 2 3 5 16 22 26 27 28 28 21 19 19 16 15 14 15 12 14 17 19 22 21 18 13 13 13 13 15 18 20 27 28
18 17 13 13 10 6 6 3 3 2 3 4 3 4 12 14 14 18 24 29 31 28 23 19 17 16 19 14 13 15 17 21 23 20 16 14 13 13 14 17 23 27 30 35
19 11 13 10 9 7 7 6 3 3 3 3 3 5 7 12 14 12 9 14 24 25 25 22 20 23 22 15 16 19 24 21 18 17 17 16 16 16 18 25 27 33 30 24
12 9 9 11 9 8 8 9 9 2 3 1 5 11 15 13 12 10 12 13 16 15 16 20 19 21 19 19 23 28 21 16 16 17 19 20 21 21 25 29 31 37 32 34
21 11 9 13 12 13 10 10 6 6 3 3 5 6 10 11 11 11 12 13 14 17 19 19 18 18 20 23 28 23 17 15 18 21 22 20 21 29 32 31 36 40 44 34
21 20 19 20 19 20 19 19 14 9 5 4 1 6 8 8 5 6 6 7 7 9 10 14 16 17 19 19 19 18 18 16 17 16 18 19 26 27 29 38 39 42 42 41
21 17 24 28 22 20 24 24 18 12 7 7 6 13 10 12 17 11 11 7 7 7 6 7 10 11 11 11 12 15 17 16 16 18 22 28 28 31 35 44 38 45 41 47
20 14 18 15 19 20 14 19 18 20 21 17 8 11 15 15 13 12 14 12 13 11 8 9 11 13 15 17 16 18 17 20 22 26 27 31 31 33 34 35 35 42 42 43
19 18 19 16 18 18 22 23 18 18 21 20 24 26 21 19 18 17 21 21 16 16 13 13 17 20 24 24 23 24 23 28 32 26 30 29 33 33 34 37 37 40 42 44
24 20 23 22 14 16 18 18 17 16 19 18 19 18 17 17 18 18 14 16 19 19 18 18 21 26 26 25 26 25 28 32 32 31 26 28 30 34 35 38 41 45 46 46
30 16 20 17 15 15 19 22 19 18 20 20 21 22 18 18 18 18 16 14 15 20 20 20 22 25 26 25 25 24 29 32 30 27 27 31 37 36 39 43 45 47 46 43
28 25 19 20 19 20 22 31 31 32 29 29 29 29 28 30 28 23 18 14 18 22 21 19 18 23 23 21 22 23 26 26 27 29 32 35 37 39 43 45 49 45 44 37
26 21 17 11 10 2 19 21 23 27 31 32 32 31 22 18 17 15 15 16 20 19 19 20 19 20 21 20 20 21 23 28 28 30 33 36 39 43 46 48 44 44 37 31
23 22 16 9 17 13 9 9 13 13 16 15 14 15 14 12 15 14 14 15 16 16 15 13 14 18 18 19 19 25 26 26 29 32 36 40 41 45 45 42 41 33 31 31
23 22 23 14 6 7 10 13 18 23 24 21 18 15 13 12 14 14 12 13 15 14 11 12 13 16 17 21 25 25 25 27 31 34 39 41 45 40 42 36 33 31 32 33
24 24 25 23 15 11 16 16 14 14 17 22 21 17 14 13 12 13 14 17 15 13 12 13 15 19 22 22 24 24 26 30 33 38 42 40 41 40 35 31 30 32 34 36
33 25 24 23 16 13 16 19 24 20 17 13 13 16 15 15 15 17 18 16 13 13 15 17 20 21 22 23 25 27 31 33 38 38 37 41 38 33 31 33 34 36 38 41
32 34 27 19 15 17 9 7 11 17 20 15 10 13 16 16 19 19 16 15 16 17 19 20 20 20 20 24 28 31 36 37 36 40 37 34 31 32 35 36 38 41 42 45
31 26 30 23 23 21 18 14 11 12 13 15 14 15 16 20 19 19 18 18 19 20 20 21 19 22 27 29 32 33 34 36 34 31 30 30 32 33 35 38 41 44 46 49
31 32 30 28 24 20 18 17 15 13 13 14 15 17 19 20 20 21 21 20 20 21 21 24 27 28 27 29 32 32 30 29 28 28 29 31 34 37 39 43 46 50 52 54
33 35 33 28 22 19 14 13 14 15 16 18 19 21 21 22 23 22 21 21 22 23 25 26 26 29 31 30 29 28 27 26 28 30 32 35 39 42 46 49 51 52 53 54

GFSCGP_700_spd_066.txt.gz
Wind_Speed
3 4 6 8 6 5 7 8 12 5 7 13 12 9 10 9 7 7 4 8 12 12 13 16 16 16 17 19 19 18 15 14 10 7 6 5 6 6 8 10 10 10 11 14
7 5 7 8 10 10 15 15 14 6 2 11 10 6 10 15 13 6 4 4 11 14 14 14 15 16 16 16 17 16 14 11 9 8 9 9 9 8 8 9 10 9 13 15
8 7 11 11 11 8 7 12 15 15 12 12 7 9 15 19 18 15 12 10 8 9 11 13 13 13 13 12 11 10 10 9 9 9 12 11 11 10 8 8 9 12 15 16
9 8 12 12 11 11 14 6 8 8 7 4 8 4 11 17 21 21 17 16 12 11 12 11 10 9 5 7 12 12 12 12 12 12 13 13 13 13 9 10 13 15 16 17
6 4 7 11 6 7 8 8 11 5 6 5 7 4 9 12 19 21 22 20 17 16 14 13 10 9 9 8 9 11 13 13 15 14 14 15 16 14 12 14 15 15 17 21
14 12 7 8 5 6 8 7 7 7 6 2 5 8 7 10 11 14 15 22 23 21 19 15 13 13 11 11 11 11 12 12 15 18 17 17 17 16 15 15 15 17 20 23
17 14 14 12 11 7 6 2 3 2 1 4 3 5 9 11 11 11 13 16 19 21 23 21 17 13 11 12 14 11 9 11 15 19 20 20 18 16 16 17 18 21 24 25
19 9 13 9 8 3 3 3 2 2 2 4 6 5 6 10 14 13 14 7 11 15 19 20 20 16 13 17 9 14 10 14 17 17 17 17 18 20 20 21 23 24 25 29
10 11 11 8 9 7 4 5 4 3 2 2 6 11 14 9 13 14 7 6 9 9 8 12 14 13 15 16 13 15 17 21 20 17 16 18 22 20 22 27 26 28 29 33
18 8 9 10 14 12 8 6 3 2 2 3 5 7 6 13 15 13 5 6 6 6 8 10 12 14 14 16 17 17 21 24 18 17 18 22 22 24 24 22 24 27 34 42
21 20 13 16 14 15 14 17 13 8 5 4 1 6 6 8 10 5 9 6 4 4 5 6 7 10 13 16 16 20 19 15 14 15 18 18 17 18 26 19 27 24 27 31
23 15 23 22 18 21 19 16 18 15 6 8 6 15 15 9 13 14 13 13 8 6 8 6 7 10 11 15 18 15 9 8 8 12 16 18 19 25 23 33 30 31 35 29
24 19 16 14 19 24 21 23 22 21 19 15 7 13 13 19 18 17 18 14 17 15 11 11 8 9 10 13 18 17 16 16 16 18 24 22 21 27 21 35 26 35 37 38
16 24 24 22 24 16 18 19 19 20 14 16 23 23 19 18 17 14 13 16 20 19 15 15 15 14 15 19 21 23 23 25 23 22 25 29 22 18 26 24 32 35 36 39
26 25 24 22 20 20 21 20 19 21 24 20 23 24 17 17 17 17 19 17 18 17 22 18 19 17 17 23 25 25 25 25 25 27 31 32 25 25 28 30 32 36 39 41
27 24 22 22 24 23 19 21 21 22 22 25 23 26 20 21 21 19 19 19 19 20 18 20 19 18 21 23 25 25 24 22 25 29 36 25 27 29 31 33 44 35 43 45
25 30 27 22 22 19 19 27 27 30 31 32 34 35 29 29 29 31 32 27 23 17 19 21 21 19 19 22 24 23 21 19 20 21 24 26 28 31 35 40 41 41 43 42
25 30 27 17 15 1 28 28 27 27 28 31 35 35 31 27 25 20 15 18 17 17 19 20 19 19 20 18 20 20 16 16 18 21 24 27 30 36 39 45 40 45 44 42
26 28 21 15 19 21 25 22 20 19 21 17 18 15 11 11 11 13 13 12 12 13 15 17 18 18 17 16 16 17 18 21 24 25 27 31 36 34 39 42 43 42 39 34
29 28 29 15 8 8 25 15 20 23 35 28 20 14 12 10 11 11 13 15 15 14 15 15 14 14 15 16 18 20 22 23 23 27 31 33 34 41 42 40 40 36 32 33
29 27 28 25 16 17 20 16 14 17 25 17 17 19 16 14 13 13 12 13 15 18 16 14 13 14 15 17 20 20 22 23 25 29 33 35 38 38 39 36 33 33 35 39
32 30 27 27 19 14 22 21 23 21 20 17 12 11 15 15 14 13 14 16 18 18 16 16 17 18 19 20 21 20 23 26 29 31 38 38 36 35 34 34 34 37 40 42
32 34 33 28 28 27 20 21 16 13 18 17 13 12 15 16 14 15 17 19 17 18 18 18 19 21 21 22 23 27 29 31 31 31 33 36 32 32 33 35 37 40 42 46
26 28 35 27 31 29 27 25 22 18 15 15 16 13 14 16 17 18 19 18 19 19 20 20 22 23 24 23 26 29 30 27 33 29 29 30 30 31 33 36 40 44 47 51
32 30 34 33 33 27 30 26 20 17 16 16 17 16 16 18 19 19 19 20 20 22 22 22 24 23 24 28 28 25 28 30 28 27 27 28 31 34 37 40 43 46 49 53
33 34 36 40 37 32 29 19 14 18 17 16 17 17 18 19 21 22 23 23 24 24 23 24 22 26 26 25 30 31 27 25 25 27 29 32 34 37 40 44 46 47 50 53

GFSCGP_700_spd_069.txt.gz
Wind_Speed
7 6 8 13 11 8 9 6 8 8 11 7 8 11 7 8 6 3 5 5 12 16 15 17 18 18 20 21 21 19 18 17 15 14 11 9 7 7 6 7 11 9 10 12
10 9 6 8 9 8 9 11 12 15 2 9 7 6 7 10 6 4 2 9 12 14 16 17 20 21 19 18 18 17 16 14 13 12 11 10 9 7 8 9 9 9 12 14
13 7 8 8 11 10 8 5 7 10 4 7 7 8 11 11 12 10 10 10 13 10 11 14 15 17 18 16 15 13 13 13 12 11 13 13 9 10 8 10 11 12 15 16
11 12 10 12 13 12 12 4 6 9 3 1 2 3 7 12 14 16 14 15 14 16 17 16 15 14 13 14 15 16 18 17 15 15 13 13 12 12 14 14 14 13 15 15
11 5 3 10 10 9 9 6 7 6 3 3 4 4 6 9 13 13 16 18 17 16 17 18 15 15 14 15 16 16 17 19 19 18 15 15 15 14 17 18 15 13 15 16
17 11 9 3 6 3 6 6 5 3 2 2 4 8 5 8 10 7 9 16 21 20 19 17 18 19 17 18 17 17 19 20 20 21 17 16 17 17 18 17 16 15 17 17
21 19 14 9 8 8 7 6 1 1 2 2 5 4 10 10 8 8 8 9 16 22 23 21 21 20 20 19 18 18 16 15 15 16 18 16 18 20 19 19 18 17 19 22
19 12 17 10 7 7 10 9 5 3 3 2 4 6 6 10 12 10 11 13 12 18 22 22 21 21 17 16 17 15 11 13 14 13 15 18 20 20 20 21 20 21 23 24
16 15 9 13 11 10 11 11 7 5 3 1 5 8 11 6 9 14 9 7 4 6 11 17 17 17 18 21 14 15 15 15 16 16 16 19 21 21 21 20 20 24 21 23
12 6 14 16 13 12 11 6 4 4 3 3 3 5 8 5 7 8 7 3 3 5 9 13 14 16 14 13 17 18 16 15 17 19 19 19 22 21 21 20 18 19 20 26
27 16 11 16 18 17 17 13 9 5 4 2 2 5 6 8 9 10 11 11 6 1 3 8 13 14 15 17 18 17 16 15 18 17 18 20 22 22 17 20 18 22 26 34
30 14 18 21 13 16 18 16 12 8 5 9 9 16 16 3 5 14 12 11 9 4 6 8 9 10 15 19 20 19 17 15 11 10 9 11 15 19 21 21 23 17 27 28
30 17 18 13 17 24 19 20 18 19 19 17 10 10 8 14 12 12 15 14 13 13 14 12 12 10 9 14 16 19 18 17 18 18 17 17 21 23 28 21 36 23 18 29
25 28 22 19 22 16 17 23 24 22 14 18 24 25 22 16 15 12 13 12 15 15 12 16 16 14 13 13 14 17 18 21 23 25 25 20 27 30 32 16 26 28 33 28
24 20 19 22 24 25 23 22 18 19 19 24 26 28 22 19 21 17 17 15 19 17 15 14 19 20 17 14 17 19 21 22 22 23 24 26 32 35 26 14 28 28 29 39
34 28 25 24 24 23 21 22 21 18 20 23 25 31 26 21 21 20 19 19 19 19 19 19 19 22 20 18 20 21 22 22 22 22 23 23 29 24 18 28 32 28 39 40
29 30 29 24 26 23 21 26 24 24 25 29 34 36 29 27 27 27 28 29 29 30 27 24 23 23 22 22 22 22 22 24 24 22 20 16 23 24 29 31 29 43 33 34
17 22 26 20 19 5 28 25 21 23 29 29 31 32 28 28 28 27 23 19 14 13 15 18 19 20 23 24 21 22 25 24 24 21 18 19 23 25 30 31 39 31 38 39
21 20 18 16 21 22 19 23 23 23 38 27 26 18 17 18 17 13 13 13 12 13 14 16 17 18 20 21 21 20 20 20 20 19 18 20 26 29 34 33 34 38 39 38
25 26 26 14 10 9 29 26 24 20 33 27 20 23 18 14 15 14 14 14 14 15 17 17 17 18 20 20 20 19 20 20 20 22 25 25 24 29 32 34 39 36 33 32
27 27 28 29 20 20 21 18 18 14 32 20 16 11 17 18 14 14 16 16 16 16 16 17 17 17 16 17 17 19 21 23 22 24 24 29 28 28 35 33 33 30 30 32
32 28 25 27 21 17 23 22 25 30 25 22 16 12 14 17 17 18 17 17 16 16 17 16 16 16 16 17 18 20 19 21 23 26 26 30 30 31 31 28 29 29 33 36
24 32 30 32 27 29 24 23 24 20 24 20 17 11 13 16 19 19 18 17 16 17 16 16 17 17 17 17 18 21 19 20 23 27 27 28 30 28 27 27 30 32 35 38
40 32 31 31 35 33 31 29 26 27 26 21 18 17 16 16 20 20 19 17 18 17 17 17 18 18 18 18 21 20 22 25 26 25 28 27 25 26 27 30 33 35 38 41
31 30 30 36 35 28 27 26 26 29 26 23 20 18 17 19 20 21 20 19 18 18 17 17 18 18 19 20 22 24 24 23 27 27 23 24 25 27 29 31 34 37 40 44
36 34 32 36 32 28 30 27 36 31 24 22 20 20 20 21 20 21 22 20 20 20 19 18 18 19 21 23 25 23 26 27 22 23 23 25 27 29 31 33 36 39 41 44

GFSCGP_700_spd_072.txt.gz
Wind_Speed
13 10 11 11 14 11 9 9 8 8 9 10 10 10 9 6 2 3 1 5 14 17 13 11 13 14 17 19 18 16 17 18 19 18 16 14 12 13 14 14 14 13 14 13
12 13 9 9 11 11 10 11 13 9 6 9 9 9 8 7 2 1 2 3 10 14 15 14 16 20 21 20 19 18 17 17 16 15 15 14 14 14 13 13 14 16 15 13
16 8 13 8 10 11 12 14 10 10 8 9 11 10 9 7 8 8 7 8 10 11 14 17 19 20 21 21 19 18 17 16 16 17 18 17 14 13 13 12 14 16 13 14
17 17 14 12 13 12 12 9 10 8 6 8 6 4 6 9 8 10 13 15 15 14 16 18 18 19 18 19 20 20 20 20 19 19 18 18 17 15 14 15 15 17 16 14
18 15 14 14 12 12 9 9 7 7 7 6 7 8 5 6 9 11 11 18 19 18 18 19 19 20 21 22 21 22 21 21 21 21 19 19 20 20 19 19 22 17 17 17
17 16 10 7 10 9 7 7 5 6 7 9 5 6 4 6 5 5 7 12 20 21 21 21 20 20 21 22 23 23 22 22 23 23 22 22 23 23 23 23 18 19 20 19
22 21 14 11 8 9 8 8 9 7 7 5 4 5 12 9 6 6 8 10 14 23 27 25 25 24 25 24 23 22 22 23 22 23 23 23 21 24 25 25 22 21 21 20
25 20 21 16 15 10 14 13 7 6 5 5 4 7 4 8 10 8 10 12 14 18 25 32 29 26 26 26 25 23 25 22 20 19 18 18 26 28 25 26 23 22 23 24
25 22 15 16 15 13 12 12 11 4 4 6 9 10 11 8 6 9 8 9 8 11 18 26 32 33 28 26 23 19 23 22 19 18 23 22 23 25 26 25 25 26 25 26
11 17 17 17 19 17 12 13 8 8 5 7 7 10 10 6 3 1 3 4 5 7 14 18 25 29 30 29 27 27 22 21 21 21 22 24 24 27 27 27 26 25 25 26
21 13 10 18 18 18 17 14 11 7 6 4 4 6 7 7 8 7 5 5 3 2 5 14 18 21 26 28 26 25 29 26 23 21 21 22 23 25 27 27 26 25 27 30
30 16 16 16 14 21 18 17 18 12 10 8 7 15 14 15 9 7 9 8 6 4 4 5 7 13 24 29 29 28 27 26 23 20 17 17 18 22 23 24 26 29 31 25
35 21 15 14 15 20 16 17 18 17 17 16 13 14 6 11 13 12 11 9 11 12 12 13 11 13 13 20 25 26 24 25 27 23 20 19 19 20 24 28 34 33 34 27
34 24 27 23 20 15 18 23 23 22 21 21 22 24 18 19 17 15 14 16 13 14 15 11 11 15 17 17 19 22 23 26 27 25 25 26 26 29 25 23 33 35 36 28
31 28 26 26 21 18 19 19 19 23 25 26 23 22 20 18 19 19 19 18 16 17 20 19 17 17 20 21 22 22 21 23 25 23 25 26 28 27 28 34 36 31 20 28
30 22 20 20 20 20 22 21 21 22 20 22 24 26 21 21 21 23 23 22 20 19 20 20 20 20 19 25 23 24 24 22 24 25 27 29 30 30 28 29 34 35 30 21
26 27 20 19 18 15 21 27 22 21 23 23 25 25 22 24 25 25 26 25 26 27 28 29 29 28 28 28 29 27 26 27 27 29 31 32 32 30 23 25 29 29 24 31
10 24 20 19 18 8 24 19 20 23 24 24 26 28 29 27 26 27 28 29 28 24 21 19 19 22 22 24 27 28 29 30 31 33 33 31 27 23 23 25 27 31 29 30
16 17 14 12 18 19 20 22 23 25 26 21 25 26 23 26 20 21 21 20 17 15 14 13 13 13 15 18 21 23 25 29 32 32 28 25 23 22 24 26 24 30 33 36
23 22 18 14 9 8 21 23 23 20 30 22 20 20 20 19 22 16 15 15 15 16 15 15 16 19 20 21 22 23 22 23 23 24 24 22 23 22 20 28 31 29 33 34
21 24 25 24 14 14 18 15 16 15 29 17 20 19 20 18 20 19 16 17 18 18 18 17 17 17 18 19 19 20 20 22 23 23 23 19 21 27 30 31 31 33 31 29
10 15 22 19 14 14 20 19 24 27 20 21 20 20 21 18 17 20 20 20 19 19 18 17 17 17 17 17 18 19 20 22 20 23 21 24 26 28 29 30 30 29 29 30
29 31 18 24 20 22 20 19 21 20 20 22 22 23 22 17 18 19 21 21 21 20 19 18 17 17 17 17 19 20 20 20 21 22 24 25 28 29 29 29 27 28 30 32
32 32 36 32 24 24 24 25 24 25 25 24 24 24 23 18 18 20 23 24 23 21 20 19 18 18 19 19 20 19 20 20 22 25 27 28 27 29 26 27 28 30 32 34
23 26 40 39 35 30 30 25 23 22 25 30 25 25 24 21 22 23 25 25 25 22 21 20 19 20 21 21 21 21 22 23 25 26 26 28 25 25 26 27 30 32 34 35
28 30 29 32 28 33 28 24 25 24 27 30 24 26 25 23 23 24 26 27 25 24 23 22 22 22 23 23 23 23 25 26 25 26 25 23 24 25 27 30 32 32 35 38

GFSCGP_700_spd_075.txt.gz
Wind_Speed
13 15 18 13 15 17 12 12 11 10 10 10 13 12 8 6 5 7 6 6 3 5 11 15 15 15 18 17 18 17 20 16 17 17 18 18 17 17 18 19 18 17 17 17
17 20 15 13 10 14 14 14 13 14 10 9 11 12 8 9 8 10 8 10 12 10 7 10 13 16 15 17 19 19 17 17 17 17 16 15 15 15 17 17 18 18 19 19
23 13 13 12 12 13 14 15 14 17 9 13 13 14 13 11 12 12 12 12 14 17 8 12 13 16 18 20 19 19 18 17 16 17 18 17 16 16 17 17 18 19 19 18
23 19 13 15 14 13 17 12 11 11 12 6 12 8 16 15 12 15 16 17 17 17 13 14 16 19 18 17 15 15 17 18 19 19 20 19 17 16 17 18 17 18 25 19
26 21 20 18 16 14 15 8 9 11 14 16 10 11 11 13 12 15 17 19 20 21 18 14 17 17 18 20 19 19 19 20 21 21 21 19 20 21 22 22 21 21 19 23
26 18 18 17 15 16 12 9 10 11 14 14 13 13 10 10 9 5 8 16 22 23 24 23 17 19 20 20 21 22 23 22 23 22 23 23 22 24 21 24 27 26 21 18
26 23 19 15 13 14 14 12 12 8 9 10 8 7 12 7 5 6 7 9 15 23 26 26 27 25 23 24 24 24 24 24 24 24 25 24 24 26 24 26 29 31 28 27
29 30 26 18 21 16 19 18 11 6 3 6 6 7 12 7 6 8 9 10 13 16 25 28 29 29 28 27 27 25 25 24 25 25 23 24 25 28 23 28 27 30 32 29
29 30 25 24 19 18 16 24 18 14 7 10 11 10 13 12 9 8 7 9 10 14 20 25 29 30 30 30 29 28 26 26 28 26 23 21 22 23 24 29 31 31 31 32
16 23 19 22 19 19 15 15 14 15 10 10 14 15 14 6 5 5 4 3 6 9 12 16 24 30 31 33 29 27 27 25 23 24 28 27 25 25 27 29 31 32 32 35
26 21 23 19 26 23 20 17 16 16 17 6 9 7 3 1 6 8 8 6 5 4 7 11 15 21 27 32 34 33 30 30 29 25 25 28 27 29 31 30 30 29 32 35
33 19 21 25 22 23 24 23 24 20 18 15 19 20 16 13 14 13 10 10 9 6 5 6 7 13 20 23 29 32 33 34 35 36 34 30 28 28 26 26 26 26 29 31
33 30 22 19 20 17 23 23 21 23 21 20 14 15 14 15 12 12 13 12 11 11 11 13 14 14 15 19 27 30 31 32 33 38 36 32 28 24 24 24 25 28 29 35
33 28 32 26 26 21 24 25 26 26 24 22 27 25 22 18 16 18 15 15 14 12 12 13 14 14 16 19 23 30 34 34 36 36 34 32 31 30 27 27 29 28 32 29
28 37 28 30 24 19 21 22 25 29 28 30 27 27 23 17 15 17 16 16 16 15 14 15 16 18 19 19 22 25 29 33 33 30 30 33 31 30 28 29 30 31 30 32
25 27 32 29 26 24 23 22 22 23 23 26 25 26 20 19 19 19 19 18 19 17 21 21 22 16 23 24 25 29 29 29 30 29 29 31 31 30 30 31 32 32 29 33
19 28 26 27 26 26 28 27 24 23 24 23 26 23 20 20 20 21 22 21 24 26 26 26 26 29 32 30 28 29 31 30 30 31 30 31 32 32 33 31 30 28 30 29
13 19 25 18 19 14 21 21 21 24 26 23 24 22 22 21 24 24 27 27 31 29 30 32 33 33 35 38 37 33 33 33 32 32 33 33 35 34 31 30 26 27 28 31
13 13 17 18 22 23 23 25 23 22 23 23 24 22 20 20 23 27 28 21 25 24 24 21 19 17 17 18 18 18 22 27 30 32 35 34 32 29 26 26 24 29 30 30
20 19 21 15 18 18 28 25 17 17 27 23 21 20 19 16 21 16 21 18 17 17 17 17 16 16 15 17 18 20 22 24 25 26 27 26 25 26 27 27 28 27 32 34
20 21 26 22 14 14 16 17 17 17 27 11 12 14 15 14 16 19 21 20 17 17 18 18 18 18 18 19 22 23 25 24 24 24 24 26 27 27 28 27 31 32 32 32
16 17 21 21 20 14 18 18 20 22 15 16 16 15 18 20 19 19 19 21 19 19 20 20 20 20 21 21 21 22 24 24 24 26 27 27 28 25 29 31 31 31 32 32
30 21 17 19 16 17 19 22 21 18 17 18 18 19 19 21 21 18 20 21 22 22 22 23 23 23 23 23 23 23 23 24 26 26 26 27 26 28 30 31 31 32 32 30
23 24 31 27 29 23 18 17 18 18 20 22 20 20 22 22 23 20 22 23 23 24 25 25 25 25 25 24 25 25 26 26 27 26 26 27 29 30 31 31 31 29 29 31
25 17 22 25 24 24 27 28 22 20 20 21 21 21 24 27 26 21 23 24 26 27 27 27 27 27 26 26 27 28 28 28 27 27 28 30 31 30 31 30 28 30 30 32
22 23 25 21 20 23 28 27 30 32 28 29 27 25 26 27 25 22 25 28 30 30 30 31 30 29 29 29 29 29 29 29 30 30 31 31 31 30 28 28 28 31 34 34

GFSCGP_700_spd_078.txt.gz
Wind_Speed
17 17 21 19 19 22 17 20 17 13 5 10 14 14 11 9 8 10 10 12 7 8 13 18 17 20 21 23 24 23 17 18 18 19 20 23 22 23 23 22 21 20 19 19
17 29 19 19 19 16 14 17 16 17 10 8 14 16 10 12 11 15 10 9 5 3 4 6 11 15 17 19 24 22 17 13 13 13 15 18 18 19 19 18 18 18 19 19
25 22 20 18 16 14 14 16 17 17 16 13 11 17 11 8 13 12 8 10 6 3 5 7 11 12 16 17 18 18 17 15 14 15 17 17 17 16 16 16 17 17 18 18
27 22 22 16 16 15 16 13 17 14 14 11 12 13 19 14 16 16 14 17 17 10 4 7 10 12 12 14 15 14 14 16 15 15 15 15 13 12 12 15 17 17 18 21
31 27 25 23 20 17 18 12 11 11 15 16 16 15 15 13 19 21 18 17 19 15 11 8 9 10 12 14 13 14 17 17 18 17 16 16 15 16 17 18 17 18 22 23
27 24 26 25 20 19 16 14 13 14 16 15 18 14 11 4 13 13 15 20 22 22 17 14 13 15 14 16 17 17 16 16 18 20 20 20 19 20 20 18 18 22 24 24
32 29 26 21 21 19 18 14 12 4 10 9 7 6 11 6 8 9 5 16 16 24 24 21 20 21 19 21 20 20 21 21 21 19 20 22 21 22 22 21 22 25 26 25
32 24 32 23 22 20 20 20 14 5 3 5 4 7 5 8 9 6 6 10 9 17 22 27 27 24 23 23 22 24 23 22 24 22 19 22 24 24 27 26 22 27 27 27
32 34 25 28 23 24 20 26 24 27 10 13 12 6 16 9 3 5 5 6 10 14 17 26 28 31 31 28 27 24 24 23 25 27 22 22 24 26 28 25 23 24 26 33
37 25 28 32 27 23 26 18 21 20 7 9 9 15 8 3 11 8 4 5 3 10 15 19 26 27 33 31 31 28 26 28 27 28 27 27 26 27 28 26 27 27 27 30
41 35 21 28 35 29 24 24 16 21 18 6 4 5 5 10 4 5 4 6 6 6 10 12 17 24 30 32 31 33 32 30 31 31 31 27 24 28 32 31 29 30 31 31
43 19 28 23 28 25 25 24 25 19 14 13 13 18 13 8 9 10 11 11 9 10 8 11 9 16 24 27 30 34 38 33 35 35 35 36 29 25 30 31 28 30 28 23
34 40 23 25 32 26 28 32 26 25 25 23 14 13 10 10 11 9 13 11 13 14 11 12 13 12 12 19 30 35 29 27 28 33 36 38 31 29 30 29 30 28 23 28
37 36 32 20 22 26 30 27 27 29 28 20 24 22 18 19 16 16 13 22 16 16 11 12 16 16 14 14 17 23 29 30 27 29 34 36 27 31 34 32 30 28 28 29
19 26 39 34 28 25 27 28 26 31 28 28 22 24 21 20 17 11 8 11 8 9 13 13 15 16 19 20 18 19 26 28 28 28 29 32 30 33 31 33 29 32 35 28
26 22 34 32 31 34 27 27 28 27 27 28 25 27 22 20 19 16 14 16 16 15 18 16 16 17 21 23 24 26 28 27 26 28 30 31 33 31 27 29 35 38 34 31
11 16 27 28 31 29 34 33 22 21 22 21 23 20 18 19 19 17 14 16 14 18 23 27 25 24 24 32 28 28 29 28 28 29 30 32 30 27 30 34 38 33 30 29
12 11 24 24 22 24 27 25 27 23 23 22 21 19 18 19 20 20 19 19 19 27 31 31 30 31 33 35 36 37 37 34 29 28 31 32 33 33 34 35 32 29 28 29
25 7 10 18 27 21 26 19 17 18 23 20 20 22 22 20 22 18 19 27 26 27 26 25 27 34 31 26 21 19 19 19 21 25 30 33 35 33 31 28 26 26 27 28
25 17 24 9 10 10 21 25 17 20 26 20 20 22 22 19 19 19 21 21 21 21 21 19 21 20 18 18 17 17 18 19 20 22 23 25 26 25 25 25 25 26 29 30
27 34 28 24 14 10 16 23 24 26 21 19 15 11 13 13 15 18 17 18 19 21 19 18 19 19 19 19 19 21 22 24 24 24 22 22 22 23 25 26 27 29 28 31
25 18 23 22 18 18 12 13 28 27 22 20 15 16 13 18 20 19 19 18 17 18 18 19 20 21 21 22 23 24 25 25 24 23 24 24 25 26 27 28 29 28 33 34
24 27 26 15 21 12 17 23 15 17 19 18 12 15 16 18 17 17 19 21 18 19 20 22 24 24 24 24 25 26 26 25 25 25 26 27 28 28 28 30 29 33 35 34
27 23 24 21 30 21 15 20 19 20 21 19 18 17 19 19 19 18 21 23 20 20 23 26 27 27 27 27 28 28 27 27 27 28 29 29 30 29 28 32 34 35 34 33
23 18 26 26 20 16 18 20 23 18 18 17 13 15 21 25 24 26 26 25 22 23 26 27 29 29 30 30 31 30 30 30 31 31 32 32 33 32 33 34 36 34 31 29
23 25 21 17 16 17 18 17 18 23 28 27 32 26 24 24 24 24 23 22 24 25 28 30 32 33 34 35 34 34 34 36 35 35 37 35 35 35 35 34 34 32 26 27

GFSCGP_700_spd_081.txt.gz
Wind_Speed
20 22 27 21 16 12 17 26 23 19 8 16 13 17 16 11 11 13 12 14 8 6 10 14 16 10 12 13 6 6 15 21 21 21 24 24 22 20 25 24 24 25 23 21
21 36 25 15 15 19 24 22 15 16 15 17 13 17 16 10 14 14 14 13 5 5 5 6 12 22 27 25 25 25 23 23 21 19 21 21 22 20 18 18 18 17 16 18
34 26 23 16 18 19 17 16 17 16 17 17 16 16 9 19 20 17 17 12 4 1 2 4 5 11 16 19 18 17 17 18 18 18 19 19 19 19 20 18 16 15 16 18
34 32 25 28 31 21 13 15 16 16 12 13 12 10 22 12 23 23 18 16 6 4 4 2 3 6 8 11 13 12 14 13 15 15 16 17 14 12 12 14 14 16 17 19
40 31 33 28 24 18 17 16 16 12 13 17 20 9 18 8 28 24 19 17 15 3 5 5 3 5 7 6 7 9 12 13 13 14 14 13 14 12 13 15 15 15 16 17
35 28 30 32 25 21 16 17 17 9 14 14 23 10 20 15 20 20 24 22 18 10 6 8 8 10 11 10 10 11 11 13 13 13 14 13 12 14 15 14 13 14 16 20
38 42 34 29 28 21 19 16 6 4 2 5 6 7 23 16 16 17 19 26 19 12 8 8 10 15 15 15 14 13 13 13 13 13 12 12 13 15 16 16 16 16 19 22
32 31 37 28 32 25 23 28 15 6 3 3 11 9 5 5 11 13 10 7 16 20 19 14 9 11 14 18 18 18 18 17 18 17 17 17 17 18 19 20 20 20 22 20
22 30 24 31 25 28 21 23 26 20 2 1 10 18 5 6 12 11 11 6 12 19 22 21 19 18 17 16 19 22 22 21 22 20 20 19 19 21 21 22 22 22 23 20
33 19 33 26 30 26 28 19 20 20 7 6 6 15 6 9 9 6 6 10 9 9 9 16 24 23 25 22 19 18 19 23 24 26 24 22 21 23 25 25 24 23 24 24
42 28 28 18 32 33 26 27 16 21 21 6 3 6 2 16 9 15 5 7 10 15 19 15 21 20 25 27 26 25 22 18 19 26 28 28 26 27 27 26 28 26 26 26
38 24 29 39 21 26 37 31 29 23 16 11 9 10 13 6 7 7 5 13 11 10 12 14 12 20 18 21 26 29 24 22 19 21 26 28 32 30 33 28 25 26 27 29
34 32 19 27 27 26 44 36 32 27 30 21 8 13 20 13 13 14 14 12 15 12 15 16 18 12 19 18 18 23 24 23 21 24 24 31 35 38 34 31 22 26 25 26
32 31 36 26 26 23 18 34 31 26 29 25 24 19 16 14 13 15 16 14 14 19 20 15 17 17 13 15 15 19 23 23 23 27 27 28 30 34 29 30 27 27 29 30
30 24 35 29 30 28 31 29 29 30 29 29 32 28 20 18 18 15 11 13 16 8 14 15 16 16 18 16 18 17 20 23 24 28 28 26 26 27 24 28 26 30 31 31
21 25 28 31 31 28 25 31 30 35 33 30 30 25 17 17 18 19 19 15 10 8 14 17 19 20 19 22 23 23 22 25 24 26 24 23 24 26 28 31 31 33 31 37
23 12 22 25 34 29 27 34 31 23 27 28 24 22 18 15 18 16 17 11 14 19 22 24 27 27 30 30 32 29 25 23 24 26 26 27 28 28 32 32 32 33 35 33
28 13 14 13 17 14 15 20 20 25 30 19 14 13 11 9 16 18 19 19 16 18 19 23 26 30 32 32 33 31 29 30 33 30 31 31 32 33 35 33 31 33 31 33
33 15 11 6 20 14 19 21 20 24 22 23 22 21 18 16 16 20 21 24 23 22 26 29 27 26 29 30 30 30 28 26 23 23 24 26 29 31 31 34 32 29 27 30
21 20 13 1 1 7 23 19 16 16 22 15 18 21 18 19 22 20 18 19 24 27 27 26 23 20 20 20 20 19 19 19 19 20 20 22 24 27 27 25 23 25 28 33
19 18 22 15 7 12 15 22 20 20 11 17 16 17 13 17 20 17 14 16 21 21 22 22 20 17 17 17 18 19 19 20 21 21 23 24 24 24 22 22 23 28 33 31
22 19 19 19 9 9 12 11 24 21 23 25 26 20 17 16 17 16 16 17 18 19 20 20 18 18 19 20 21 22 23 24 24 25 26 25 24 22 22 24 28 31 31 29
29 25 18 21 21 4 15 22 11 20 13 11 19 22 18 18 18 19 19 19 17 19 20 21 23 20 21 23 24 26 26 25 26 26 26 25 24 25 27 30 32 30 30 31
17 20 19 19 17 25 28 17 27 26 18 21 20 23 21 18 16 20 20 21 21 22 24 24 24 24 26 27 28 28 28 28 28 29 28 27 29 30 33 33 32 32 33 35
25 21 22 20 21 11 19 14 22 33 21 25 19 18 12 10 13 17 19 21 19 19 21 23 24 25 28 31 32 33 33 33 33 33 32 32 33 34 34 34 35 36 38 37
27 28 18 18 16 19 17 16 13 15 20 21 21 26 30 28 24 20 21 20 20 21 23 25 27 30 32 34 36 38 39 39 38 38 37 36 36 36 38 40 40 37 36 36

GFSCGP_700_spd_084.txt.gz
Wind_Speed
27 28 35 26 24 23 24 21 21 21 16 17 14 21 17 18 19 14 14 13 13 9 11 13 16 6 11 13 16 15 16 15 22 23 21 25 22 19 22 21 28 33 27 27
24 37 27 18 18 22 24 25 28 24 15 12 16 16 18 15 17 15 15 12 13 8 7 9 12 14 17 15 19 19 18 19 15 12 17 22 22 20 22 27 28 28 30 32
37 28 21 21 18 24 25 29 28 22 14 20 10 13 11 12 18 18 18 13 10 5 4 5 7 10 11 19 19 19 20 20 22 24 26 27 29 29 28 29 31 30 27 27
37 31 20 13 21 22 28 17 19 15 11 9 11 10 19 16 23 23 21 17 13 7 3 2 4 4 7 13 14 16 18 18 18 19 19 19 20 19 23 27 25 26 27 29
38 34 34 33 28 20 28 23 17 16 16 17 17 10 22 17 17 25 22 16 13 10 6 4 5 5 5 7 10 12 13 15 16 15 15 14 16 15 15 17 19 21 21 22
35 32 24 29 23 23 22 21 18 16 10 7 8 5 23 18 23 22 24 21 15 15 11 7 10 11 8 9 9 10 11 11 11 12 13 12 12 14 16 17 16 17 18 17
37 41 35 29 26 28 25 24 7 4 3 6 8 9 21 17 15 16 19 19 20 17 10 11 11 12 12 10 9 9 10 10 11 12 12 12 14 15 13 13 13 14 15 17
33 24 41 36 37 30 25 28 14 6 4 4 6 8 12 13 14 23 18 21 15 18 16 12 11 9 10 13 13 13 12 13 11 11 10 10 12 16 17 17 16 17 18 18
17 32 31 40 33 28 26 31 26 20 6 2 6 15 17 12 8 10 10 14 18 18 16 15 15 15 13 12 11 14 17 15 15 13 14 15 16 17 17 18 19 21 21 25
31 9 20 34 29 34 30 27 19 14 7 4 6 16 11 10 18 13 14 11 11 11 14 14 17 18 18 17 17 15 14 16 17 19 21 22 22 21 21 22 23 23 24 27
40 33 17 14 36 32 32 35 21 21 18 6 3 9 18 14 19 16 13 12 13 10 11 12 10 15 19 19 22 21 18 16 16 16 20 23 25 26 26 28 29 27 27 27
41 28 39 38 23 16 31 37 35 20 11 9 18 15 9 13 15 15 10 11 12 13 14 12 12 12 15 19 22 21 21 20 19 17 18 18 21 26 29 30 35 37 34 29
31 34 22 31 40 36 28 20 35 37 32 28 11 12 19 19 15 16 16 15 16 15 14 15 14 13 11 12 15 18 18 19 19 19 20 22 24 25 26 31 37 40 29 16
20 35 45 29 20 26 26 25 25 37 34 28 31 27 22 18 18 17 16 20 15 18 17 17 17 14 14 14 14 16 16 16 18 21 22 23 23 22 26 30 33 35 17 20
16 31 38 37 38 27 21 21 17 40 38 33 35 31 27 21 18 19 18 14 20 18 18 19 23 20 16 18 17 17 18 17 14 19 22 24 24 26 28 33 27 21 20 22
22 21 20 31 34 31 25 31 30 20 31 31 30 27 24 27 22 21 20 18 18 19 17 13 17 20 20 22 21 23 21 19 18 20 22 23 23 26 26 25 26 26 27 27
11 21 24 24 21 28 23 39 33 29 23 14 22 26 27 23 21 21 21 16 19 17 14 15 16 20 24 26 26 27 26 23 23 23 22 22 26 29 29 29 30 31 33 34
18 8 18 12 22 13 30 32 22 29 35 23 19 15 15 14 17 14 14 17 13 18 16 17 19 20 23 25 28 29 28 26 25 27 26 30 31 33 34 36 36 36 37 40
28 27 8 6 16 10 27 19 23 24 27 28 17 19 17 15 17 16 15 14 16 15 17 19 21 25 28 26 24 26 27 27 28 29 29 27 28 29 31 33 35 36 35 32
18 22 22 5 4 8 22 32 16 12 18 20 21 17 19 20 17 15 13 14 18 18 18 22 26 24 26 23 21 22 23 25 27 25 24 23 24 24 26 28 30 30 30 31
13 18 20 21 7 6 8 19 34 18 10 18 19 24 17 16 17 17 18 18 16 17 17 19 19 20 20 18 19 20 20 22 22 22 22 23 24 26 26 26 26 27 26 30
9 13 15 17 12 9 14 6 18 24 19 18 11 13 15 9 8 8 12 14 15 15 14 15 16 17 18 19 19 20 23 24 24 24 24 25 26 26 27 26 25 24 24 26
16 22 18 16 13 17 15 16 19 11 22 21 20 18 15 16 13 13 14 15 16 15 16 16 18 19 20 20 22 24 25 26 26 27 28 29 30 30 29 27 26 26 30 35
19 16 27 20 17 13 7 19 22 17 14 21 26 11 9 10 14 14 13 16 18 20 20 20 19 21 22 22 24 26 28 29 31 31 31 32 32 32 30 29 30 32 36 38
25 26 21 17 20 15 17 14 29 28 26 22 20 19 12 9 9 14 18 19 21 21 22 21 20 19 20 23 25 28 30 32 34 34 35 35 35 33 33 34 36 38 41 43
35 26 29 28 14 18 20 13 14 10 13 26 29 24 16 16 15 18 23 23 23 24 22 21 23 25 27 28 30 34 36 35 34 35 36 36 36 35 37 42 43 45 48 49

GFSCGP_700_spd_087.txt.gz
Wind_Speed
29 33 39 39 33 29 21 15 13 13 13 25 19 14 12 20 19 14 10 9 13 15 16 16 15 2 14 13 9 14 19 21 15 24 23 26 30 34 33 37 37 40 33 33
32 40 36 35 29 29 27 26 22 14 13 22 15 20 17 18 19 12 11 9 9 13 11 12 14 16 11 16 17 17 14 19 16 24 19 23 23 19 27 33 27 26 26 35
40 38 32 38 34 29 29 27 19 17 17 19 18 21 18 16 13 14 17 14 6 8 9 7 9 12 13 15 15 15 15 17 16 17 20 21 24 26 26 29 29 27 29 38
31 35 23 19 33 28 30 23 21 18 19 16 11 10 18 20 14 11 17 18 12 8 5 6 5 7 10 10 12 13 15 18 19 24 25 25 27 25 25 29 29 28 31 32
33 29 38 36 23 25 29 19 21 21 24 23 18 15 18 17 21 15 14 17 13 9 5 3 3 1 4 8 10 11 13 15 19 21 20 20 20 21 24 25 25 25 27 31
35 31 23 31 31 29 18 21 21 23 19 8 16 12 19 14 17 15 14 13 16 12 10 8 8 5 4 3 6 8 9 11 13 16 18 20 20 20 21 22 22 25 27 26
43 37 33 26 22 26 26 24 5 6 6 6 14 11 27 19 14 15 11 10 10 14 11 11 7 5 7 5 4 5 7 6 7 9 11 14 14 15 14 15 17 20 22 21
32 25 37 35 37 27 31 30 13 6 4 5 10 8 13 6 10 16 17 11 13 12 16 14 10 7 6 9 11 8 6 5 7 8 9 11 13 13 15 16 17 19 20 21
9 18 21 31 35 37 37 31 25 29 5 2 7 12 22 16 14 10 12 18 16 14 17 16 17 13 13 12 10 11 13 13 12 12 14 14 14 14 14 15 18 20 22 24
31 32 18 14 18 36 41 22 19 18 7 5 5 11 16 8 5 9 11 11 10 9 13 15 16 16 16 17 17 15 15 21 19 18 17 17 17 17 17 20 21 22 24 27
12 26 29 16 23 27 38 42 29 21 26 8 2 8 23 13 7 14 14 12 10 9 8 7 11 11 11 18 21 21 18 17 23 23 24 23 22 22 24 25 27 28 29 30
10 12 24 41 26 12 29 41 41 27 8 12 20 20 4 10 13 17 12 14 13 11 9 11 10 8 7 8 12 19 20 19 17 19 19 20 22 23 25 26 29 31 34 35
17 5 13 25 30 43 43 25 23 36 27 32 14 17 27 12 13 16 14 12 15 15 14 12 13 12 10 10 11 12 13 15 15 16 18 20 20 22 22 24 26 26 30 36
35 27 25 19 17 19 29 30 26 24 27 23 33 32 31 22 24 21 16 15 13 14 14 16 15 14 12 11 11 7 9 9 12 14 16 19 22 21 22 22 24 25 29 28
36 23 21 26 34 26 19 27 27 28 24 28 32 36 34 29 24 20 17 17 17 19 23 18 16 16 17 17 15 15 14 13 13 15 15 16 19 22 24 25 25 26 25 27
26 25 19 20 20 37 42 36 28 27 18 19 32 39 35 28 31 23 24 21 21 20 22 21 18 15 15 18 17 18 19 19 19 18 19 20 22 24 24 23 24 26 26 27
15 21 14 20 11 17 24 42 41 39 37 17 22 35 30 28 26 22 22 25 22 19 16 19 17 14 14 18 17 18 20 22 23 23 21 23 25 25 26 29 29 29 32 32
19 19 18 7 10 5 19 22 32 41 44 41 32 20 18 28 27 26 22 22 20 18 19 21 15 14 16 17 19 22 23 23 25 25 26 25 26 28 29 29 31 34 38 39
22 23 12 5 17 15 9 16 23 30 35 38 30 29 28 15 17 21 24 22 16 13 15 18 16 19 18 19 22 25 26 23 25 27 28 27 27 28 30 31 33 33 35 35
18 19 20 17 8 8 10 23 9 13 30 33 31 28 19 22 20 20 17 19 16 16 17 18 18 17 18 20 22 22 21 21 26 28 28 28 30 30 28 27 28 30 32 33
12 20 24 20 10 8 9 8 14 15 10 18 23 20 29 16 9 15 17 16 16 19 19 16 14 15 15 17 19 18 18 20 23 26 26 28 27 26 27 28 29 30 32 32
17 9 6 7 6 9 13 10 8 20 25 6 15 23 28 21 22 14 18 21 20 18 14 11 9 12 15 15 17 19 20 22 24 25 26 26 27 29 29 30 31 30 29 29
22 17 17 22 10 13 5 11 18 4 19 22 9 11 23 18 16 16 16 20 16 14 11 9 11 15 18 19 20 21 23 24 26 27 28 29 30 32 32 32 32 32 31 30
25 16 14 9 17 18 12 12 15 21 13 26 15 12 15 19 19 19 18 17 14 13 12 13 15 16 16 17 18 19 21 23 26 28 31 33 34 34 34 34 33 32 32 31
22 16 16 16 18 14 11 14 16 17 23 13 12 7 19 15 16 19 18 14 13 12 13 12 14 15 15 16 21 22 23 26 27 29 30 31 32 33 34 33 31 32 34 39
28 27 19 25 22 23 23 14 23 14 16 23 27 16 19 21 17 17 14 11 10 13 16 18 18 17 18 22 22 23 25 26 27 28 27 27 29 31 29 26 26 33 37 39

GFSCGP_700_spd_090.txt.gz
Wind_Speed
36 36 38 36 37 35 26 20 16 15 16 21 18 21 13 14 19 21 17 9 9 11 16 16 18 13 21 15 18 18 15 13 14 16 24 34 36 27 38 45 49 48 39 48
30 43 36 36 33 34 31 28 28 23 16 22 19 22 17 15 16 17 17 13 9 9 12 12 14 15 10 12 11 21 22 22 17 14 15 32 39 33 47 45 46 44 32 39
32 29 32 37 37 32 34 33 30 26 20 23 23 22 18 13 17 20 17 14 12 6 9 9 11 11 13 5 6 12 17 23 20 16 17 24 29 37 47 33 32 35 29 34
28 31 32 18 34 37 34 33 27 24 26 21 19 9 25 20 21 24 16 10 10 8 7 4 6 7 8 11 12 10 7 11 17 18 19 30 21 26 25 28 26 35 34 29
28 23 27 37 19 28 36 35 23 23 21 25 28 16 27 22 26 25 14 10 10 9 6 4 1 3 5 6 10 12 11 11 9 8 17 23 25 23 23 26 29 32 31 33
32 27 19 18 30 29 12 19 19 19 23 11 23 18 15 15 21 7 10 12 12 12 11 9 6 1 1 5 7 10 10 12 13 13 13 14 14 17 20 21 26 29 29 29
34 32 32 22 19 18 31 25 2 3 5 6 9 14 26 23 23 21 12 6 11 15 13 12 5 2 2 3 6 8 9 9 10 12 12 12 12 13 14 16 18 21 22 22
19 22 44 33 32 20 23 34 12 6 4 4 9 9 13 11 10 11 13 12 12 18 16 14 9 6 3 3 4 5 8 10 10 11 11 11 11 12 14 16 18 17 17 18
5 10 8 24 34 32 28 23 31 23 8 5 9 12 15 20 15 20 17 15 16 14 16 14 13 10 9 6 5 7 9 9 11 13 15 14 13 13 15 15 16 17 19 21
11 15 15 12 15 26 36 26 18 14 5 5 5 8 11 6 6 10 9 12 18 15 12 16 15 13 12 12 11 10 11 15 16 15 15 16 17 17 16 19 20 21 22 24
8 9 12 16 15 17 26 34 29 15 24 5 2 8 21 19 13 11 8 10 11 10 8 9 11 10 12 14 15 18 16 13 15 19 21 20 20 21 22 22 21 22 23 24
23 10 8 24 29 11 13 28 36 27 11 8 17 22 9 16 12 16 11 16 13 11 11 8 6 10 13 11 10 9 14 17 17 17 22 25 22 29 28 26 25 27 28 30
11 5 8 7 14 28 31 27 18 29 29 33 15 11 16 23 12 10 15 11 13 13 13 9 7 9 8 7 8 7 8 10 12 15 23 20 22 25 28 28 29 30 30 31
19 19 16 10 19 23 27 27 37 31 26 30 41 25 24 24 23 16 14 11 14 18 16 15 12 11 10 10 10 3 2 2 4 6 9 15 21 21 23 24 25 26 26 29
15 23 26 30 31 30 35 33 29 41 43 28 29 35 35 30 27 24 27 16 17 17 18 16 16 14 12 13 15 10 8 8 8 10 11 11 10 12 17 21 23 25 27 28
22 23 17 37 37 28 27 37 34 34 36 37 29 26 24 21 27 30 25 26 20 19 18 20 22 20 16 15 16 13 12 13 14 15 15 15 17 17 18 20 22 23 23 25
24 14 13 13 19 27 20 40 41 37 34 30 28 19 17 26 30 27 24 25 26 25 25 18 18 19 19 14 15 15 17 18 21 22 21 21 21 21 22 23 23 25 27 28
26 21 8 9 18 6 13 13 36 39 38 36 38 33 19 16 19 23 25 25 21 23 24 25 21 21 15 15 18 18 19 20 24 25 24 25 27 28 26 26 26 27 29 31
32 25 13 5 9 18 19 5 8 21 33 34 38 39 36 26 22 22 28 27 26 21 22 22 20 21 17 19 21 20 20 25 29 28 27 28 29 30 28 28 29 30 31 33
27 27 25 9 6 5 23 5 12 17 28 20 26 30 29 29 29 17 16 18 21 22 21 22 23 22 22 22 21 20 22 24 24 25 26 28 29 30 31 31 32 33 32 30
23 28 34 31 13 14 22 23 4 13 5 5 14 24 26 21 28 13 16 17 20 21 23 25 27 25 21 19 18 18 16 16 17 20 22 26 29 29 30 32 31 30 30 32
9 7 16 23 14 7 7 13 9 3 11 14 5 11 19 20 23 15 8 14 17 21 24 25 23 20 16 15 13 13 13 15 17 19 21 24 26 27 28 29 30 31 32 33
18 17 10 9 11 15 7 5 10 16 14 12 9 12 17 28 30 23 22 14 21 23 23 23 18 14 13 13 12 12 13 14 16 18 19 22 24 26 28 30 32 32 32 32
23 18 23 20 7 3 8 10 16 13 17 17 7 6 12 19 16 23 21 30 31 28 22 18 16 14 13 12 11 11 12 15 18 19 21 22 24 25 27 28 28 30 31 33
18 22 23 28 23 19 7 11 18 11 19 17 17 12 17 10 12 16 20 26 22 21 21 18 14 13 12 13 13 15 18 20 21 24 25 26 27 28 28 29 29 28 26 26
24 24 27 27 15 15 18 17 13 13 13 17 22 21 23 12 5 13 15 19 26 14 15 12 14 14 15 15 14 17 19 22 23 26 27 27 27 27 26 25 24 25 26 28

GFSCGP_700_spd_093.txt.gz
Wind_Speed
32 37 43 35 33 34 19 20 20 17 12 18 21 20 18 15 15 13 15 15 12 10 13 16 19 23 8 12 15 9 11 9 8 9 13 27 33 30 27 37 42 42 47 45
26 42 40 32 35 32 31 29 33 29 25 20 20 22 17 16 18 15 15 14 12 14 9 12 14 16 2 14 14 14 14 14 13 17 17 19 24 34 36 37 37 36 41 47
32 28 19 32 36 32 31 32 34 33 26 28 24 25 17 15 13 17 18 18 16 13 8 8 10 10 8 5 15 13 23 15 16 15 17 23 25 34 28 33 37 40 39 35
23 27 22 18 27 34 36 35 33 31 23 15 11 11 22 24 22 16 15 15 12 12 9 6 6 7 6 7 7 13 18 19 21 19 16 15 22 33 17 26 32 33 41 40
26 21 17 32 31 20 28 26 26 23 23 24 17 10 15 10 23 14 15 14 9 12 11 7 4 1 3 6 7 8 11 11 19 23 16 16 22 15 22 25 28 33 32 45
30 26 17 16 16 29 12 12 13 12 14 11 19 14 14 13 10 10 2 9 13 15 14 12 6 3 2 4 6 7 8 9 10 11 14 22 23 23 21 23 30 23 24 24
29 29 23 24 16 14 29 13 3 4 6 7 12 14 24 14 21 15 13 10 11 18 17 14 8 5 4 3 4 5 7 8 9 11 12 14 17 21 19 19 22 25 26 29
8 7 33 29 30 19 20 30 11 6 5 4 11 9 13 9 11 9 7 9 11 17 20 16 12 9 8 6 4 4 5 6 7 8 9 11 12 14 15 17 20 19 18 20
3 6 7 20 36 31 20 22 24 20 14 5 7 8 8 10 21 18 13 14 14 17 20 18 16 11 8 6 6 6 6 6 7 7 7 8 9 11 12 14 15 16 17 20
5 7 11 7 10 22 29 16 10 15 6 10 7 10 10 2 6 8 11 10 15 20 19 20 20 16 11 11 10 9 10 11 11 12 12 10 9 9 10 12 14 15 17 19
12 5 7 11 9 14 17 30 21 11 18 7 7 7 13 12 6 12 9 8 11 20 17 16 17 16 15 14 15 15 14 13 16 18 17 16 16 15 16 16 16 17 20 21
14 8 8 18 22 11 8 12 28 24 12 9 17 21 9 9 5 14 11 11 11 10 14 14 15 17 14 12 15 14 13 15 17 15 19 22 21 20 22 22 22 24 25 25
9 5 4 5 8 13 16 14 15 19 26 32 14 8 13 23 16 14 9 10 14 13 15 18 13 11 13 12 9 13 11 13 15 16 19 21 22 22 29 24 25 28 28 29
17 14 13 10 7 17 20 17 15 16 18 22 37 28 17 26 25 20 15 12 13 15 16 21 16 11 11 11 8 8 7 11 12 13 13 15 18 23 18 21 25 30 30 31
14 16 17 18 20 24 29 27 24 28 36 25 27 27 24 28 32 24 19 15 15 13 14 20 19 15 13 11 11 13 8 7 7 7 7 6 11 14 19 24 26 25 26 28
12 11 14 18 18 18 28 30 32 39 38 37 32 37 29 16 17 26 27 25 22 32 16 22 21 21 18 16 14 15 16 12 12 11 11 13 14 17 18 19 23 25 28 30
16 12 8 6 4 11 19 33 24 34 42 37 30 32 27 26 24 24 24 26 26 22 26 22 22 22 25 23 19 18 21 20 19 19 21 21 21 23 26 26 26 25 26 28
23 18 15 10 10 8 16 16 17 15 30 42 39 30 21 23 18 21 29 32 28 26 28 29 29 26 25 25 26 21 23 24 24 23 25 27 28 28 28 31 29 29 28 30
27 25 14 8 11 21 24 9 10 18 21 25 37 37 34 30 29 28 24 21 28 28 27 26 28 30 29 27 25 24 26 26 27 26 28 31 30 30 31 32 30 31 31 31
20 31 25 13 6 6 9 9 16 24 26 8 12 20 28 32 39 43 26 22 22 30 29 31 29 25 29 29 27 26 27 25 24 27 27 27 27 28 29 31 30 30 30 31
4 18 28 27 15 12 15 15 14 13 12 8 6 8 18 23 30 32 36 26 22 24 30 29 26 29 30 32 29 26 23 23 21 19 17 18 20 24 27 28 29 30 31 33
8 8 16 20 15 14 6 7 8 16 16 9 5 5 4 20 18 16 19 26 24 15 18 24 26 28 29 27 24 20 19 16 17 16 16 18 20 22 24 26 27 28 29 30
18 23 13 8 17 15 5 14 10 10 21 12 11 4 3 10 15 23 20 24 10 11 19 23 22 23 24 20 17 16 17 18 16 15 16 18 21 22 23 25 26 28 29 30
23 20 25 21 13 9 2 20 11 9 12 15 16 14 16 10 11 21 28 23 14 13 20 17 17 18 23 24 17 19 18 18 16 16 19 20 20 21 23 25 26 28 29 29
16 15 18 23 24 26 24 11 6 3 9 12 15 15 17 14 13 10 21 27 31 20 18 20 21 24 20 18 21 19 16 17 17 18 19 20 21 24 25 26 26 27 26 25
24 23 25 27 21 24 24 18 18 14 9 8 9 15 19 19 20 16 11 15 18 24 24 25 20 19 20 21 21 14 14 15 17 18 19 21 23 23 23 22 22 21 21 21

GFSCGP_700_spd_096.txt.gz
Wind_Speed
23 31 35 31 30 30 24 19 19 17 12 13 16 22 23 20 18 17 17 15 11 13 18 14 17 21 25 5 11 10 11 8 2 7 9 15 32 42 42 39 47 39 41 35
18 30 28 26 30 28 30 26 24 22 19 20 23 24 20 23 22 21 20 19 15 13 16 13 14 17 18 3 10 12 10 8 6 7 12 21 23 25 36 42 40 38 38 41
29 16 11 24 28 29 31 31 27 26 19 21 23 28 26 22 22 22 21 22 19 17 16 13 10 12 11 7 9 11 14 8 7 7 8 18 23 27 28 37 38 38 40 44
26 28 23 19 24 27 30 24 26 23 20 19 10 17 17 18 23 22 22 22 15 14 15 14 8 7 7 6 2 11 15 15 9 13 9 12 14 13 22 30 28 38 36 44
21 21 27 26 26 21 23 17 22 20 21 23 25 17 18 16 17 14 16 18 16 11 14 14 8 5 3 2 4 2 5 14 20 20 20 18 12 19 16 21 23 27 32 35
27 16 19 20 19 21 14 13 11 10 13 18 24 20 16 20 14 6 7 5 12 15 16 17 11 8 2 1 3 5 5 3 9 19 20 18 17 21 25 17 24 21 34 28
23 32 22 21 15 17 17 13 8 9 9 8 10 17 25 9 13 14 12 14 16 16 19 20 13 11 8 4 5 6 6 6 7 6 13 17 18 22 22 17 26 24 24 25
6 5 28 23 28 17 22 25 12 9 10 8 14 11 18 11 11 12 9 7 12 15 18 20 14 14 12 9 6 6 7 8 7 7 9 11 15 18 22 22 24 24 28 27
4 6 7 19 25 24 18 27 26 25 19 9 12 10 13 13 12 11 15 11 14 16 18 21 18 14 12 12 10 8 6 8 8 8 8 10 12 13 13 16 18 20 22 25
4 7 4 5 7 23 27 10 14 20 9 15 15 18 12 11 11 7 9 10 14 17 21 23 21 17 13 13 12 11 11 9 8 8 9 9 9 10 11 11 11 12 14 18
7 5 7 8 8 9 20 27 19 14 22 11 11 12 12 18 15 8 10 12 14 18 24 23 24 22 18 15 15 13 12 12 13 12 12 11 11 10 10 10 11 12 14 15
6 6 9 13 10 11 10 11 24 27 22 19 23 22 3 11 9 8 5 7 9 12 22 21 21 24 20 18 17 17 16 16 15 16 19 17 16 16 15 14 13 14 15 16
6 6 8 6 9 17 11 9 11 12 15 29 18 6 5 16 19 16 13 5 8 10 15 19 18 20 19 18 16 16 17 15 15 17 18 20 22 22 19 17 19 20 20 21
10 9 12 13 5 4 7 8 11 7 11 20 28 26 27 22 16 19 13 13 10 11 15 17 18 18 18 18 17 15 16 17 18 18 20 22 20 22 25 25 26 29 25 26
13 17 15 19 23 23 22 22 21 21 20 22 23 24 19 20 25 24 18 17 13 14 15 16 23 20 16 17 17 15 15 12 15 16 16 14 16 19 23 27 24 27 29 28
14 15 13 18 19 22 26 29 30 30 26 29 34 42 30 25 20 26 24 28 23 18 18 16 22 24 22 18 17 14 17 14 12 14 14 15 16 18 18 19 21 27 29 31
11 9 9 15 9 15 22 33 33 35 31 27 31 32 25 30 29 25 22 18 25 26 24 23 20 21 22 22 20 17 18 21 18 19 20 20 21 21 22 24 25 27 29 29
16 13 7 10 10 9 13 9 16 26 25 21 22 25 28 20 21 24 25 24 26 25 27 27 28 27 24 26 25 26 24 23 26 26 25 25 26 27 28 30 32 33 32 34
25 21 10 8 13 21 23 9 11 15 15 16 15 12 19 25 22 26 27 25 28 30 34 33 34 33 34 31 29 30 30 30 27 28 30 31 30 30 30 30 31 31 31 32
23 23 20 12 10 6 7 3 14 14 19 13 15 3 8 19 29 28 25 30 30 28 30 36 31 35 33 35 35 35 31 32 30 31 30 28 28 30 30 29 31 33 33 32
17 21 29 26 20 14 16 15 8 11 10 15 15 11 4 13 19 25 33 37 40 35 32 31 33 32 31 31 35 37 36 33 32 31 28 27 29 26 25 24 27 30 32 33
7 8 9 15 12 17 11 16 6 10 9 15 15 21 1 9 18 23 24 31 35 35 38 29 40 40 34 32 29 38 38 33 30 26 25 25 24 24 24 26 29 30 32 33
20 19 10 11 11 12 16 18 8 8 14 18 14 3 5 8 10 15 15 17 20 30 31 26 29 36 34 29 33 26 26 25 22 20 21 24 25 21 24 26 26 28 29 31
14 13 13 11 9 11 20 15 10 14 18 18 6 13 9 13 6 18 16 16 13 16 22 19 23 23 24 29 28 26 24 23 23 23 24 23 20 22 22 23 24 26 28 29
12 11 10 14 15 16 13 13 19 16 12 15 11 5 12 18 15 11 25 22 24 21 16 19 22 23 22 20 20 24 25 26 29 24 22 18 17 20 22 23 24 26 28 27
16 15 18 22 17 18 19 20 16 16 14 14 10 9 14 17 15 13 14 21 28 25 21 18 18 18 20 21 22 22 24 25 24 20 16 15 18 20 21 22 23 23 22 22

GFSCGP_700_spd_099.txt.gz
Wind_Speed
19 21 32 32 31 33 31 32 31 23 19 20 23 24 22 22 23 24 21 19 18 18 16 19 18 19 22 24 14 8 9 12 15 12 8 19 35 40 39 45 51 42 44 50
22 32 26 25 29 32 33 36 36 29 26 22 23 26 27 26 25 24 23 21 20 18 19 19 17 16 18 19 13 10 7 5 12 14 9 6 8 22 41 50 44 39 40 45
29 26 18 18 25 31 35 36 33 32 28 28 25 31 29 28 28 27 24 21 19 19 20 22 18 14 15 13 13 9 10 8 10 6 5 3 13 13 33 45 45 45 31 44
33 30 29 24 23 26 33 28 29 30 29 31 25 27 26 20 17 20 21 21 20 18 19 23 17 12 12 9 9 8 11 9 9 4 7 8 24 23 21 24 28 35 47 41
30 22 24 33 30 31 29 21 23 24 27 27 31 28 24 21 24 23 20 19 21 20 19 20 16 11 9 7 5 5 4 6 10 7 6 12 13 28 25 27 31 36 30 36
34 27 19 20 23 28 23 19 22 20 23 23 28 29 28 26 20 13 13 14 15 19 20 19 17 13 8 6 3 2 2 2 5 13 15 14 12 12 13 16 28 28 30 32
19 30 34 23 18 20 23 21 15 15 16 14 22 24 26 18 17 13 13 10 13 14 20 20 19 15 10 7 3 1 1 3 5 1 10 14 15 15 19 21 21 27 28 27
20 17 18 32 32 23 24 27 19 14 10 12 22 15 24 17 22 18 16 13 15 15 21 20 20 16 13 11 6 4 3 3 5 8 3 7 16 16 23 21 15 20 24 27
9 14 5 15 29 27 27 30 29 31 26 16 10 15 17 10 12 11 11 11 13 15 19 18 19 18 14 12 10 7 4 3 4 6 7 6 7 11 13 20 22 16 22 19
6 11 7 4 14 21 29 21 23 29 17 20 21 24 16 11 12 13 10 10 13 15 18 19 20 20 15 11 13 12 9 7 5 6 7 7 7 8 9 11 13 16 19 22
10 12 11 6 12 14 21 31 24 22 26 15 12 15 11 16 10 9 5 8 13 14 16 20 20 23 19 13 14 12 11 10 9 8 8 8 9 10 9 8 9 10 11 13
9 8 16 19 13 9 7 22 30 24 22 21 25 22 3 4 7 9 5 5 7 9 14 20 23 25 23 18 13 13 13 12 11 12 13 13 13 13 13 13 12 12 11 12
6 11 15 18 18 20 16 16 17 22 27 31 18 15 16 18 12 10 13 6 5 8 8 18 22 23 25 22 17 16 17 17 17 17 16 17 18 17 15 15 15 15 14 15
14 16 16 17 7 7 10 14 13 16 19 21 27 27 27 17 15 14 12 12 8 10 7 11 20 21 21 23 19 18 17 17 17 16 18 20 19 20 20 20 19 19 19 17
17 21 21 24 31 22 19 18 19 21 22 22 21 21 19 17 18 20 20 19 13 10 9 10 16 17 19 22 22 21 19 17 18 19 19 21 22 21 21 22 24 24 24 24
20 25 21 26 27 28 30 31 29 28 26 27 26 29 25 27 28 28 21 19 21 17 14 11 14 21 23 23 22 22 20 18 15 12 15 16 17 18 19 18 20 24 24 24
17 15 16 21 20 24 29 31 33 36 33 32 30 27 22 24 25 29 33 27 22 20 22 18 15 17 21 25 23 23 21 20 18 15 14 16 16 16 17 18 20 21 24 29
19 14 12 10 10 13 20 12 15 18 23 28 33 29 27 27 28 26 28 26 21 19 19 22 20 20 23 23 24 24 23 21 25 23 21 22 23 23 24 25 27 28 30 32
27 23 10 13 15 17 20 13 11 15 14 10 15 17 18 13 17 25 21 20 24 25 25 25 25 28 29 29 24 23 26 31 30 32 30 29 29 29 28 27 27 29 30 32
25 24 23 10 12 11 8 2 11 8 14 3 8 6 12 14 12 15 19 24 31 29 32 28 29 32 28 32 39 35 33 30 31 33 31 30 32 31 31 30 28 28 30 32
29 25 24 23 15 14 18 18 20 11 6 10 11 14 16 16 13 16 25 29 35 33 34 31 30 32 36 35 38 37 39 39 32 28 34 33 32 31 27 27 27 27 26 27
15 17 15 18 10 11 9 12 13 13 16 18 16 18 21 25 11 17 30 33 36 38 37 36 35 33 33 29 33 37 34 35 38 41 38 32 31 30 28 26 25 25 26 28
9 13 6 11 8 9 12 12 17 18 18 11 13 9 25 20 7 16 17 26 31 35 34 36 40 39 39 33 33 33 31 32 31 35 32 31 28 25 24 23 22 23 26 27
9 8 8 11 9 9 13 19 27 10 10 14 20 22 17 4 4 9 14 12 15 17 18 25 29 32 33 34 32 32 33 35 32 35 34 26 23 19 23 24 25 25 24 26
8 8 8 12 10 12 8 10 21 19 19 19 21 10 9 13 9 10 14 17 15 15 8 10 22 24 25 26 31 31 30 31 31 30 26 24 24 27 30 31 27 22 24 28
12 13 13 12 14 13 13 14 16 16 13 17 16 17 9 15 16 6 10 14 22 22 21 19 16 22 26 29 29 29 29 26 24 27 23 21 17 20 19 16 18 24 25 26

GFSCGP_700_spd_105.txt.gz
Wind_Speed
18 21 26 24 27 30 34 32 33 34 30 28 29 38 43 37 24 29 30 28 28 27 24 27 28 23 23 22 23 22 16 3 8 10 11 13 17 20 25 28 30 32 35 38
19 32 24 19 17 24 30 34 37 37 27 31 36 47 49 37 24 25 31 26 22 23 28 30 30 24 20 20 22 20 14 7 7 10 12 13 17 20 22 28 34 35 33 31
26 29 11 23 25 25 30 34 30 32 28 31 33 44 41 35 27 31 30 32 28 27 28 28 28 23 20 20 20 18 13 7 8 9 13 16 21 26 34 35 37 40 39 35
27 28 27 25 32 29 33 29 30 32 31 24 18 28 38 35 31 25 29 30 25 32 35 26 26 21 22 22 17 15 12 8 7 10 14 13 18 19 22 30 43 45 43 35
26 20 19 30 36 28 32 25 25 22 25 25 27 29 32 27 31 35 29 24 22 33 36 32 29 29 27 21 17 12 9 8 6 8 13 12 13 16 15 26 42 49 46 41
31 27 28 32 27 25 27 31 28 29 24 17 23 25 26 33 35 31 27 19 21 21 34 32 32 28 27 18 16 10 7 6 6 6 11 9 9 9 8 22 32 39 38 35
20 23 18 24 31 27 24 20 5 4 7 12 18 24 30 32 27 26 25 25 24 30 33 28 33 31 20 17 15 9 5 4 4 4 6 7 6 9 6 12 26 31 32 36
27 24 26 17 31 28 33 25 13 7 4 10 18 11 14 24 29 33 33 23 22 25 22 26 28 24 22 17 15 10 5 2 2 2 4 5 8 9 7 12 14 17 23 21
12 20 22 22 13 28 30 25 30 25 24 13 11 24 32 22 23 17 19 21 17 16 18 20 20 19 17 16 13 10 7 4 0 1 3 5 7 11 10 9 19 23 21 22
7 8 17 11 12 10 22 27 21 19 4 6 9 20 20 25 14 8 11 14 3 20 19 20 18 15 15 18 13 12 11 7 4 3 3 6 8 9 11 14 11 18 21 18
6 3 16 15 8 13 9 17 23 16 15 4 3 6 2 7 18 16 9 16 8 8 24 25 18 9 13 19 15 11 13 9 7 5 4 6 6 8 8 12 15 15 16 20
6 6 14 23 19 15 17 19 13 21 15 17 20 22 25 25 16 10 8 14 3 4 22 26 19 12 14 20 18 10 14 12 10 8 6 4 5 6 8 10 11 11 13 18
10 3 10 15 28 24 12 16 23 22 29 32 13 18 7 12 24 15 7 7 5 11 1 24 23 13 9 17 20 16 13 14 11 9 7 6 5 6 7 8 10 11 11 11
11 12 15 11 20 22 27 23 17 15 10 12 19 34 14 16 15 19 1 14 14 8 9 18 22 17 18 14 22 21 18 15 14 11 9 9 8 9 10 10 10 11 11 11
18 21 23 29 36 37 33 34 29 25 12 8 19 28 26 15 13 14 8 15 17 14 8 4 10 24 18 20 18 25 23 18 16 14 12 11 10 11 13 14 13 13 13 13
23 23 21 27 28 34 36 35 34 29 26 21 24 26 15 19 20 11 15 18 19 13 13 9 15 16 30 18 17 19 26 23 18 16 14 14 14 13 13 14 16 16 15 17
18 17 18 31 27 31 33 33 31 33 29 23 28 20 20 26 17 19 18 16 17 17 19 15 11 19 21 32 12 17 19 24 22 20 18 15 15 15 16 16 17 19 19 18
28 22 19 25 17 13 36 25 25 25 21 21 17 22 17 15 13 18 19 21 20 18 17 19 14 21 17 24 27 13 18 22 23 23 21 19 16 17 19 20 20 20 19 21
34 30 16 12 11 19 20 7 4 18 21 11 16 19 19 17 14 17 18 22 21 20 20 17 12 13 14 20 26 19 16 17 20 24 25 23 22 21 20 22 24 25 25 26
27 28 26 16 5 5 8 1 2 9 6 11 12 14 20 18 18 20 22 23 19 15 18 19 18 16 17 17 20 19 20 20 24 24 24 28 24 24 27 28 28 29 30 30
25 29 31 26 14 14 15 16 6 4 3 8 9 11 16 11 13 20 24 26 27 25 21 18 20 21 17 14 13 16 21 23 24 24 23 24 29 31 33 36 34 32 33 32
19 23 22 22 10 13 15 8 6 5 9 15 19 20 21 17 16 21 27 27 28 34 34 29 24 20 18 16 18 21 23 26 25 26 28 26 32 27 31 38 32 28 29 33
10 19 14 17 17 8 12 6 4 7 12 18 11 10 15 20 22 22 27 28 31 31 30 33 34 30 25 23 22 21 24 25 25 24 27 31 35 38 36 34 38 35 38 38
19 24 12 19 19 16 15 15 11 7 14 15 5 9 13 13 11 11 18 23 28 32 30 24 26 29 31 31 29 29 29 30 30 29 29 29 37 40 41 43 39 38 35 35
16 9 9 17 6 9 11 3 4 13 17 14 12 9 8 4 3 8 15 14 16 24 29 17 12 15 22 26 32 35 35 33 30 30 30 34 34 32 35 36 36 34 37 33
12 11 9 8 10 6 7 12 13 12 12 15 16 18 12 4 15 12 15 20 19 12 17 16 16 15 12 17 23 26 28 27 28 28 31 31 33 34 35 35 39 42 32 29

GFSCGP_700_spd_111.txt.gz
Wind_Speed
20 28 39 39 32 33 33 34 36 33 29 28 33 35 33 28 28 34 38 38 39 39 30 25 26 27 22 24 26 26 27 23 22 24 19 18 20 14 5 6 18 40 45 40
24 36 33 26 26 26 27 30 35 33 21 18 28 41 38 32 33 34 37 35 30 39 34 24 25 32 32 27 28 24 26 22 20 23 18 19 18 13 10 8 8 25 35 42
32 28 11 31 31 27 27 29 28 28 24 26 31 46 42 34 34 32 33 31 35 31 36 28 27 21 23 27 27 25 24 21 19 22 18 18 19 17 17 18 19 14 31 38
33 34 30 26 21 18 27 25 23 25 27 25 26 25 49 37 35 33 32 34 26 20 21 24 23 25 24 18 24 26 24 19 19 21 18 16 18 18 16 20 21 23 23 38
32 25 21 25 32 27 37 25 24 26 29 30 32 13 49 29 43 43 37 33 29 25 23 27 25 21 23 24 22 26 24 18 19 19 17 17 18 19 19 21 22 24 28 37
28 24 20 20 16 14 17 16 18 22 20 13 31 17 50 31 33 37 39 26 28 28 25 29 32 27 25 29 28 27 25 18 19 18 17 17 18 21 23 23 26 28 31 38
27 29 27 24 24 20 22 23 3 4 4 11 21 20 35 33 33 27 22 30 36 28 24 31 37 31 23 28 32 29 22 20 18 17 16 17 19 21 23 24 26 30 33 40
12 8 14 15 12 9 11 11 11 6 5 8 19 8 14 26 26 30 37 40 30 30 22 31 35 26 22 30 33 30 20 19 17 15 15 16 18 19 20 19 21 28 32 38
6 12 11 11 11 10 12 17 14 24 24 7 16 22 30 26 21 24 24 25 23 22 15 24 30 24 22 30 34 27 19 19 17 14 13 12 15 14 15 13 17 18 23 31
17 20 23 18 12 10 5 5 4 5 3 6 7 7 16 22 16 21 29 30 22 19 28 25 27 29 26 29 33 26 21 20 16 14 10 10 10 10 13 12 11 10 11 22
8 12 7 6 5 5 11 6 1 2 6 3 4 6 4 11 21 23 28 28 31 18 11 10 17 18 28 31 33 25 24 21 17 13 9 7 7 7 9 10 7 13 12 7
5 3 6 8 6 7 5 2 3 4 6 9 7 8 16 17 20 26 31 35 34 7 8 6 8 12 23 31 32 26 25 20 17 15 10 8 7 6 8 6 8 7 11 11
6 2 4 3 2 6 2 3 5 5 2 9 7 8 14 20 25 27 24 32 36 26 5 4 8 24 30 32 31 29 27 22 19 16 13 10 8 8 9 10 9 9 10 12
8 8 8 8 4 11 15 12 17 8 8 11 17 33 26 20 22 23 19 25 32 11 8 8 10 26 27 35 31 28 29 25 22 19 16 12 10 9 10 11 11 11 8 7
7 12 14 17 15 14 19 25 21 20 23 16 38 38 31 20 23 23 18 20 26 18 4 4 11 13 32 31 26 27 28 27 26 23 19 14 12 11 11 10 12 14 14 12
10 9 11 17 15 17 24 28 30 29 30 32 36 37 26 21 18 21 16 20 23 14 7 11 8 7 26 27 23 23 27 28 28 27 24 20 16 15 14 13 12 13 15 17
17 13 8 11 11 13 20 32 21 24 22 24 30 30 27 28 25 16 21 20 28 26 21 14 7 14 17 18 22 25 27 28 29 29 28 25 22 19 18 17 18 18 16 16
21 20 15 13 12 7 19 12 15 21 27 27 29 23 24 26 20 20 18 19 22 19 15 18 19 9 13 10 20 11 17 25 26 29 31 29 26 25 24 23 21 21 20 20
21 25 15 9 13 23 32 22 13 12 24 19 19 20 23 24 23 18 17 20 16 16 14 15 11 10 14 13 14 20 14 15 26 29 28 29 29 28 27 27 25 24 24 24
9 17 28 16 5 5 6 6 7 20 30 13 11 15 16 9 9 14 20 18 15 16 19 15 17 12 13 12 20 22 25 23 13 27 32 29 27 30 28 29 29 28 27 27
15 18 31 25 12 14 23 17 20 12 12 8 3 3 6 8 8 11 11 13 13 13 16 19 19 17 15 14 10 18 21 22 16 14 21 30 23 17 22 27 29 30 30 31
15 7 11 14 14 11 4 5 6 8 10 7 3 7 7 7 8 11 12 16 16 15 16 16 19 21 23 18 16 14 21 21 19 20 20 29 28 20 16 16 22 28 31 34
7 18 4 12 11 10 7 9 15 2 8 7 9 7 6 10 12 13 12 13 15 15 17 18 19 18 22 20 18 19 19 19 17 21 23 26 22 22 29 19 21 24 22 23
26 29 7 11 13 16 16 11 10 5 3 3 6 8 10 10 15 12 12 11 15 16 17 21 18 16 18 21 19 20 22 20 20 23 21 20 13 16 18 21 23 32 32 38
18 23 27 4 9 3 6 11 6 4 6 6 6 9 12 14 16 11 8 9 11 16 21 12 16 17 14 15 18 19 26 27 23 22 23 21 21 23 24 27 28 32 29 33
18 23 25 21 17 13 13 9 6 0 5 4 5 8 14 14 13 8 11 10 14 18 22 12 8 9 9 10 13 17 23 30 30 31 31 29 29 29 26 28 30 33 47 44

GFSCGP_700_spd_117.txt.gz
Wind_Speed
26 34 43 38 37 34 32 28 26 12 10 17 27 35 32 26 24 22 19 19 22 23 23 28 29 31 32 32 33 30 33 28 29 26 25 27 26 27 31 24 22 26 27 31
24 36 34 31 30 30 30 33 36 34 31 29 30 36 27 22 21 18 15 15 16 20 23 25 26 30 30 29 26 31 33 29 27 25 22 25 26 26 28 23 22 24 27 30
31 30 13 26 28 26 29 33 32 28 20 23 27 34 20 10 6 9 5 15 18 19 23 22 22 24 24 24 26 28 28 26 27 25 22 25 25 25 25 20 18 23 20 18
27 30 30 24 21 20 25 25 28 26 17 11 8 9 10 9 7 3 12 12 19 20 17 16 15 21 22 23 25 28 29 30 28 27 24 25 24 26 21 18 16 21 16 14
31 29 27 29 36 35 40 26 10 10 17 15 17 10 9 13 9 5 7 15 20 20 20 19 20 21 23 20 22 30 25 26 25 25 26 24 24 26 19 18 17 20 16 7
29 28 20 20 18 21 22 16 12 11 12 8 18 16 7 11 3 11 9 18 23 22 21 23 21 16 16 22 16 24 30 26 22 23 24 22 24 25 19 17 17 19 18 12
13 20 32 21 13 13 25 15 5 5 6 6 11 15 6 10 7 7 14 14 13 20 20 24 24 19 14 15 25 19 20 26 23 25 24 22 23 25 19 17 18 19 21 19
7 9 7 23 31 24 21 25 9 8 7 4 12 8 7 7 3 4 5 7 16 18 23 22 23 25 22 18 24 29 25 19 26 28 24 22 23 24 18 17 17 19 20 19
12 5 4 3 18 28 22 23 27 15 4 3 7 7 7 6 7 6 11 8 15 19 23 24 27 30 29 23 26 29 32 25 28 29 25 23 21 23 17 16 16 18 20 21
10 8 8 9 1 6 12 17 9 8 7 8 7 6 7 7 6 7 10 15 17 22 27 28 28 33 33 27 28 28 34 37 32 30 26 23 21 22 17 16 15 15 19 23
9 3 10 6 5 10 9 9 6 9 4 5 4 4 13 4 6 11 20 21 25 27 29 32 33 30 31 29 29 30 32 35 35 33 28 25 22 21 17 14 14 15 18 22
9 5 6 14 7 2 11 16 11 8 6 4 1 6 9 10 10 15 23 25 25 29 31 26 29 35 28 29 31 27 32 32 33 32 27 25 22 20 16 13 14 15 15 20
9 4 4 4 6 2 4 2 5 3 6 4 4 5 9 12 19 19 27 31 27 27 34 35 34 39 27 27 25 26 28 34 36 32 27 26 21 18 14 13 15 15 16 18
10 12 8 7 12 11 8 10 11 8 4 2 12 19 23 24 26 26 31 34 27 24 31 29 33 35 24 22 15 21 26 34 36 31 26 25 21 19 15 15 14 14 15 18
14 14 18 19 17 18 19 22 22 19 17 12 23 25 28 26 33 37 37 35 24 24 28 24 32 33 24 10 11 13 24 31 32 30 26 26 22 21 17 15 15 13 12 12
14 16 15 15 16 21 20 25 28 28 27 29 31 33 29 30 32 34 35 29 24 22 21 20 29 25 10 4 5 13 21 31 32 30 27 28 25 23 19 17 17 15 13 11
17 16 10 21 14 12 13 27 26 27 29 28 24 25 26 32 29 24 26 24 20 18 20 19 26 24 25 18 4 12 21 33 32 27 30 31 27 23 20 18 18 16 14 12
24 21 13 12 7 10 18 22 15 16 17 19 23 27 31 33 30 26 25 19 17 20 19 20 18 18 22 30 20 14 18 31 35 30 32 33 30 26 23 21 18 17 16 14
15 21 11 8 11 16 21 20 19 22 23 21 25 27 29 29 27 27 24 20 18 22 21 23 19 25 17 25 27 10 13 29 36 32 34 34 31 28 25 23 20 18 18 17
10 16 20 12 6 5 2 5 2 6 18 13 17 25 15 13 16 13 15 17 21 23 22 21 17 22 19 23 24 20 8 27 32 30 32 32 30 27 26 24 22 21 20 20
14 10 25 29 10 8 9 10 15 8 8 16 19 4 5 10 12 9 9 10 12 15 17 18 17 18 14 18 20 12 15 21 25 35 33 29 27 25 25 23 23 24 23 22
11 9 4 7 8 7 7 2 2 6 15 19 15 13 4 1 6 5 6 11 14 15 19 19 22 21 17 15 19 11 10 9 20 28 33 29 24 23 23 21 19 22 24 25
11 21 12 6 7 8 8 11 13 12 21 3 4 5 7 10 7 7 7 10 11 12 14 16 19 22 22 17 17 12 9 8 8 21 28 32 29 29 29 19 21 24 25 25
24 23 16 8 12 11 11 16 17 12 11 2 5 6 8 10 12 11 10 11 11 12 13 12 17 20 19 19 17 14 10 10 19 7 14 22 43 53 51 35 32 21 20 21
13 23 24 18 21 7 3 9 10 9 9 10 7 1 6 9 10 13 14 8 10 11 12 15 18 18 14 15 16 14 15 17 19 22 21 5 20 27 38 34 23 18 25 10
22 26 20 17 24 23 22 19 15 8 2 4 3 1 4 8 11 13 16 9 11 12 13 16 17 16 9 10 12 13 14 19 21 21 19 20 23 25 20 19 21 23 21 19

GFSCGP_700_spd_120.txt.gz
Wind_Speed
17 28 38 31 29 29 27 27 26 23 18 22 26 24 21 21 22 25 23 18 16 19 17 24 28 31 32 33 35 33 32 31 33 34 29 28 27 28 25 29 30 27 28 27
18 31 28 27 28 27 28 30 33 27 21 20 25 30 28 24 24 19 17 17 14 19 20 22 25 27 29 28 30 31 29 29 31 33 29 29 27 24 25 29 30 27 26 26
30 22 14 23 24 26 28 31 28 26 20 23 22 29 26 20 20 19 16 15 16 16 17 18 19 21 23 25 25 25 26 27 31 32 30 29 25 27 25 24 27 26 23 24
27 26 27 17 18 21 27 23 22 21 17 24 15 14 9 11 10 13 11 12 11 11 13 15 16 15 19 23 22 22 27 29 31 28 26 24 23 23 22 25 26 28 25 24
19 14 19 27 31 23 24 14 16 16 23 22 23 13 18 11 19 12 10 12 8 10 12 13 16 17 17 21 20 22 28 30 26 29 27 26 25 23 22 24 26 27 22 23
20 20 19 17 19 22 24 18 13 13 16 20 24 21 15 18 21 11 9 11 8 10 11 14 16 15 16 19 17 22 23 25 27 26 27 28 27 23 22 24 25 26 21 22
16 17 19 24 20 19 18 17 11 11 12 17 17 16 20 11 12 12 13 10 9 10 12 16 19 18 15 17 18 21 24 18 26 26 27 29 26 22 22 24 23 25 21 21
12 11 4 7 26 21 19 25 17 12 14 17 15 12 10 11 11 14 11 10 10 12 14 19 20 21 21 18 18 22 26 23 20 29 28 28 25 23 24 23 23 23 21 21
11 12 6 1 5 24 25 28 30 21 14 10 13 6 9 11 10 8 7 8 11 14 15 18 25 25 23 23 21 22 26 23 24 24 30 29 27 25 24 24 23 22 21 20
9 14 9 13 10 9 27 23 24 22 17 21 24 22 14 18 12 7 2 6 10 13 17 22 24 25 25 25 26 24 27 28 25 27 27 27 27 28 25 25 24 20 20 20
12 13 16 11 8 9 9 18 17 17 29 16 16 19 14 21 13 5 4 9 12 14 18 21 26 25 29 25 28 28 27 29 29 25 29 26 31 29 25 24 23 18 19 20
9 12 15 14 9 3 6 14 7 7 17 21 13 7 15 17 11 8 9 17 19 20 21 24 30 30 30 33 28 30 29 29 32 28 29 27 32 29 24 23 22 18 20 20
8 8 12 15 11 8 2 3 2 6 8 12 12 13 12 11 9 11 18 22 23 24 22 25 28 28 31 31 31 30 29 25 29 32 31 31 35 30 23 22 22 18 22 21
9 11 13 16 12 9 9 9 7 5 5 7 15 13 6 10 14 16 20 23 27 27 26 24 26 21 26 30 29 31 25 25 29 31 30 37 32 28 23 23 23 20 22 19
13 17 17 18 22 18 18 17 15 13 13 15 18 17 18 17 20 22 26 26 29 29 23 23 23 18 22 26 26 28 24 21 28 27 32 38 33 28 25 24 23 21 19 15
11 14 14 19 20 18 21 21 21 18 19 21 23 25 20 21 20 20 22 21 25 20 19 20 18 16 20 24 26 22 26 19 25 26 36 36 33 29 26 24 24 21 18 15
13 10 13 18 14 17 19 25 23 24 22 21 23 25 25 23 22 24 24 21 19 18 20 19 16 16 17 19 25 17 26 14 23 28 35 35 32 31 27 25 25 23 19 16
20 18 16 17 13 12 17 15 14 15 17 18 21 24 25 24 25 25 21 19 20 22 20 20 19 19 21 21 24 23 20 10 24 32 32 33 34 33 28 27 26 25 22 18
16 18 16 14 15 17 22 10 12 15 19 17 21 20 24 29 29 23 18 21 23 21 21 21 22 21 23 20 24 20 23 14 19 32 35 34 36 34 31 29 28 26 24 21
12 14 18 16 7 4 7 5 8 7 17 9 19 20 26 26 18 12 14 14 17 19 20 21 24 22 23 21 18 17 28 28 13 28 36 39 39 36 32 32 30 27 26 24
19 8 21 22 14 10 10 13 11 11 9 14 23 24 12 3 13 12 12 13 13 13 15 18 21 22 23 22 18 18 22 26 16 24 33 38 42 36 35 35 32 29 27 25
11 12 5 3 5 3 7 8 2 6 13 17 18 14 3 5 9 6 4 5 9 13 15 19 21 24 27 26 23 18 19 17 11 20 25 35 36 35 37 35 33 31 28 27
8 19 15 8 12 10 16 18 16 15 14 19 16 12 11 8 7 8 11 11 13 14 14 14 16 19 25 25 24 19 15 12 18 15 26 31 40 37 37 35 33 30 28 26
22 24 18 16 16 12 9 7 14 15 15 19 16 11 9 11 11 12 11 15 13 13 13 14 16 21 22 19 18 14 11 13 15 7 16 25 37 43 36 34 31 25 23 21
15 22 24 22 24 18 23 9 5 5 7 11 8 3 5 7 11 13 14 14 10 12 13 15 18 20 20 14 11 10 12 14 12 13 7 21 31 37 38 30 24 21 20 19
21 23 20 18 20 20 21 18 15 14 16 8 3 2 5 9 12 14 15 15 13 14 15 17 18 19 17 10 6 5 9 14 16 9 12 16 11 25 35 38 35 32 27 27

GFSCGP_700_spd_123.txt.gz
Wind_Speed
17 20 31 27 30 34 33 32 32 30 22 20 32 28 26 26 28 25 23 23 22 19 16 15 16 19 28 29 30 30 30 31 33 35 35 36 35 28 29 30 31 26 27 29
18 30 22 25 30 32 34 33 37 34 29 26 29 31 27 26 29 27 26 25 20 18 17 16 15 15 23 26 28 28 29 30 30 32 32 36 31 27 28 29 27 27 26 28
28 29 12 18 27 32 34 36 35 33 28 26 29 36 34 30 32 31 27 23 19 20 16 15 12 13 22 26 25 26 27 28 26 30 32 32 29 29 31 29 28 25 24 28
19 21 29 33 29 24 30 28 31 30 28 31 31 30 32 29 26 27 28 23 20 15 12 10 9 11 18 23 23 24 23 24 27 27 29 28 29 31 31 28 24 25 24 26
25 21 16 24 30 28 33 21 20 22 26 28 31 29 29 19 21 18 21 22 18 16 11 7 8 10 15 21 22 22 22 24 27 27 30 28 29 30 29 29 28 25 24 25
29 25 25 27 24 25 31 29 28 24 24 21 40 34 32 27 27 22 22 19 16 12 8 6 8 10 12 16 20 21 20 23 25 27 30 30 30 30 31 30 26 25 24 24
22 22 20 27 26 23 21 23 16 14 16 20 28 32 30 16 22 28 26 17 13 7 6 4 7 12 16 17 18 21 21 23 24 24 29 30 34 34 34 29 28 25 24 24
22 23 15 11 18 23 27 26 20 15 13 17 33 22 27 31 18 18 20 15 10 6 6 5 9 16 18 19 19 20 22 24 25 24 27 30 34 35 33 29 26 26 26 24
19 23 11 9 5 9 17 25 31 34 29 13 15 24 9 13 18 17 13 10 9 8 8 7 14 21 20 18 20 20 23 25 26 27 25 29 33 33 32 29 25 25 27 26
18 26 21 20 11 18 16 17 17 19 6 19 18 19 15 23 21 18 15 10 6 5 7 10 12 13 17 17 18 19 23 25 26 29 28 27 32 33 31 31 26 25 25 27
18 22 26 23 23 16 8 19 22 18 18 12 15 20 25 23 22 20 14 8 6 9 11 14 22 23 23 22 21 19 23 25 28 26 31 31 28 32 34 33 27 25 25 26
16 15 20 24 21 9 7 7 18 12 22 27 29 13 6 28 25 17 11 3 6 15 16 13 16 15 17 25 26 25 22 27 27 27 30 33 34 28 34 31 28 25 25 26
11 9 14 18 20 11 5 3 7 12 15 15 17 9 17 21 18 12 5 5 8 12 13 14 15 17 17 24 24 24 26 27 25 29 30 33 34 31 36 34 32 26 25 26
20 18 19 16 21 12 15 12 10 7 12 12 14 10 10 14 10 7 8 10 10 12 15 16 15 15 16 27 24 22 24 27 25 29 29 31 35 34 38 35 31 27 25 25
17 20 18 20 27 26 23 21 16 14 15 19 19 10 5 11 12 14 13 11 13 14 17 15 13 16 22 26 21 21 23 31 22 24 25 30 33 35 39 36 32 27 26 25
14 16 16 21 21 24 28 26 21 20 18 20 20 23 18 15 13 13 15 16 17 18 18 14 19 21 21 26 23 21 22 26 25 23 26 29 32 35 37 36 33 28 26 25
16 16 16 22 19 16 20 24 24 24 22 21 21 21 19 17 17 17 18 19 20 19 22 21 29 25 24 28 26 24 22 23 27 28 26 30 34 36 36 37 33 30 27 24
18 19 20 23 21 16 16 9 15 14 16 19 20 20 19 18 16 20 22 22 20 21 24 25 26 26 28 29 27 27 24 24 24 29 29 31 34 29 37 38 33 30 27 24
12 16 15 9 15 19 19 7 5 9 16 15 18 19 18 20 28 24 19 23 28 33 30 30 29 28 29 29 27 27 22 23 23 27 29 33 33 31 39 38 33 30 28 26
17 19 18 18 6 4 3 5 8 13 16 6 10 17 23 26 28 22 24 25 23 23 25 25 25 26 25 24 27 28 23 21 25 24 31 35 35 33 41 36 30 32 30 28
23 20 16 15 12 9 8 10 14 7 8 15 17 22 25 23 21 18 15 14 18 20 20 18 21 23 23 24 26 29 25 22 26 27 34 35 35 41 39 31 35 34 32 31
14 17 14 9 6 2 23 11 13 16 14 17 19 15 10 1 7 7 9 13 10 10 15 17 20 21 21 24 29 31 27 24 24 27 16 33 37 45 37 38 39 38 34 32
8 17 17 12 14 16 19 15 18 16 18 21 17 11 8 10 9 9 12 12 17 16 16 17 18 18 19 22 26 27 23 23 20 27 23 26 43 43 40 46 44 43 35 34
18 17 17 12 24 13 24 19 13 12 7 10 6 9 5 7 8 11 14 16 17 12 14 15 16 16 18 23 24 25 19 17 15 25 19 15 27 40 44 43 45 42 41 37
16 17 18 13 25 22 20 21 19 18 14 11 8 6 9 12 14 15 16 17 18 17 17 16 16 16 18 22 22 16 14 13 11 19 20 11 20 33 40 48 45 40 38 35
15 21 20 19 25 21 18 20 18 14 13 12 12 12 13 13 17 18 18 19 20 21 19 17 15 16 20 22 19 14 10 11 10 15 16 8 11 21 38 40 43 43 38 33

GFSCGP_700_spd_126.txt.gz
Wind_Speed
12 20 19 20 24 32 32 33 38 36 28 28 18 22 39 28 26 29 25 23 23 24 25 23 22 24 30 33 39 36 33 31 32 35 38 36 36 30 32 34 36 33 30 30
16 23 23 23 23 29 32 36 40 37 30 30 24 36 35 34 27 31 25 32 26 24 25 22 25 27 29 39 40 34 30 28 30 31 36 36 34 35 30 31 32 31 30 28
18 22 24 28 28 26 29 34 36 36 33 28 26 38 37 39 38 35 38 20 26 27 24 24 28 25 27 26 26 24 24 25 27 28 30 33 36 33 29 28 28 29 29 28
22 19 17 21 31 31 38 28 28 30 30 27 26 26 36 36 35 32 38 33 27 25 23 25 22 17 16 21 20 22 23 23 24 26 26 32 30 31 27 28 27 29 30 28
30 24 27 29 28 23 36 28 28 25 25 26 31 27 38 28 38 42 36 37 29 30 27 23 14 15 19 22 18 20 23 23 23 24 23 31 26 27 27 29 30 31 31 30
28 22 25 31 30 29 27 25 26 30 26 20 37 27 44 32 33 22 25 18 28 27 24 21 15 18 9 18 15 16 20 22 22 22 24 28 27 28 30 30 32 33 32 31
22 24 23 26 27 26 31 26 16 8 15 17 16 21 41 18 28 20 20 25 26 23 17 16 12 12 15 15 16 15 18 20 21 22 24 26 28 30 29 29 32 31 32 30
24 22 16 12 14 16 20 20 21 21 13 17 23 18 49 31 30 21 27 34 28 21 16 14 10 11 10 15 17 14 17 18 24 19 23 24 26 30 28 30 30 29 33 28
23 25 22 25 23 19 13 17 19 27 33 20 16 25 16 13 26 19 27 27 21 17 17 10 10 10 14 15 17 16 15 18 23 21 20 25 25 27 28 31 33 34 34 29
21 26 24 26 24 23 23 16 12 12 4 13 19 26 8 19 17 27 21 17 17 15 17 12 8 8 15 18 19 18 17 17 20 23 24 22 25 25 28 33 36 35 35 29
17 21 28 24 24 24 16 19 13 16 13 8 11 18 18 20 17 16 26 21 16 12 8 5 10 17 21 24 24 22 21 18 19 21 24 26 25 25 27 34 35 35 34 29
18 23 26 25 24 14 17 15 9 5 8 15 23 26 4 14 18 7 17 14 10 12 8 12 15 14 15 20 28 21 21 24 23 23 22 27 25 28 29 31 36 35 34 30
15 10 11 18 12 8 5 16 10 15 10 13 4 4 7 12 16 17 14 7 3 5 5 10 15 9 14 16 27 31 23 24 24 24 23 23 27 29 31 30 35 37 34 30
17 24 23 20 27 17 14 18 15 8 8 16 14 21 18 8 24 12 10 7 7 6 8 8 10 9 16 21 31 35 28 25 27 26 24 23 23 27 32 33 35 37 35 32
15 16 19 23 25 24 21 21 19 17 17 16 20 19 23 17 9 3 7 9 6 8 9 11 7 14 22 31 35 36 28 27 28 29 25 22 22 24 31 35 37 38 38 33
19 7 16 17 19 22 23 21 21 22 20 19 17 20 14 16 5 5 8 6 7 9 10 10 16 24 31 34 34 32 27 29 30 28 28 23 22 23 26 32 36 39 38 35
17 15 18 15 17 23 22 16 18 19 18 19 15 18 14 16 8 3 7 9 11 12 14 18 27 30 32 35 32 31 30 29 31 29 28 25 22 26 27 33 36 37 39 36
14 15 15 20 17 11 15 12 16 12 10 11 14 15 13 4 6 17 23 23 17 15 23 28 33 34 34 35 33 32 31 28 30 28 27 28 23 27 27 33 35 35 40 35
12 14 10 8 13 18 13 7 11 13 12 14 12 12 15 17 17 17 23 22 24 22 25 27 30 32 35 36 33 32 30 27 28 27 24 27 26 27 31 32 35 39 39 33
18 15 18 11 7 4 15 9 12 12 11 10 12 14 20 19 21 23 23 20 22 23 26 26 29 30 30 27 27 28 27 27 26 26 26 27 27 28 35 35 38 41 38 33
23 21 25 7 8 3 24 24 14 5 14 17 22 22 18 12 10 8 7 10 14 17 19 23 25 24 25 25 25 26 25 26 27 29 29 27 28 26 37 38 38 41 39 34
13 15 15 12 10 6 32 20 15 17 18 21 22 18 7 10 9 10 11 12 15 19 18 20 20 23 24 24 24 25 24 25 26 30 30 27 26 28 37 40 39 41 37 35
9 23 16 10 11 19 14 21 18 17 15 19 19 5 6 8 10 12 13 14 15 18 19 17 19 22 22 22 22 23 24 23 25 26 28 25 25 31 34 38 39 40 39 34
22 14 17 14 13 20 11 18 18 19 16 11 9 9 9 10 11 14 17 18 18 19 18 19 22 22 21 20 21 24 24 25 23 21 22 22 24 26 31 41 44 47 40 35
16 12 19 13 22 17 13 17 18 20 19 16 15 15 14 15 16 18 20 21 21 21 21 20 20 22 20 19 21 22 28 21 19 17 16 16 15 20 31 43 44 42 47 38
12 17 18 18 22 17 16 16 16 16 16 16 16 16 17 18 18 20 22 22 21 21 20 20 21 19 21 20 19 25 24 17 15 13 13 15 16 19 19 40 46 49 51 41

GFSCGP_700_spd_129.txt.gz
Wind_Speed
14 10 21 21 18 24 25 27 33 32 33 33 35 34 35 33 39 37 26 18 19 22 22 24 27 22 31 32 33 34 35 32 34 37 44 45 36 30 31 32 34 33 34 33
10 19 18 20 23 26 27 31 34 37 33 28 30 34 45 47 39 44 36 31 19 24 19 21 24 25 32 38 39 40 43 43 43 44 46 44 41 34 31 32 33 32 33 34
17 16 17 22 23 23 29 32 29 32 32 31 34 39 39 40 39 44 45 39 33 18 26 26 28 32 38 38 35 39 42 44 44 45 42 41 41 39 33 30 31 33 34 35
14 13 17 23 25 20 29 26 27 28 29 28 22 20 40 37 36 34 47 46 38 29 24 27 34 30 38 37 38 37 35 34 35 32 33 34 33 36 32 27 26 27 30 33
24 23 20 25 28 26 35 36 33 31 30 28 33 20 54 29 33 32 32 34 36 36 23 19 32 38 33 29 35 31 27 24 24 23 25 27 27 29 25 27 26 27 30 33
24 19 24 24 25 30 32 37 34 32 32 17 35 17 41 37 37 37 33 28 33 39 50 41 36 27 24 29 22 23 19 19 24 23 23 26 26 25 26 25 26 28 31 33
22 18 14 12 18 20 17 21 10 13 11 13 29 21 38 12 13 23 28 27 22 40 41 36 34 30 27 25 20 19 16 20 19 24 26 25 25 25 26 27 27 29 33 36
12 15 11 18 20 20 24 19 9 6 6 12 25 17 40 39 41 36 24 23 23 35 39 35 31 31 23 21 17 15 13 18 20 20 24 25 25 23 26 27 28 28 32 36
19 19 28 25 25 21 26 26 20 14 24 11 15 22 31 31 31 21 24 29 34 34 35 31 23 20 22 15 11 13 13 14 19 22 20 24 25 24 26 27 27 27 28 31
16 23 20 24 25 27 20 24 17 12 4 5 7 20 18 25 16 17 26 35 29 29 23 20 15 18 16 13 12 14 16 17 18 20 22 19 25 25 26 25 24 26 31 33
17 18 25 22 27 26 28 20 13 13 12 3 4 2 14 10 14 14 20 23 33 23 23 19 17 13 12 16 18 18 18 24 23 21 22 22 21 27 26 26 26 27 36 35
15 17 23 24 25 23 20 11 10 8 6 5 4 3 23 15 6 15 5 10 27 11 20 18 13 7 5 12 18 17 21 18 21 20 21 23 23 23 27 28 28 32 33 37
21 12 18 16 10 15 20 13 11 16 8 6 5 7 29 33 9 17 30 20 7 5 5 6 5 12 11 14 20 25 20 22 25 28 24 22 23 23 26 29 31 34 37 36
18 19 20 17 21 25 18 22 21 16 9 12 14 22 25 29 20 14 7 7 5 10 1 1 5 9 13 15 26 25 26 27 31 30 30 26 23 22 24 28 32 37 39 41
14 19 17 15 19 21 20 24 19 17 19 15 21 15 17 25 22 11 6 3 7 3 4 4 8 12 12 19 23 25 31 34 37 37 33 31 27 23 24 25 30 34 38 39
15 14 20 24 14 16 17 16 17 13 17 20 19 14 13 16 9 10 11 7 3 4 4 8 11 17 20 19 23 27 32 35 38 38 33 31 29 26 22 20 24 31 37 38
11 10 16 11 14 20 8 7 11 16 10 10 9 6 6 7 8 4 9 10 11 13 15 17 17 19 24 27 30 32 35 37 39 38 32 29 30 28 24 23 23 29 36 38
15 14 9 11 12 2 4 12 7 4 12 7 4 4 5 7 10 12 16 17 19 21 24 24 27 32 35 34 36 38 38 36 35 35 30 28 28 27 24 22 24 31 31 35
15 11 10 3 6 13 15 14 12 15 14 16 14 12 9 12 15 17 21 25 26 28 31 32 33 35 36 36 36 36 35 32 30 28 28 28 27 27 25 21 27 28 33 36
19 14 20 3 3 3 23 22 11 11 3 12 20 17 12 13 10 15 20 24 26 26 23 23 26 27 30 30 27 26 27 25 25 24 27 28 28 27 26 26 24 37 34 38
22 15 15 14 5 3 22 28 1 6 10 14 16 15 13 9 7 7 4 4 6 10 14 18 20 25 24 22 21 23 26 25 25 27 27 28 30 30 29 28 22 41 39 34
11 15 11 10 7 5 25 21 20 14 8 7 6 6 5 4 6 6 8 9 10 12 14 16 16 20 24 26 25 24 26 26 26 29 30 30 31 32 30 29 25 36 38 38
8 16 12 10 7 20 14 17 16 14 10 8 10 8 8 8 9 10 11 12 14 15 17 18 19 20 22 23 25 24 24 25 26 28 31 28 28 31 28 29 27 31 44 47
16 10 15 11 9 16 9 15 15 15 14 12 12 12 13 13 14 16 18 21 21 21 22 22 21 22 23 24 25 25 26 28 30 32 36 26 26 22 25 24 28 31 45 49
13 8 14 13 17 11 9 14 15 14 14 14 14 16 17 16 15 16 18 20 21 20 21 22 22 23 23 24 24 27 30 32 32 30 26 21 17 19 22 22 24 26 36 49
11 10 14 16 18 13 11 13 11 13 14 16 18 19 19 21 21 20 21 21 20 19 18 19 20 22 23 23 25 29 29 26 29 23 20 18 15 16 20 21 22 23 35 45

GFSCGP_700_spd_132.txt.gz
Wind_Speed
5 12 13 12 17 20 23 27 31 29 22 26 28 31 37 34 32 34 38 41 39 30 36 32 33 34 39 42 44 41 38 40 38 37 37 38 35 32 27 29 32 33 34 34
12 13 8 15 15 20 23 30 35 36 31 29 31 35 38 39 36 34 36 40 46 38 24 17 19 25 38 43 40 39 41 39 40 40 39 38 36 37 37 37 34 33 34 33
14 14 15 21 20 21 23 20 17 24 26 25 24 32 38 41 42 40 37 39 40 46 38 33 19 28 32 33 34 37 34 34 35 35 36 37 38 41 45 42 38 35 36 34
10 3 12 16 22 23 33 24 30 32 31 23 25 24 48 37 42 40 37 40 40 33 38 28 34 24 29 36 39 39 37 38 42 41 38 40 43 46 48 44 37 33 34 34
13 19 18 19 18 22 29 26 26 31 32 34 42 18 41 20 33 36 35 33 30 21 24 30 22 32 31 37 40 43 42 40 40 43 46 49 46 47 39 34 31 32 34 32
17 18 15 17 14 8 18 26 29 28 28 14 41 29 21 46 42 43 45 36 33 28 27 34 34 35 39 41 40 37 38 35 41 35 37 37 37 35 32 26 26 26 28 29
23 17 10 16 19 19 18 21 9 5 6 12 37 28 36 42 39 38 29 33 25 23 29 37 37 39 35 33 33 35 36 37 32 32 31 28 29 28 27 24 25 28 29 31
11 8 9 17 24 20 26 11 8 5 7 8 26 11 33 29 28 31 36 38 34 24 19 39 41 37 36 31 30 25 26 26 26 26 25 24 26 30 29 26 27 30 30 31
13 11 21 20 20 25 25 17 23 21 24 13 18 29 33 22 24 28 33 22 22 19 22 37 38 34 32 30 21 17 19 26 27 21 21 21 21 22 29 27 28 29 28 29
12 28 26 22 22 21 18 21 15 10 2 5 6 11 13 26 24 25 21 7 19 24 30 33 31 29 28 19 17 18 16 18 14 18 21 24 25 23 24 28 28 29 26 29
18 14 25 26 25 24 21 15 12 14 9 4 7 3 22 31 30 21 13 3 30 22 27 26 19 19 22 21 14 13 19 11 9 13 19 24 25 25 24 25 28 28 28 25
11 12 17 25 19 9 11 14 7 5 7 7 9 4 29 25 29 12 9 18 19 20 27 20 13 13 17 12 10 9 5 11 13 15 15 20 24 24 25 25 26 31 30 32
13 7 12 13 1 7 14 17 13 15 11 10 4 13 20 23 33 13 4 16 19 15 17 20 13 7 13 10 7 7 11 17 20 20 20 21 22 22 23 24 25 31 33 32
10 9 10 12 18 19 22 21 19 17 10 17 19 27 18 23 28 21 9 9 22 17 12 5 9 7 8 5 10 15 15 16 21 22 25 25 26 24 23 26 25 29 34 37
11 17 16 17 16 16 14 16 18 18 14 14 20 18 8 20 18 13 8 14 10 8 6 4 2 8 7 9 14 16 16 20 24 27 30 33 32 31 27 26 27 27 35 37
15 16 18 20 15 9 16 15 9 12 11 11 1 7 7 8 12 9 3 9 11 9 5 5 10 13 15 16 16 17 22 24 29 33 36 38 37 33 31 26 26 27 30 38
13 13 13 10 11 12 3 12 11 7 13 11 14 11 4 7 8 7 16 12 15 18 15 14 17 18 21 24 26 27 28 31 34 40 43 41 39 33 29 27 24 27 28 32
14 12 8 10 8 2 9 13 6 8 13 9 6 8 7 7 8 10 13 16 18 20 23 24 27 30 31 33 35 35 37 40 40 38 37 37 36 30 25 25 23 25 26 31
12 10 7 3 5 2 16 17 20 11 12 10 12 14 12 9 11 17 18 23 27 29 29 31 34 37 36 36 36 39 38 31 31 32 32 33 30 27 24 25 24 24 25 31
7 12 8 7 3 1 18 23 11 6 6 13 14 13 13 11 8 14 14 19 23 23 20 20 23 29 29 26 27 26 26 26 27 27 26 28 28 28 27 26 25 25 28 31
18 7 14 12 3 1 19 20 7 5 9 13 13 14 13 8 7 9 7 9 11 13 15 16 19 20 18 18 21 24 28 30 29 27 27 28 26 28 29 29 28 29 28 29
9 9 8 6 4 4 24 15 13 12 9 10 12 11 11 10 9 8 11 13 14 16 18 20 22 23 23 23 21 21 23 26 29 30 28 27 27 32 32 32 33 33 33 30
4 9 7 6 4 12 15 13 14 10 10 10 12 13 12 11 11 13 14 15 17 21 22 23 23 22 25 27 28 27 25 24 26 29 29 29 32 37 39 36 37 36 35 31
9 5 8 8 8 18 12 13 12 10 11 12 12 12 14 14 12 12 14 16 17 18 19 19 20 21 22 23 26 30 29 31 32 31 34 36 36 38 41 39 36 33 31 31
4 5 7 8 12 14 7 11 9 9 10 12 13 15 16 17 17 16 17 18 19 19 18 19 19 20 21 23 25 27 28 29 31 32 33 31 33 34 39 29 27 27 28 32
5 8 8 11 14 11 8 10 8 10 10 13 14 14 15 17 19 21 22 22 23 22 21 20 19 19 20 21 23 25 28 29 29 28 28 27 26 27 25 19 20 22 27 32